[[{"header":{"parameterUnit":"m.s-1","parameterCategory":1,"la1":31.0,"la2":29.5877,"lo1":-88.7671,"lo2":-86.6584,"dy":0.0162,"dx":0.0185,"nx":115,"ny":88,"refTime":"2026-04-13T00:00:00:Z","depth":0,"parameterNumber":2,"parameterNumberName":"U-component_of_WINDS"},"data":[0.0,0.0,0.0,0.0,0.0,0.0,0.0,0.0,0.0,0.0,0.0,0.0,0.0,0.0,0.0,0.0,0.0,0.0,0.0,0.0,0.0,0.0,0.0,0.0,0.0,0.0,0.0,0.0,0.0,0.0,0.0,0.0,0.0,0.0,0.0,0.0,0.0,0.0,0.0,0.0,0.0,0.0,0.0,0.0,0.0,0.0,0.0,0.0,0.0,0.0,0.0,0.0,0.0,0.0,0.0,0.0,0.0,0.0,0.0,0.0,0.0,0.0,0.0,0.0,0.0,0.0,0.0,0.0,0.0,0.0,0.0,0.0,0.0,0.0,0.0,0.0,0.0,0.0,0.0,0.0,0.0,0.0,0.0,0.0,0.0,0.0,0.0,0.0,0.0,0.0,0.0,0.0,0.0,0.0,0.0,0.0,0.0,0.0,0.0,0.0,0.0,0.0,0.0,0.0,0.0,0.0,0.0,0.0,0.0,0.0,0.0,0.0,0.0,0.0,0.0,0.0,0.0,0.0,0.0,0.0,0.0,0.0,0.0,0.0,0.0,0.0,0.0,0.0,0.0,0.0,0.0,0.0,0.0,0.0,0.0,0.0,0.0,0.0,0.0,0.0,0.0,0.0,0.0,0.0,0.0,0.0,0.0,0.0,0.0,0.0,0.0,0.0,0.0,0.0,0.0,0.0,0.0,0.0,0.0,0.0,0.0,0.0,0.0,0.0,0.0,0.0,0.0,0.0,0.0,0.0,0.0,0.0,0.0,0.0,0.0,0.0,0.0,0.0,0.0,0.0,0.0,0.0,0.0,0.0,0.0,0.0,0.0,0.0,0.0,0.0,0.0,0.0,0.0,0.0,0.0,0.0,0.0,0.0,0.0,0.0,0.0,0.0,0.0,0.0,0.0,0.0,0.0,0.0,0.0,0.0,0.0,0.0,0.0,0.0,0.0,0.0,0.0,0.0,0.0,0.0,0.0,0.0,0.0,0.0,0.0,0.0,0.0,0.0,0.0,0.0,0.0,0.0,0.0,0.0,0.0,0.0,0.0,0.0,0.0,0.0,0.0,0.0,0.0,0.0,0.0,0.0,0.0,0.0,0.0,0.0,0.0,0.0,0.0,0.0,0.0,0.0,0.0,0.0,0.0,0.0,0.0,0.0,0.0,0.0,0.0,0.0,0.0,0.0,0.0,0.0,0.0,0.0,0.0,0.0,0.0,0.0,0.0,0.0,0.0,0.0,0.0,0.0,0.0,0.0,0.0,0.0,0.0,0.0,0.0,0.0,0.0,0.0,0.0,0.0,0.0,0.0,0.0,0.0,0.0,0.0,0.0,0.0,0.0,0.0,0.0,0.0,0.0,0.0,0.0,0.0,0.0,0.0,0.0,0.0,0.0,0.0,0.0,0.0,0.0,0.0,0.0,0.0,0.0,0.0,0.0,0.0,0.0,0.0,0.0,0.0,0.0,0.0,0.0,0.0,0.0,0.0,0.0,0.0,0.0,0.0,0.0,0.0,0.0,0.0,0.0,0.0,0.0,0.0,0.0,0.0,0.0,0.0,0.0,0.0,0.0,0.0,0.0,0.0,0.0,0.0,0.0,0.0,0.0,0.0,0.0,0.0,0.0,0.0,0.0,0.0,0.0,0.0,0.0,0.0,0.0,0.0,0.0,0.0,0.0,0.0,0.0,0.0,0.0,0.0,0.0,0.0,0.0,0.0,0.0,0.0,0.0,0.0,0.0,0.0,0.0,0.0,0.0,0.0,0.0,0.0,0.0,0.0,0.0,0.0,0.0,0.0,0.0,0.0,0.0,0.0,0.0,0.0,0.0,0.0,0.0,0.0,0.0,0.0,0.0,0.0,0.0,0.0,0.0,0.0,0.0,0.0,0.0,0.0,0.0,0.0,0.0,0.0,0.0,0.0,0.0,0.0,0.0,0.0,0.0,0.0,0.0,0.0,0.0,0.0,0.0,0.0,0.0,0.0,0.0,0.0,0.0,0.0,0.0,0.0,0.0,0.0,0.0,0.0,0.0,0.0,0.0,0.0,0.0,0.0,0.0,0.0,0.0,0.0,0.0,0.0,0.0,0.0,0.0,0.0,0.0,0.0,0.0,0.0,0.0,0.0,0.0,0.0,0.0,0.0,0.0,0.0,0.0,0.0,0.0,0.0,0.0,0.0,0.0,0.0,0.0,0.0,0.0,0.0,0.0,0.0,0.0,0.0,0.0,0.0,0.0,0.0,0.0,0.0,0.0,0.0,0.0,0.0,0.0,0.0,0.0,0.0,0.0,0.0,0.0,0.0,0.0,0.0,0.0,0.0,0.0,0.0,0.0,0.0,0.0,0.0,0.0,0.0,0.0,0.0,0.0,0.0,0.0,0.0,0.0,0.0,0.0,0.0,0.0,0.0,0.0,0.0,0.0,0.0,0.0,0.0,0.0,0.0,0.0,0.0,0.0,0.0,0.0,0.0,0.0,0.0,0.0,0.0,0.0,0.0,0.0,0.0,0.0,0.0,0.0,0.0,0.0,0.0,0.0,0.0,0.0,0.0,0.0,0.0,0.0,0.0,0.0,0.0,0.0,0.0,0.0,0.0,0.0,0.0,0.0,0.0,0.0,0.0,0.0,0.0,0.0,0.0,0.0,0.0,0.0,0.0,0.0,0.0,0.0,0.0,0.0,0.0,0.0,0.0,0.0,0.0,0.0,0.0,0.0,0.0,0.0,0.0,0.0,0.0,0.0,0.0,0.0,0.0,0.0,0.0,0.0,0.0,0.0,0.0,0.0,0.0,0.0,0.0,0.0,0.0,0.0,0.0,0.0,0.0,0.0,0.0,0.0,0.0,0.0,0.0,0.0,0.0,0.0,0.0,0.0,0.0,0.0,0.0,0.0,0.0,0.0,0.0,0.0,0.0,0.0,0.0,0.0,0.0,0.0,0.0,0.0,0.0,0.0,0.0,0.0,0.0,0.0,0.0,0.0,0.0,0.0,0.0,0.0,0.0,0.0,0.0,0.0,0.0,0.0,0.0,0.0,0.0,0.0,0.0,0.0,0.0,0.0,0.0,0.0,0.0,0.0,0.0,0.0,0.0,0.0,0.0,0.0,0.0,0.0,0.0,0.0,0.0,0.0,0.0,0.0,0.0,0.0,0.0,0.0,0.0,0.0,0.0,0.0,0.0,0.0,0.0,0.0,0.0,0.0,0.0,0.0,0.0,0.0,0.0,0.0,0.0,0.0,0.0,0.0,0.0,0.0,0.0,0.0,0.0,0.0,0.0,0.0,0.0,0.0,0.0,0.0,0.0,0.0,0.0,0.0,0.0,0.0,0.0,0.0,0.0,0.0,0.0,0.0,0.0,0.0,0.0,0.0,0.0,0.0,0.0,0.0,0.0,0.0,0.0,0.0,0.0,0.0,0.0,0.0,0.0,0.0,0.0,0.0,0.0,0.0,0.0,0.0,0.0,0.0,0.0,0.0,0.0,0.0,0.0,0.0,0.0,0.0,0.0,0.0,0.0,0.0,0.0,0.0,0.0,0.0,0.0,0.0,0.0,0.0,0.0,0.0,0.0,0.0,0.0,0.0,0.0,0.0,0.0,0.0,0.0,0.0,0.0,0.0,0.0,0.0,0.0,0.0,0.0,0.0,0.0,0.0,0.0,0.0,0.0,0.0,0.0,0.0,0.0,0.0,0.0,0.0,0.0,0.0,0.0,0.0,0.0,0.0,0.0,0.0,0.0,0.0,0.0,0.0,0.0,0.0,0.0,0.0,0.0,0.0,0.0,0.0,0.0,0.0,0.0,0.0,0.0,0.0,0.0,0.0,0.0,0.0,0.0,0.0,0.0,0.0,0.0,0.0,0.0,0.0,0.0,0.0,0.0,0.0,0.0,0.0,0.0,0.0,0.0,0.0,0.0,0.0,0.0,0.0,0.0,0.0,0.0,0.0,0.0,0.0,0.0,0.0,0.0,0.0,0.0,0.0,0.0,0.0,0.0,0.0,0.0,0.0,0.0,0.0,0.0,0.0,0.0,0.0,0.0,0.0,0.0,0.0,0.0,0.0,0.0,0.0,0.0,0.0,0.0,0.0,0.0,0.0,0.0,0.0,0.0,0.0,0.0,0.0,0.0,0.0,0.0,0.0,0.0,0.0,0.0,0.0,0.0,0.0,0.0,0.0,0.0,0.0,0.0,0.0,0.0,0.0,0.0,0.0,0.0,0.0,0.0,0.0,0.0,0.0,0.0,0.0,0.0,0.0,0.0,0.0,0.0,0.0,0.0,-4.6289,0.0,0.0,0.0,0.0,0.0,0.0,0.0,0.0,0.0,0.0,0.0,0.0,0.0,0.0,0.0,0.0,0.0,0.0,0.0,0.0,0.0,0.0,0.0,0.0,0.0,0.0,0.0,0.0,0.0,0.0,0.0,0.0,0.0,0.0,0.0,0.0,0.0,0.0,0.0,0.0,0.0,0.0,0.0,0.0,0.0,0.0,0.0,0.0,0.0,0.0,0.0,0.0,0.0,0.0,0.0,0.0,0.0,0.0,0.0,0.0,0.0,0.0,0.0,0.0,0.0,0.0,0.0,0.0,0.0,0.0,0.0,0.0,0.0,0.0,0.0,0.0,0.0,0.0,0.0,0.0,0.0,0.0,0.0,0.0,0.0,0.0,0.0,0.0,0.0,0.0,0.0,0.0,0.0,0.0,0.0,0.0,0.0,0.0,0.0,0.0,0.0,0.0,0.0,0.0,0.0,0.0,0.0,0.0,0.0,0.0,-4.7187,-4.6348,-4.7129,-4.7187,-4.6308,0.0,0.0,0.0,0.0,0.0,0.0,0.0,0.0,0.0,0.0,0.0,0.0,0.0,0.0,0.0,0.0,0.0,0.0,0.0,0.0,0.0,0.0,0.0,0.0,0.0,0.0,0.0,0.0,0.0,0.0,0.0,0.0,0.0,0.0,0.0,0.0,0.0,0.0,0.0,0.0,0.0,0.0,0.0,0.0,0.0,0.0,0.0,0.0,0.0,0.0,0.0,0.0,0.0,0.0,0.0,0.0,0.0,0.0,0.0,0.0,0.0,0.0,0.0,0.0,0.0,0.0,0.0,0.0,0.0,0.0,0.0,0.0,0.0,0.0,0.0,0.0,0.0,0.0,0.0,0.0,0.0,0.0,0.0,0.0,0.0,0.0,0.0,0.0,0.0,0.0,0.0,0.0,0.0,0.0,0.0,0.0,0.0,0.0,0.0,0.0,0.0,0.0,0.0,0.0,0.0,0.0,0.0,0.0,0.0,0.0,0.0,0.0,-4.7148,-4.7012,-4.5742,0.0,0.0,0.0,0.0,0.0,0.0,0.0,0.0,0.0,0.0,0.0,0.0,0.0,0.0,0.0,0.0,0.0,0.0,0.0,0.0,0.0,0.0,0.0,0.0,0.0,0.0,0.0,0.0,0.0,0.0,0.0,0.0,0.0,0.0,0.0,0.0,0.0,0.0,0.0,0.0,0.0,0.0,0.0,0.0,0.0,0.0,0.0,0.0,0.0,0.0,0.0,0.0,0.0,0.0,0.0,0.0,0.0,0.0,0.0,0.0,0.0,0.0,0.0,0.0,0.0,0.0,0.0,0.0,0.0,0.0,0.0,0.0,0.0,0.0,0.0,0.0,0.0,0.0,0.0,0.0,0.0,0.0,0.0,0.0,0.0,0.0,0.0,0.0,0.0,0.0,0.0,0.0,0.0,0.0,0.0,0.0,0.0,0.0,0.0,0.0,0.0,0.0,0.0,0.0,0.0,0.0,0.0,0.0,0.0,0.0,-4.7187,-4.6328,-4.7129,0.0,-4.418,0.0,0.0,0.0,0.0,0.0,0.0,0.0,0.0,0.0,0.0,0.0,0.0,0.0,0.0,0.0,0.0,0.0,0.0,0.0,0.0,0.0,0.0,0.0,0.0,0.0,0.0,0.0,0.0,0.0,0.0,0.0,0.0,0.0,0.0,0.0,0.0,0.0,0.0,0.0,0.0,0.0,0.0,0.0,0.0,0.0,0.0,0.0,0.0,0.0,0.0,0.0,0.0,0.0,0.0,0.0,0.0,0.0,0.0,0.0,0.0,0.0,0.0,0.0,0.0,0.0,0.0,0.0,0.0,0.0,0.0,0.0,0.0,0.0,0.0,0.0,0.0,0.0,0.0,0.0,0.0,0.0,0.0,0.0,0.0,0.0,0.0,0.0,0.0,0.0,0.0,0.0,0.0,0.0,0.0,0.0,0.0,0.0,0.0,0.0,0.0,0.0,0.0,0.0,0.0,0.0,0.0,0.0,0.0,0.0,0.0,-4.7187,-4.6308,-4.6641,-4.5859,0.0,0.0,0.0,0.0,0.0,0.0,0.0,0.0,0.0,0.0,0.0,0.0,0.0,0.0,0.0,0.0,0.0,0.0,0.0,0.0,0.0,0.0,0.0,0.0,0.0,0.0,0.0,0.0,0.0,0.0,0.0,0.0,0.0,0.0,0.0,0.0,0.0,0.0,0.0,0.0,0.0,0.0,0.0,0.0,0.0,0.0,0.0,0.0,0.0,0.0,0.0,0.0,0.0,0.0,0.0,0.0,0.0,0.0,0.0,0.0,0.0,0.0,0.0,0.0,0.0,0.0,0.0,0.0,0.0,0.0,0.0,0.0,0.0,0.0,0.0,0.0,0.0,0.0,0.0,0.0,0.0,0.0,0.0,0.0,0.0,0.0,0.0,0.0,0.0,0.0,0.0,0.0,0.0,0.0,0.0,0.0,0.0,0.0,0.0,0.0,0.0,0.0,0.0,0.0,0.0,0.0,0.0,0.0,0.0,0.0,-4.68,-4.6893,-4.6328,-4.6289,-4.5488,-4.3769,0.0,0.0,0.0,0.0,0.0,0.0,0.0,0.0,0.0,0.0,0.0,0.0,0.0,0.0,0.0,0.0,0.0,0.0,0.0,0.0,0.0,0.0,0.0,0.0,0.0,0.0,0.0,0.0,0.0,0.0,0.0,0.0,0.0,0.0,0.0,0.0,0.0,0.0,0.0,0.0,0.0,0.0,0.0,0.0,0.0,0.0,0.0,0.0,0.0,0.0,0.0,0.0,0.0,0.0,0.0,0.0,0.0,0.0,0.0,0.0,0.0,0.0,0.0,0.0,0.0,0.0,0.0,0.0,0.0,0.0,0.0,0.0,0.0,0.0,0.0,0.0,0.0,0.0,0.0,0.0,0.0,0.0,0.0,0.0,0.0,0.0,0.0,0.0,0.0,0.0,0.0,0.0,0.0,0.0,0.0,0.0,0.0,0.0,0.0,0.0,0.0,0.0,0.0,0.0,0.0,0.0,0.0,0.0,0.0,-4.6081,-4.6213,-4.6289,-4.6289,-4.5469,0.0,0.0,0.0,0.0,0.0,0.0,0.0,0.0,0.0,0.0,0.0,0.0,0.0,0.0,0.0,0.0,0.0,0.0,0.0,0.0,0.0,0.0,0.0,0.0,0.0,0.0,0.0,0.0,0.0,0.0,0.0,0.0,0.0,0.0,0.0,0.0,0.0,0.0,0.0,0.0,0.0,0.0,0.0,0.0,0.0,0.0,0.0,0.0,0.0,0.0,0.0,0.0,0.0,0.0,0.0,0.0,0.0,0.0,0.0,0.0,0.0,0.0,0.0,0.0,0.0,0.0,0.0,0.0,0.0,0.0,0.0,0.0,0.0,0.0,0.0,0.0,0.0,0.0,0.0,0.0,0.0,0.0,0.0,0.0,0.0,0.0,0.0,0.0,0.0,0.0,0.0,0.0,0.0,0.0,0.0,0.0,0.0,0.0,0.0,0.0,0.0,0.0,0.0,0.0,0.0,0.0,0.0,0.0,0.0,-4.5903,-4.6115,-4.6247,-4.6269,-4.5781,-4.4922,0.0,0.0,0.0,0.0,0.0,0.0,0.0,0.0,0.0,0.0,0.0,0.0,0.0,0.0,0.0,0.0,0.0,0.0,0.0,0.0,0.0,0.0,0.0,0.0,0.0,0.0,0.0,0.0,0.0,0.0,0.0,0.0,0.0,0.0,0.0,0.0,0.0,0.0,0.0,0.0,0.0,0.0,0.0,0.0,0.0,0.0,0.0,0.0,0.0,0.0,0.0,0.0,0.0,0.0,0.0,0.0,0.0,0.0,0.0,0.0,0.0,0.0,0.0,0.0,0.0,0.0,0.0,0.0,0.0,0.0,0.0,0.0,0.0,0.0,0.0,0.0,0.0,0.0,0.0,0.0,0.0,0.0,0.0,0.0,0.0,0.0,0.0,0.0,0.0,0.0,0.0,0.0,0.0,0.0,0.0,0.0,0.0,0.0,0.0,0.0,0.0,0.0,0.0,0.0,0.0,0.0,0.0,0.0,0.0,-4.5899,0.0,-4.6289,0.0,-4.5449,-4.4609,0.0,0.0,0.0,0.0,0.0,0.0,0.0,0.0,0.0,0.0,0.0,0.0,0.0,0.0,0.0,0.0,0.0,0.0,0.0,0.0,0.0,0.0,0.0,0.0,0.0,0.0,0.0,0.0,0.0,0.0,0.0,0.0,0.0,0.0,0.0,0.0,0.0,0.0,0.0,0.0,0.0,0.0,0.0,0.0,0.0,0.0,0.0,0.0,0.0,0.0,0.0,0.0,0.0,0.0,0.0,0.0,0.0,0.0,0.0,0.0,0.0,0.0,0.0,0.0,0.0,0.0,0.0,0.0,0.0,0.0,0.0,0.0,0.0,0.0,0.0,0.0,0.0,0.0,0.0,0.0,0.0,0.0,0.0,0.0,0.0,0.0,0.0,0.0,0.0,0.0,0.0,0.0,0.0,0.0,0.0,0.0,0.0,0.0,0.0,0.0,0.0,0.0,0.0,0.0,0.0,0.0,0.0,0.0,-4.5694,-4.5918,-4.6171,-4.6289,-4.6269,-4.5469,-4.459,0.0,0.0,0.0,0.0,0.0,0.0,0.0,0.0,0.0,0.0,0.0,0.0,0.0,0.0,0.0,0.0,0.0,0.0,0.0,0.0,0.0,0.0,0.0,0.0,0.0,0.0,0.0,0.0,0.0,0.0,0.0,0.0,0.0,0.0,0.0,0.0,0.0,0.0,0.0,0.0,0.0,0.0,0.0,0.0,0.0,0.0,0.0,0.0,0.0,0.0,0.0,0.0,0.0,0.0,0.0,0.0,0.0,0.0,0.0,0.0,0.0,0.0,0.0,0.0,0.0,0.0,0.0,0.0,0.0,0.0,0.0,0.0,0.0,0.0,0.0,0.0,0.0,0.0,0.0,0.0,0.0,0.0,0.0,0.0,0.0,0.0,0.0,0.0,0.0,0.0,0.0,0.0,0.0,0.0,0.0,0.0,0.0,0.0,0.0,0.0,0.0,0.0,0.0,0.0,0.0,0.0,0.0,0.0,0.0,-4.5903,-4.6152,-4.6289,-4.6269,-4.5449,-4.4609,0.0,0.0,0.0,0.0,0.0,0.0,0.0,0.0,0.0,0.0,0.0,0.0,0.0,0.0,0.0,0.0,0.0,0.0,0.0,0.0,0.0,0.0,0.0,0.0,0.0,0.0,0.0,0.0,0.0,0.0,0.0,0.0,0.0,0.0,0.0,0.0,0.0,0.0,0.0,0.0,0.0,0.0,0.0,0.0,0.0,0.0,0.0,0.0,0.0,0.0,0.0,0.0,0.0,0.0,0.0,0.0,0.0,0.0,0.0,0.0,0.0,0.0,0.0,0.0,0.0,0.0,0.0,0.0,0.0,0.0,0.0,0.0,0.0,0.0,0.0,0.0,0.0,0.0,0.0,0.0,0.0,0.0,0.0,0.0,0.0,0.0,0.0,0.0,0.0,0.0,0.0,0.0,0.0,0.0,0.0,0.0,0.0,0.0,0.0,0.0,0.0,0.0,0.0,0.0,0.0,0.0,0.0,0.0,0.0,-4.6374,-4.664,-4.6777,-4.6777,-4.5937,-4.5078,-4.4219,0.0,0.0,0.0,0.0,0.0,0.0,0.0,0.0,0.0,0.0,0.0,0.0,0.0,0.0,0.0,0.0,0.0,0.0,0.0,0.0,0.0,0.0,0.0,0.0,0.0,0.0,0.0,0.0,0.0,0.0,0.0,0.0,0.0,0.0,0.0,0.0,0.0,0.0,0.0,0.0,0.0,0.0,0.0,0.0,0.0,0.0,0.0,0.0,0.0,0.0,0.0,0.0,0.0,0.0,0.0,0.0,0.0,0.0,0.0,0.0,0.0,0.0,0.0,0.0,0.0,0.0,0.0,0.0,0.0,0.0,0.0,0.0,0.0,0.0,0.0,0.0,0.0,0.0,0.0,0.0,0.0,0.0,0.0,0.0,0.0,0.0,0.0,0.0,0.0,0.0,0.0,0.0,0.0,0.0,0.0,0.0,0.0,0.0,0.0,0.0,0.0,0.0,0.0,0.0,0.0,0.0,0.0,0.0,-4.727,-4.7536,-4.7637,-4.7558,-4.6797,-4.5957,0.0,0.0,0.0,0.0,0.0,0.0,0.0,0.0,0.0,0.0,0.0,0.0,0.0,0.0,0.0,0.0,0.0,0.0,0.0,0.0,0.0,0.0,0.0,0.0,0.0,0.0,0.0,0.0,0.0,0.0,0.0,0.0,0.0,0.0,0.0,0.0,0.0,0.0,0.0,0.0,0.0,0.0,0.0,0.0,0.0,0.0,0.0,0.0,0.0,0.0,0.0,0.0,0.0,0.0,0.0,0.0,0.0,0.0,0.0,0.0,0.0,0.0,0.0,0.0,0.0,0.0,0.0,0.0,0.0,0.0,0.0,0.0,0.0,0.0,0.0,0.0,0.0,0.0,0.0,0.0,0.0,0.0,0.0,0.0,0.0,0.0,0.0,0.0,0.0,0.0,0.0,0.0,0.0,0.0,0.0,0.0,0.0,0.0,0.0,0.0,0.0,0.0,0.0,0.0,0.0,0.0,0.0,0.0,0.0,-4.8096,-4.8343,-4.8154,-4.7617,-4.7383,-4.6543,0.0,0.0,0.0,0.0,0.0,0.0,0.0,0.0,0.0,0.0,0.0,0.0,0.0,0.0,0.0,0.0,0.0,0.0,0.0,0.0,0.0,0.0,0.0,0.0,0.0,0.0,0.0,0.0,0.0,0.0,0.0,0.0,0.0,0.0,0.0,0.0,0.0,0.0,0.0,0.0,0.0,0.0,0.0,0.0,0.0,0.0,0.0,0.0,0.0,0.0,0.0,0.0,0.0,0.0,0.0,0.0,0.0,0.0,0.0,0.0,0.0,0.0,0.0,0.0,0.0,0.0,0.0,0.0,0.0,0.0,0.0,0.0,0.0,0.0,0.0,0.0,0.0,0.0,0.0,0.0,0.0,0.0,0.0,0.0,0.0,0.0,0.0,0.0,0.0,0.0,0.0,0.0,0.0,0.0,0.0,0.0,0.0,0.0,0.0,0.0,0.0,0.0,0.0,0.0,0.0,0.0,0.0,0.0,-4.6442,-4.7916,-4.8015,-4.8105,-4.8144,-4.8144,-4.748,0.0,0.0,0.0,0.0,0.0,0.0,0.0,0.0,0.0,0.0,0.0,0.0,0.0,0.0,0.0,0.0,0.0,0.0,0.0,0.0,0.0,0.0,0.0,0.0,0.0,0.0,0.0,0.0,0.0,0.0,0.0,0.0,0.0,0.0,0.0,0.0,0.0,0.0,0.0,0.0,0.0,0.0,0.0,0.0,0.0,0.0,0.0,0.0,0.0,0.0,0.0,0.0,0.0,0.0,0.0,0.0,0.0,0.0,0.0,0.0,0.0,0.0,0.0,0.0,0.0,0.0,0.0,0.0,0.0,0.0,0.0,0.0,0.0,0.0,0.0,0.0,0.0,0.0,0.0,0.0,0.0,0.0,0.0,0.0,0.0,0.0,0.0,0.0,0.0,0.0,0.0,0.0,0.0,0.0,0.0,0.0,0.0,0.0,0.0,0.0,0.0,0.0,0.0,0.0,0.0,0.0,0.0,0.0,-4.6104,-4.7169,-4.7207,-4.7733,-4.8807,-4.8808,-4.8297,0.0,0.0,0.0,0.0,0.0,0.0,0.0,0.0,0.0,0.0,0.0,0.0,0.0,0.0,0.0,0.0,0.0,0.0,0.0,0.0,0.0,0.0,0.0,0.0,0.0,0.0,0.0,0.0,0.0,0.0,0.0,0.0,0.0,0.0,0.0,0.0,0.0,0.0,0.0,0.0,0.0,0.0,0.0,0.0,0.0,0.0,0.0,0.0,0.0,0.0,0.0,0.0,0.0,0.0,0.0,0.0,0.0,0.0,0.0,0.0,0.0,0.0,0.0,0.0,0.0,0.0,0.0,0.0,0.0,0.0,0.0,0.0,0.0,0.0,0.0,0.0,0.0,0.0,0.0,0.0,0.0,0.0,0.0,0.0,0.0,0.0,0.0,0.0,0.0,0.0,0.0,0.0,0.0,0.0,0.0,0.0,0.0,0.0,0.0,0.0,0.0,0.0,0.0,0.0,0.0,0.0,0.0,0.0,-4.6101,-4.7087,-4.7184,-4.7684,-4.8722,-4.8181,-4.7399,0.0,0.0,0.0,0.0,0.0,0.0,0.0,0.0,0.0,0.0,0.0,0.0,0.0,0.0,0.0,0.0,0.0,0.0,0.0,0.0,0.0,0.0,0.0,0.0,0.0,0.0,0.0,0.0,0.0,0.0,0.0,0.0,0.0,0.0,0.0,0.0,0.0,0.0,0.0,0.0,0.0,0.0,0.0,0.0,0.0,0.0,0.0,0.0,-4.397,0.0,0.0,0.0,0.0,0.0,0.0,0.0,0.0,0.0,0.0,0.0,0.0,0.0,0.0,0.0,0.0,0.0,0.0,0.0,0.0,0.0,0.0,0.0,0.0,0.0,0.0,0.0,0.0,0.0,0.0,0.0,0.0,0.0,0.0,0.0,0.0,0.0,0.0,0.0,0.0,0.0,0.0,0.0,0.0,0.0,0.0,0.0,0.0,0.0,0.0,0.0,0.0,0.0,0.0,0.0,0.0,0.0,0.0,0.0,-4.5904,-4.6468,-4.6561,-4.7069,-4.8003,-4.7377,-4.6695,0.0,0.0,0.0,0.0,0.0,0.0,0.0,0.0,0.0,0.0,0.0,0.0,0.0,0.0,0.0,0.0,0.0,0.0,0.0,0.0,0.0,0.0,0.0,0.0,0.0,0.0,0.0,0.0,0.0,0.0,0.0,0.0,0.0,0.0,0.0,0.0,0.0,0.0,0.0,0.0,0.0,0.0,0.0,0.0,0.0,0.0,0.0,0.0,0.0,0.0,0.0,0.0,0.0,0.0,0.0,0.0,0.0,0.0,0.0,0.0,0.0,0.0,0.0,0.0,0.0,0.0,0.0,0.0,0.0,0.0,0.0,0.0,0.0,0.0,0.0,0.0,0.0,0.0,0.0,0.0,0.0,0.0,0.0,0.0,0.0,0.0,0.0,0.0,0.0,0.0,0.0,0.0,0.0,0.0,0.0,0.0,0.0,0.0,0.0,0.0,0.0,0.0,0.0,0.0,0.0,0.0,0.0,-4.5442,-4.5533,-4.5756,-4.5839,-4.6302,-4.7131,-4.659,-4.6112,-4.5751,0.0,0.0,0.0,0.0,0.0,0.0,0.0,0.0,0.0,0.0,0.0,0.0,0.0,0.0,0.0,0.0,0.0,0.0,0.0,0.0,0.0,0.0,0.0,0.0,0.0,0.0,0.0,0.0,0.0,0.0,0.0,0.0,0.0,0.0,0.0,0.0,0.0,0.0,-4.1754,-4.3662,0.0,0.0,0.0,0.0,0.0,0.0,0.0,0.0,-4.3431,0.0,0.0,0.0,0.0,0.0,0.0,0.0,0.0,0.0,0.0,0.0,0.0,0.0,0.0,0.0,0.0,0.0,0.0,0.0,0.0,0.0,0.0,0.0,0.0,0.0,0.0,0.0,0.0,0.0,0.0,0.0,0.0,0.0,0.0,0.0,0.0,0.0,0.0,0.0,0.0,0.0,0.0,0.0,0.0,0.0,0.0,0.0,0.0,0.0,0.0,0.0,0.0,0.0,0.0,0.0,0.0,-4.5171,-4.4757,-4.4872,-4.5616,-4.5749,-4.5917,-4.6162,-4.615,-4.5476,-4.4218,0.0,0.0,0.0,0.0,0.0,0.0,0.0,0.0,0.0,0.0,0.0,0.0,0.0,0.0,0.0,0.0,0.0,0.0,0.0,0.0,0.0,0.0,0.0,0.0,0.0,0.0,0.0,0.0,0.0,0.0,0.0,0.0,0.0,0.0,0.0,0.0,0.0,0.0,0.0,-4.3794,-4.4632,0.0,0.0,0.0,0.0,0.0,0.0,0.0,0.0,-4.2316,0.0,0.0,0.0,0.0,0.0,0.0,0.0,0.0,0.0,0.0,0.0,0.0,0.0,0.0,0.0,0.0,0.0,0.0,0.0,0.0,0.0,0.0,0.0,0.0,0.0,0.0,0.0,0.0,0.0,0.0,0.0,0.0,0.0,0.0,0.0,0.0,0.0,0.0,0.0,0.0,0.0,0.0,0.0,0.0,0.0,0.0,0.0,0.0,0.0,0.0,0.0,0.0,0.0,0.0,0.0,-4.4459,-4.4622,-4.4997,-4.5575,-4.5725,-4.5802,-4.5839,-4.5579,-4.485,0.0,0.0,0.0,0.0,0.0,0.0,0.0,0.0,0.0,0.0,0.0,0.0,0.0,0.0,0.0,0.0,0.0,0.0,0.0,0.0,0.0,0.0,0.0,0.0,0.0,0.0,0.0,0.0,0.0,0.0,0.0,0.0,0.0,0.0,0.0,0.0,0.0,0.0,0.0,0.0,-4.3819,-4.4126,-4.3737,0.0,0.0,0.0,0.0,0.0,0.0,-4.1808,-4.174,0.0,0.0,0.0,0.0,0.0,0.0,0.0,0.0,0.0,0.0,0.0,0.0,0.0,0.0,0.0,0.0,0.0,0.0,0.0,0.0,0.0,0.0,0.0,0.0,0.0,0.0,0.0,0.0,0.0,0.0,0.0,0.0,0.0,0.0,0.0,0.0,0.0,0.0,0.0,0.0,0.0,0.0,0.0,0.0,0.0,0.0,0.0,0.0,0.0,0.0,0.0,0.0,0.0,0.0,0.0,-4.3703,-4.4443,-4.505,-4.5485,-4.5685,-4.5782,-4.5803,-4.5125,-4.4376,0.0,0.0,0.0,0.0,0.0,0.0,0.0,0.0,0.0,0.0,0.0,0.0,0.0,0.0,0.0,0.0,0.0,0.0,0.0,0.0,0.0,0.0,0.0,0.0,0.0,0.0,0.0,0.0,0.0,0.0,0.0,0.0,0.0,0.0,0.0,0.0,0.0,0.0,0.0,0.0,0.0,-4.3618,-4.2807,-4.23,0.0,0.0,0.0,0.0,-4.1199,-4.1537,0.0,0.0,0.0,0.0,0.0,0.0,0.0,0.0,0.0,0.0,0.0,0.0,0.0,0.0,0.0,0.0,0.0,0.0,0.0,0.0,0.0,0.0,0.0,0.0,0.0,0.0,0.0,0.0,0.0,0.0,0.0,0.0,0.0,0.0,0.0,0.0,0.0,0.0,0.0,0.0,0.0,0.0,0.0,0.0,0.0,0.0,0.0,0.0,0.0,0.0,0.0,0.0,0.0,0.0,0.0,0.0,-4.2918,-4.3606,-4.4363,-4.5123,-4.5466,-4.5688,-4.5796,-4.4988,-4.4194,0.0,0.0,0.0,0.0,0.0,0.0,0.0,0.0,0.0,0.0,0.0,0.0,0.0,0.0,0.0,0.0,0.0,0.0,0.0,0.0,0.0,0.0,0.0,0.0,0.0,0.0,0.0,0.0,0.0,0.0,0.0,0.0,0.0,0.0,0.0,0.0,0.0,0.0,0.0,0.0,0.0,-4.327,-4.2463,-4.1946,-4.1619,0.0,0.0,-4.1705,-4.1059,-4.2381,0.0,0.0,0.0,0.0,0.0,0.0,0.0,0.0,0.0,0.0,0.0,0.0,0.0,0.0,0.0,0.0,0.0,0.0,0.0,0.0,0.0,0.0,0.0,0.0,0.0,0.0,0.0,0.0,0.0,0.0,0.0,0.0,0.0,0.0,0.0,0.0,0.0,0.0,0.0,0.0,0.0,0.0,0.0,0.0,0.0,0.0,0.0,0.0,0.0,0.0,0.0,0.0,0.0,0.0,0.0,-4.2042,-4.2145,-4.3318,-4.4285,-4.5066,-4.4754,-4.4689,-4.4955,-4.373,-4.2689,0.0,0.0,0.0,0.0,0.0,0.0,0.0,0.0,0.0,0.0,0.0,0.0,0.0,0.0,0.0,0.0,0.0,0.0,0.0,0.0,0.0,0.0,0.0,0.0,0.0,0.0,0.0,0.0,0.0,0.0,0.0,0.0,0.0,0.0,0.0,0.0,0.0,0.0,0.0,0.0,0.0,0.0,-4.2307,-4.1735,0.0,0.0,0.0,-4.0607,-3.9976,0.0,0.0,0.0,0.0,0.0,0.0,0.0,0.0,0.0,0.0,0.0,0.0,0.0,0.0,0.0,0.0,0.0,0.0,0.0,0.0,0.0,0.0,0.0,0.0,0.0,0.0,0.0,0.0,0.0,0.0,0.0,0.0,0.0,0.0,0.0,0.0,0.0,0.0,0.0,0.0,0.0,0.0,0.0,0.0,0.0,0.0,0.0,0.0,0.0,0.0,0.0,0.0,0.0,0.0,0.0,0.0,0.0,-4.12,-4.2631,-4.3671,-4.4166,-4.3696,-4.3495,-4.3723,-4.2499,0.0,0.0,0.0,0.0,0.0,0.0,0.0,0.0,0.0,0.0,0.0,0.0,0.0,0.0,0.0,0.0,0.0,0.0,0.0,0.0,0.0,0.0,0.0,0.0,0.0,0.0,0.0,-3.3229,0.0,0.0,0.0,0.0,0.0,0.0,0.0,0.0,0.0,0.0,0.0,0.0,0.0,0.0,-4.1304,-4.1322,-4.0957,-4.0648,0.0,0.0,-3.9502,-3.8888,-3.983,-4.0018,0.0,0.0,0.0,0.0,0.0,0.0,0.0,0.0,0.0,0.0,0.0,0.0,0.0,0.0,0.0,0.0,0.0,0.0,0.0,0.0,0.0,0.0,0.0,0.0,0.0,0.0,0.0,0.0,0.0,0.0,0.0,0.0,0.0,0.0,0.0,0.0,0.0,0.0,0.0,0.0,0.0,0.0,0.0,0.0,0.0,0.0,0.0,0.0,0.0,0.0,0.0,0.0,0.0,0.0,0.0,-4.0018,-4.1156,-4.1801,-4.1852,-4.2096,-4.2231,-4.2236,-4.1668,-4.096,0.0,0.0,0.0,0.0,0.0,0.0,0.0,0.0,0.0,0.0,0.0,0.0,0.0,0.0,0.0,0.0,0.0,0.0,0.0,0.0,0.0,0.0,0.0,0.0,0.0,0.0,0.0,0.0,0.0,0.0,0.0,0.0,0.0,0.0,0.0,0.0,0.0,0.0,0.0,0.0,0.0,-4.0233,-3.8869,-3.9203,-3.9363,0.0,0.0,-3.8901,-3.8105,-3.9967,-4.0449,-3.7329,0.0,0.0,0.0,0.0,0.0,0.0,0.0,0.0,0.0,0.0,0.0,0.0,0.0,0.0,0.0,0.0,0.0,0.0,0.0,0.0,0.0,0.0,0.0,0.0,0.0,0.0,0.0,0.0,0.0,0.0,0.0,0.0,0.0,0.0,0.0,0.0,0.0,0.0,0.0,0.0,0.0,0.0,0.0,0.0,0.0,0.0,0.0,0.0,0.0,0.0,0.0,0.0,0.0,-3.8528,-3.915,-4.0242,-4.1072,-4.1553,-4.1207,-4.111,-4.1352,-4.0643,-3.9627,0.0,0.0,0.0,0.0,0.0,0.0,0.0,0.0,0.0,0.0,0.0,0.0,0.0,0.0,0.0,0.0,0.0,0.0,0.0,0.0,0.0,0.0,0.0,0.0,0.0,0.0,0.0,0.0,-3.2553,-3.2447,-3.2562,0.0,0.0,0.0,0.0,0.0,0.0,0.0,0.0,0.0,0.0,-3.8673,-3.8429,-3.8646,0.0,0.0,-3.8497,-3.8361,-3.7594,-3.8275,-3.8119,-3.5897,-3.6073,0.0,0.0,0.0,0.0,0.0,0.0,0.0,0.0,0.0,0.0,0.0,0.0,0.0,0.0,0.0,0.0,0.0,0.0,0.0,0.0,0.0,0.0,0.0,0.0,0.0,0.0,0.0,0.0,0.0,0.0,0.0,0.0,0.0,0.0,0.0,0.0,0.0,0.0,0.0,0.0,0.0,0.0,0.0,0.0,0.0,0.0,0.0,0.0,0.0,0.0,0.0,0.0,-3.7282,-3.7887,-3.8868,-3.9728,-4.0492,-3.9889,-3.9801,-4.0214,-3.9495,-3.8435,0.0,0.0,0.0,0.0,0.0,0.0,0.0,0.0,0.0,0.0,0.0,0.0,0.0,0.0,0.0,0.0,0.0,0.0,0.0,0.0,0.0,0.0,0.0,0.0,0.0,0.0,0.0,0.0,-3.2137,-3.1694,-3.1711,0.0,0.0,0.0,0.0,0.0,0.0,0.0,0.0,0.0,0.0,-3.6802,-3.6939,-3.7321,-3.7513,-3.7307,-3.7533,-3.7556,-3.7031,-3.7097,-3.6712,-3.5349,0.0,0.0,0.0,0.0,0.0,0.0,0.0,0.0,0.0,0.0,0.0,0.0,0.0,0.0,0.0,0.0,0.0,0.0,0.0,0.0,0.0,0.0,0.0,0.0,0.0,0.0,0.0,-4.2289,0.0,0.0,-4.0402,0.0,0.0,0.0,0.0,0.0,0.0,0.0,0.0,0.0,0.0,0.0,0.0,0.0,0.0,0.0,0.0,0.0,0.0,0.0,0.0,0.0,0.0,-3.5279,-3.606,-3.691,-3.7523,-3.7982,-3.7964,-3.82,-3.8667,-3.8215,-3.7515,-3.6676,0.0,0.0,0.0,0.0,0.0,0.0,0.0,0.0,0.0,0.0,0.0,0.0,0.0,0.0,0.0,0.0,0.0,0.0,0.0,0.0,0.0,0.0,0.0,0.0,0.0,0.0,-3.2449,-3.1112,-3.038,0.0,0.0,0.0,0.0,0.0,0.0,0.0,0.0,0.0,0.0,-3.4278,-3.4513,-3.3864,-3.488,-3.553,-3.4828,-3.5688,-3.6412,-3.6374,-3.6805,-3.6907,0.0,0.0,0.0,0.0,0.0,0.0,0.0,0.0,0.0,0.0,0.0,0.0,0.0,0.0,0.0,0.0,0.0,0.0,0.0,0.0,0.0,0.0,0.0,0.0,0.0,0.0,0.0,-4.2223,-4.1934,0.0,0.0,0.0,0.0,0.0,0.0,0.0,0.0,0.0,0.0,0.0,-3.8506,-3.8463,0.0,0.0,0.0,0.0,0.0,0.0,0.0,0.0,0.0,0.0,0.0,0.0,-3.4615,-3.5225,-3.6159,-3.664,-3.6649,-3.6631,-3.6487,-3.6191,-3.6015,-3.5286,-3.3975,0.0,0.0,0.0,0.0,0.0,0.0,0.0,0.0,0.0,0.0,0.0,0.0,0.0,0.0,0.0,0.0,0.0,0.0,0.0,0.0,0.0,0.0,0.0,0.0,0.0,-3.3207,0.0,0.0,0.0,0.0,0.0,0.0,0.0,0.0,0.0,0.0,0.0,-3.2629,-3.2844,-3.3502,-3.388,-3.364,-3.4004,-3.4196,0.0,0.0,0.0,0.0,0.0,0.0,0.0,0.0,0.0,0.0,0.0,0.0,0.0,0.0,-3.6356,-3.5612,-3.5052,-3.4702,-3.4702,0.0,0.0,0.0,0.0,0.0,0.0,0.0,0.0,0.0,0.0,0.0,0.0,0.0,0.0,-4.163,0.0,-4.0683,0.0,0.0,0.0,0.0,0.0,0.0,0.0,0.0,-3.7899,-3.7834,-3.758,-3.7303,-3.6538,0.0,-3.5961,-3.5488,0.0,0.0,0.0,0.0,0.0,0.0,0.0,0.0,-3.3891,-3.3992,-3.512,-3.5636,-3.5393,-3.5377,-3.5223,-3.4889,-3.4623,-3.3719,-3.2129,-3.2307,-3.1494,0.0,0.0,0.0,0.0,0.0,0.0,0.0,0.0,0.0,0.0,0.0,0.0,0.0,0.0,0.0,0.0,0.0,0.0,0.0,0.0,0.0,0.0,0.0,-3.2028,0.0,0.0,0.0,0.0,0.0,0.0,0.0,0.0,0.0,-3.052,-3.0845,-3.1036,-3.1265,-3.1939,-3.2451,-3.2451,0.0,0.0,0.0,0.0,0.0,0.0,0.0,-3.2935,-3.2885,-3.2526,-3.2286,-3.2476,-3.3518,-3.4232,-3.3966,0.0,0.0,-3.5081,-3.4648,-3.429,-3.4307,-3.4626,-3.4612,-3.3659,-3.4207,-3.4645,0.0,0.0,0.0,0.0,0.0,0.0,0.0,0.0,-4.1643,-4.1177,0.0,-3.9907,0.0,0.0,0.0,0.0,0.0,-3.5647,0.0,0.0,-3.6717,-3.6373,-3.5732,-3.5118,-3.437,-3.3704,-3.4406,-3.3995,-3.2721,-3.4382,0.0,0.0,0.0,0.0,0.0,0.0,-3.2975,-3.2337,-3.3668,-3.4316,-3.4108,-3.4112,-3.4308,-3.4694,-3.4021,-3.2874,-3.1428,-3.2026,-3.1388,-2.9215,-3.0548,0.0,0.0,0.0,0.0,0.0,0.0,0.0,0.0,0.0,0.0,0.0,0.0,0.0,0.0,0.0,0.0,0.0,0.0,0.0,0.0,-3.0461,0.0,0.0,0.0,0.0,0.0,0.0,0.0,0.0,0.0,0.0,-2.9083,-2.8589,-2.8278,-2.8937,0.0,0.0,0.0,0.0,-3.2477,-3.2434,-3.3024,-3.3411,-3.338,-3.3348,-3.33,-3.3316,0.0,0.0,-3.2513,-3.2985,-3.3192,-3.2545,-3.295,-3.3924,-3.523,-3.4941,-3.4625,-3.4609,-3.4095,-3.3665,-3.3592,-3.3607,-3.3597,-4.0378,0.0,0.0,0.0,0.0,-3.9139,-3.9251,-3.9681,-3.9169,-3.8801,-3.856,-3.788,0.0,0.0,0.0,0.0,0.0,0.0,-3.5299,-3.5922,-3.5497,-3.5487,-3.577,-3.5594,-3.5102,-3.4408,-3.4611,-3.4216,-3.3351,-3.3803,-3.3123,-3.129,0.0,0.0,0.0,0.0,-3.1234,-3.1087,-3.1936,-3.2362,-3.2198,-3.2203,-3.2215,-3.2254,-3.2048,-3.172,-3.1236,-3.1166,-3.0837,-3.0193,-3.0414,0.0,0.0,0.0,0.0,0.0,0.0,0.0,0.0,0.0,0.0,0.0,0.0,0.0,0.0,0.0,0.0,0.0,0.0,0.0,-2.9781,-2.937,-2.9063,0.0,0.0,0.0,0.0,0.0,0.0,0.0,0.0,0.0,-2.702,-2.8084,-2.8764,0.0,0.0,-2.938,-2.9393,-2.9754,-3.0015,-3.006,-3.0184,0.0,-2.9813,-2.9334,-2.9058,-2.91,-2.9537,-2.9991,-3.0358,-3.0601,-3.0678,-3.0452,-3.0601,-3.0903,-3.1336,-3.2793,-3.3802,-3.3896,-3.371,-3.3598,-3.3592,-3.3223,-3.2871,-3.8764,-3.9146,-3.8663,-3.8469,-3.8414,-3.7994,-3.8046,-3.8427,-3.7982,-3.7822,-3.779,-3.7329,-3.6741,-3.5999,-3.5166,0.0,0.0,0.0,-3.416,-3.4784,-3.4142,-3.4076,-3.4448,-3.4225,-3.3869,-3.3451,-3.3154,-3.281,-3.2362,-3.2138,-3.1238,-2.9777,0.0,0.0,-2.9438,-3.0124,-3.0355,-3.0108,-3.0788,-3.099,-3.0625,-3.0614,-3.0571,-3.0493,-3.0493,-3.0497,-3.0497,-3.0242,-2.9981,-2.9715,-2.954,-2.9067,0.0,0.0,0.0,0.0,0.0,0.0,0.0,0.0,0.0,0.0,0.0,-2.9284,-2.8986,0.0,0.0,0.0,-2.8363,-2.8488,-2.8538,-2.7999,0.0,0.0,0.0,0.0,0.0,0.0,0.0,-2.7236,-2.5103,-2.3833,-2.4572,-2.5624,-2.6582,-2.7307,-2.8057,-2.841,-2.8198,0.0,-2.8609,-2.8374,-2.8332,-2.8207,-2.7894,-2.7504,-2.7268,-2.7313,-2.7665,-2.8111,-2.8565,-2.8692,-2.8692,-2.8692,-2.8692,-2.8692,-2.8692,-3.0031,-3.1347,-3.1893,-3.2013,-3.2013,-3.2013,-3.1685,-3.143,-3.7618,-3.7618,-3.7602,-3.7632,-3.7706,-3.7632,-3.7618,-3.7618,-3.7618,-3.7618,-3.7602,-3.7618,-3.7221,-3.6388,-3.4413,0.0,-3.4364,-3.3109,-3.2871,-3.338,-3.2736,-3.2407,-3.2392,-3.1764,-3.1436,-3.1406,-3.0761,-3.0432,-3.043,-2.9891,-2.925,-2.8648,-3.0398,-3.0577,-2.9366,-2.9915,-2.9938,-2.9264,-2.9915,-2.9954,-2.9355,-2.9384,-2.9406,-2.9406,-2.9406,-2.9406,-2.9406,-2.9406,-2.908,-2.8419,-2.8323,-2.7732,-2.6481,0.0,0.0,0.0,0.0,0.0,0.0,0.0,0.0,0.0,0.0,0.0,0.0,0.0,0.0,0.0,-2.5713,0.0,-2.7054,-2.6553,0.0,0.0,0.0,-2.6212,-2.5105,-2.455,-2.405,-2.3478,0.0,0.0,-2.2092,-2.2092,-2.2742,-2.4425,-2.617,-2.7131,-2.6686,-2.7247,-2.7649,-2.7124,-2.7076,-2.7063,-2.6903,-2.6809,-2.6756,-2.6831,-2.7043,-2.7033,-2.7136,-2.7163,-2.7162,-2.7179,-2.7147,-2.7162,-2.7147,-2.7294,-2.7582,-2.9018,-2.9453,-2.954,-2.9516,-2.9577,-2.9624,-3.6053,-3.6068,-3.6053,-3.6352,-3.6828,-3.6274,-3.6053,-3.6053,-3.6068,-3.6053,-3.6053,-3.6068,-3.5673,-3.4973,-3.3955,-3.3593,-3.3698,-3.2901,-3.2587,-3.2706,-3.2034,-3.1735,-3.1705,-3.1032,-3.0746,-3.0702,-3.0118,-2.9804,-2.9816,-2.9681,-2.925,-2.8648,-2.905,-2.888,-2.8073,-2.8219,-2.8204,-2.8027,-2.8219,-2.8424,-2.8724,-2.9157,-2.9406,-2.9406,-2.9406,-2.9406,-2.9406,-2.9406,-2.9326,-2.9128,-2.8594,-2.8147,-2.7812,-2.655,0.0,0.0,0.0,0.0,0.0,0.0,0.0,0.0,0.0,-2.6882,-2.6241,0.0,-2.5984,0.0,-2.5494,-2.555,-2.5813,-2.5702,0.0,0.0,-2.4527,-2.3936,-2.3867,-2.2474,-2.1786,-2.2456,-2.128,-2.0621,-2.1054,-2.1131,-2.1288,-2.1773,-2.2799,-2.3708,-2.4225,-2.4452,-2.4806,-2.5268,-2.5344,-2.5253,-2.4846,-2.4365,-2.4346,-2.4896,-2.501,-2.5199,-2.5756,-2.5854,-2.5854,-2.584,-2.584,-2.5854,-2.584,-2.584,-2.5938,-2.6426,-2.7593,-2.8495,-2.7982,-2.8341,-2.8657,-3.5489,-3.5489,-3.5489,-3.5733,-3.6086,-3.5668,-3.5489,-3.5489,-3.5489,-3.5489,-3.5489,-3.519,-3.4831,-3.4412,-3.3484,-3.3066,-3.3006,-3.2348,-3.2049,-3.2034,-3.1279,-3.0837,-3.0528,-2.9799,-2.932,-2.9044,-2.8464,-2.8174,-2.8159,-2.7871,-2.7552,-2.7178,-2.7178,-2.699,-2.6642,-2.6956,-2.728,-2.7585,-2.7585,-2.776,-2.8091,-2.8439,-2.8614,-2.8575,-2.8599,-2.8614,-2.8614,-2.8599,-2.8459,-2.8179,-2.8062,-2.7566,-2.6658,-2.5878,-2.5154,0.0,0.0,0.0,0.0,0.0,0.0,0.0,0.0,0.0,0.0,0.0,-2.5398,-2.5398,-2.4768,-2.4445,-2.4686,-2.439,-2.3983,-2.3498,-2.2989,-2.2606,-2.2581,-2.1273,-2.0598,-2.1191,-1.996,-1.9178,-1.9502,-1.9567,-1.9532,-1.9567,-1.9996,-2.088,-2.227,-2.2583,-2.2678,-2.289,-2.2939,-2.2823,-2.2511,-2.2547,-2.272,-2.3148,-2.3518,-2.3914,-2.4295,-2.4381,-2.4381,-2.4381,-2.4381,-2.4381,-2.4381,-2.4381,-2.4381,-2.4576,-2.5525,-2.6438,-2.6479,-2.6833,-2.7002,-3.5489,-3.5489,-3.5489,-3.5489,-3.5489,-3.5489,-3.5489,-3.5489,-3.5489,-3.5394,-3.5148,-3.4509,-3.4103,-3.3845,-3.2749,-3.2154,-3.202,-3.1442,-3.119,-3.1117,-3.0464,-2.9862,-2.9316,-2.8474,-2.7781,-2.7286,-2.6589,-2.6271,-2.6257,-2.5674,-2.5398,-2.5398,-2.5398,-2.5398,-2.5425,-2.596,-2.6575,-2.7306,-2.7331,-2.7331,-2.7316,-2.7331,-2.7316,-2.7316,-2.7316,-2.7316,-2.7316,-2.7331,-2.7039,-2.652,-2.702,-2.648,-2.4748,-2.508,-2.481,0.0,-2.3447,0.0,0.0,0.0,0.0,0.0,0.0,0.0,0.0,-2.4473,-2.4797,-2.4797,-2.3581,-2.2941,-2.3368,-2.2806,-2.2124,-2.1405,-2.161,-2.1632,-2.1185,-2.0371,-1.9829,-1.9839,-1.8727,-1.8008,-1.8071,-1.8008,-1.8008,-1.8125,-1.8213,-1.89,-2.0509,-2.103,-2.1018,-2.0603,-2.059,-2.0916,-2.0871,-2.1325,-2.1753,-2.1803,-2.2279,-2.275,-2.2781,-2.2781,-2.2781,-2.2781,-2.2781,-2.2811,-2.2914,-2.2975,-2.3005,-2.3185,-2.3819,-2.4445,-2.4989,-2.5397,-2.537,-3.5489,-3.5489,-3.5489,-3.5489,-3.5489,-3.5489,-3.5489,-3.5489,-3.5489,-3.4789,-3.3613,-3.2861,-3.1911,-3.0888,-3.0742,-3.0305,-2.9673,-2.9529,-2.9473,-2.9473,-2.9317,-2.9185,-2.9018,-2.7919,-2.7333,-2.7154,-2.6117,-2.5591,-2.5591,-2.5453,-2.5398,-2.5398,-2.5398,-2.5398,-2.537,0.0,0.0,0.0,-2.581,-2.581,-2.581,-2.5796,-2.581,-2.5796,-2.5823,0.0,-2.581,-2.581,-2.5754,-2.5656,-2.574,0.0,0.0,0.0,0.0,0.0,0.0,0.0,0.0,0.0,0.0,0.0,-2.0637,-2.1123,-2.2301,-2.1849,-2.1526,-2.1495,-2.1235,-2.1103,-2.1204,-2.1099,-2.0929,-2.0768,-2.0238,-1.9808,-1.9667,-1.8944,-1.8388,-1.8378,-1.8159,-1.8008,-1.8008,-1.8008,-1.8008,-1.8008,-1.8008,-1.8173,-1.8616,-1.9323,-1.9921,-2.0441,-2.0451,-2.0558,-2.059,-2.0719,-2.0846,-2.0878,-2.0942,-2.1132,-2.1141,-2.1164,-2.1089,-2.1141,-2.1069,-2.1353,-2.2002,-2.2125,-2.2322,-2.2944,-2.3215,-2.3365,-2.3543,-2.454,-2.5231,-3.5489,0.0,-3.5489,-3.5213,0.0,-3.4758,-3.4476,-3.4124,-3.4591,-3.3931,-3.2452,-3.1778,-3.0928,-2.9989,-2.9785,-2.9411,-2.8989,-2.8989,-2.8989,-2.8971,-2.8556,-2.8084,-2.7534,-2.6521,-2.5748,-2.5153,-2.4543,-2.4266,-2.4266,-2.4237,-2.4266,-2.4266,-2.4266,-2.4266,-2.4237,-2.3914,-2.4076,-2.4838,-2.5203,-2.5398,-2.5398,-2.5398,-2.5398,-2.5398,-2.5398,0.0,0.0,0.0,0.0,0.0,0.0,0.0,0.0,0.0,0.0,-2.3164,-2.2438,-2.1571,-2.0553,-2.0736,-2.057,-1.9809,-1.9592,-1.9998,-2.1231,-2.0877,-2.059,-2.059,-2.059,-2.043,-2.0009,-1.9977,-1.9792,-1.9375,-1.8921,-1.8664,-1.863,-1.8269,-1.8008,-1.8008,-1.8008,-1.8008,-1.8008,-1.8008,-1.8008,-1.8008,-1.8008,-1.8008,-1.8042,-1.8371,-1.8854,-1.9233,-1.9332,-1.9299,-1.9375,-1.9716,-1.9955,-1.9977,-2.0301,-2.0478,-2.0286,-2.0454,-2.0544,-2.0353,-2.0443,-2.0782,-2.1101,-2.127,-2.1385,-2.1741,-2.1865,-2.2051,-2.2414,-2.3446,-2.415,-3.5246,-3.5213,-3.5067,-3.4509,-3.3739,-3.3754,-3.3241,-3.2379,0.0,0.0,0.0,-3.0705,-3.0002,-2.9362,-2.8935,-2.8671,-2.8556,-2.8556,-2.857,-2.8524,-2.7716,-2.685,-2.5978,-2.5084,-2.4148,-2.3283,-2.3145,-2.3095,-2.3095,-2.3095,-2.3095,-2.3095,-2.3095,-2.3095,-2.3065,-2.2811,-2.302,-2.3758,-2.4478,-2.4857,-2.4844,-2.4844,-2.4803,-2.4722,-2.4789,-2.4572,-2.4,-2.4326,-2.4054,-2.3136,-2.385,-2.3811,-2.2675,-2.2514,-2.2195,-2.1568,-2.0948,-2.0316,-1.9684,-2.0101,-2.0103,-1.9421,-1.9198,-1.9365,-2.0107,-2.015,-2.0139,-2.0139,-2.015,-1.9846,-1.9133,-1.9077,-1.8787,-1.8076,-1.8008,-1.8008,-1.8008,-1.8008,-1.8008,-1.8008,-1.8008,-1.8008,-1.8008,-1.8008,-1.8008,-1.8008,-1.8008,-1.8008,-1.8008,-1.8042,-1.811,-1.8168,-1.8236,-1.811,-1.8144,-1.8596,-1.9044,-1.91,-1.9628,-1.9932,-1.9656,-1.9776,-1.982,-1.9267,-1.9678,-1.9907,-2.0167,-2.0231,-2.033,-2.0536,-2.0623,-2.0814,-2.1522,-2.2187,-2.275,-3.4211,-3.4129,-3.3359,-3.2925,-3.2784,-3.2806,-3.2272,-3.1372,-3.1065,-3.0517,-2.9776,-2.9095,-2.8145,-2.7033,-2.761,-2.7517,-2.6884,-2.685,-2.6837,-2.6824,-2.6193,-2.5823,-2.5633,-2.4595,-2.4042,-2.3853,-2.3346,-2.3095,-2.3095,-2.3095,-2.3095,-2.3095,-2.3095,-2.3108,-2.2975,-2.1667,-2.1164,-2.1619,-2.2368,-2.2728,-2.2757,-2.2728,-2.2515,-2.2094,-2.2515,-2.249,-2.1954,-2.1405,-2.1015,-2.0852,-2.0386,-2.0071,-1.9889,-2.0189,-2.0312,-2.0222,-2.0439,-2.0235,-1.9423,-1.9432,-1.9112,-1.8348,-1.8196,-1.8236,-1.8337,-1.8371,-1.8361,-1.8371,-1.8472,-1.8337,-1.8202,-1.8202,-1.8202,-1.8032,-1.8008,-1.8008,-1.8008,-1.8008,-1.8008,-1.8008,-1.8008,-1.8008,-1.8008,-1.8008,-1.8008,-1.8008,-1.8008,-1.8008,-1.8008,-1.8008,-1.8008,-1.8008,-1.8008,-1.8008,-1.8042,-1.8076,-1.8269,-1.8202,-1.8351,-1.8395,-1.796,-1.7993,-1.7902,-1.7319,-1.7444,-1.7828,-1.8638,-1.8882,-1.9297,-2.006,-2.0331,-2.0482,-2.0728,-2.0974,-2.1447,-3.3691,-3.3206,-3.277,-3.2307,-3.1779,-3.1304,-3.0664,-2.9929,-2.9389,-2.9003,-2.8695,-2.8107,-2.736,-2.658,-2.6884,-2.6837,-2.6487,-2.6487,-2.6487,-2.6449,-2.5896,-2.5448,-2.5109,-2.4356,-2.381,-2.3496,-2.3233,-2.3095,-2.3095,-2.3095,-2.3095,-2.3065,-2.2659,-2.2218,-2.1717,-2.0731,-2.0305,-2.0495,-2.0828,-2.0878,-2.0676,-2.1056,-2.0952,-2.0337,-2.0906,-2.0843,-1.9915,-1.9837,-1.9686,-1.9379,-1.9342,-1.9301,-1.9283,-1.9245,-1.9186,-1.9207,-1.9199,-1.9011,-1.863,-1.8596,-1.8428,-1.8032,-1.8008,-1.8008,-1.8008,-1.8008,-1.8008,-1.8008,-1.8008,-1.8008,-1.8008,-1.8008,-1.8008,-1.8008,-1.8008,-1.8008,-1.8008,-1.8008,-1.8008,-1.8008,-1.8008,-1.8008,-1.8008,-1.8008,-1.8008,-1.8008,-1.8008,-1.8008,-1.8008,-1.8008,-1.8008,-1.8008,-1.8008,-1.8008,-1.8008,-1.8008,-1.8008,-1.8008,-1.7812,-1.751,-1.7129,-1.6999,-1.6846,-1.6494,-1.6521,-1.6872,-1.7515,-1.7567,-1.7993,-1.8525,-1.8844,-1.9037,-1.9652,-2.0236,-2.1037,-3.2947,-3.2285,-3.2069,-3.1536,-3.0833,-3.0101,-2.9465,-2.8863,-2.8348,-2.8034,-2.7858,-2.7344,-2.6889,-2.6512,-2.6487,-2.6487,-2.6487,-2.6487,-2.6487,-2.6424,-2.5737,-2.5209,-2.475,-2.4111,-2.3521,-2.3145,-2.3095,-2.3095,-2.3095,-2.3095,-2.3005,-2.2763,-2.1834,-2.1023,-2.0454,-1.9708,-1.9337,-1.9313,-1.9149,-1.9064,-1.9136,-1.9657,-1.9651,-1.9043,-1.9611,-1.9453,-1.8396,-1.8538,-1.8473,-1.8111,-1.8295,-1.8434,-1.8437,-1.8194,-1.804,-1.7997,-1.7955,-1.792,-1.7964,-1.7794,-1.7759,-1.7974,-1.7794,-1.775,-1.7974,-1.8008,-1.8008,-1.8008,-1.8008,-1.8008,-1.8008,-1.8008,-1.8008,-1.8008,-1.8008,-1.8008,-1.8008,-1.8008,-1.8008,-1.8008,-1.8008,-1.794,-1.7759,-1.7681,-1.7647,-1.7647,-1.7862,-1.794,-1.775,-1.7828,-1.794,-1.7794,-1.7828,-1.7974,-1.8008,-1.8008,-1.7969,-1.79,-1.7607,-1.7197,-1.6797,-1.6582,-1.6406,-1.6064,-1.6172,-1.6406,-1.6523,-1.6582,-1.6821,-1.7303,-1.7454,-1.768,-1.8633,-1.939,-2.0322,-3.1426,-3.1217,-3.0457,-2.9998,-2.996,-2.983,-2.9465,-2.8838,-2.8335,-2.7821,-2.7318,-2.6813,-2.6549,-2.6499,-2.6487,-2.6487,-2.6487,-2.6487,-2.6487,-2.6373,-2.5372,-2.4838,-2.47,-2.371,-2.3158,-2.3095,-2.3095,-2.3095,-2.3095,-2.3078,-2.2689,-2.1908,-2.0365,-1.9684,-1.9745,-1.8414,-1.7653,-1.7594,-1.6849,-1.7158,-1.8473,-1.8634,-1.838,-1.779,-1.834,-1.8357,-1.7645,-1.7086,-1.674,-1.6641,-1.6119,-1.5801,-1.584,-1.6158,-1.6375,-1.6414,-1.7047,-1.7598,-1.7881,-1.7217,-1.707,-1.7837,-1.7173,-1.707,-1.7828,-1.794,-1.7974,-1.7896,-1.794,-1.793,-1.8008,-1.794,-1.7828,-1.7862,-1.7906,-1.8008,-1.8008,-1.8008,-1.8008,-1.8008,-1.7896,-1.7691,-1.6922,-1.6715,-1.6749,-1.6749,-1.726,-1.7432,-1.6932,-1.7251,-1.7467,-1.707,-1.7389,-1.7896,-1.7974,-1.8008,-1.7871,-1.7559,-1.7412,-1.7012,-1.6475,-1.6173,-1.6026,-1.5723,-1.5566,-1.5771,-1.6036,-1.6173,-1.6289,-1.668,-1.6824,-1.6973,-1.7484,-1.8068,-1.8959,-3.0871,-3.0343,-2.9972,-2.9779,-2.9779,-2.9779,-2.9277,-2.8436,-2.8197,-2.762,-2.6864,-2.6587,-2.6487,-2.6487,-2.6487,-2.6487,-2.6487,-2.6487,-2.6487,-2.6399,-2.5335,-2.48,-2.4675,-2.3634,-2.3095,-2.3095,-2.3095,-2.3095,-2.3005,-2.2598,-2.1556,-2.005,-1.9212,-1.8595,-1.8009,-1.7096,-1.6623,-1.6617,-1.6009,-1.6018,-1.662,-1.7098,-1.7013,-1.6457,-1.6945,-1.6995,-1.6379,-1.5997,-1.5835,-1.5835,-1.5555,-1.542,-1.542,-1.586,-1.6125,-1.6113,-1.6343,-1.6364,-1.6088,-1.5878,-1.5939,-1.6332,-1.5983,-1.5974,-1.6263,-1.6341,-1.6332,-1.6402,-1.6828,-1.7182,-1.7123,-1.6698,-1.6541,-1.7035,-1.7173,-1.7389,-1.7974,-1.8008,-1.7828,-1.732,-1.7182,-1.6828,-1.6009,-1.5763,-1.5763,-1.579,-1.6149,-1.6184,-1.5869,-1.6123,-1.6123,-1.6009,-1.6576,-1.7364,-1.7828,-1.8008,-1.7812,-1.7471,-1.7158,-1.6728,-1.6281,-1.584,-1.5605,-1.54,-1.5449,-1.5488,-1.5635,-1.5733,-1.5811,-1.6239,-1.6885,-1.7187,-1.7353,-1.7715,-1.8378,-3.0419,-2.9818,-2.9779,-2.9704,-2.9553,-2.9553,-2.8925,-2.7946,-2.7883,-2.7344,-2.6537,-2.6487,-2.6487,-2.6487,-2.6487,-2.6487,-2.6487,-2.6487,-2.6399,-2.6172,-2.5247,-2.4713,-2.4474,-2.3584,-2.3095,-2.3065,-2.2854,-2.2616,-2.2341,-2.1585,-2.0301,-1.8786,-1.8393,-1.7711,-1.6625,-1.6242,-1.6026,-1.5889,-1.5566,-1.542,-1.5497,-1.5921,-1.5921,-1.5497,-1.5921,-1.595,-1.5439,-1.542,-1.542,-1.541,-1.542,-1.542,-1.543,-1.5713,-1.5877,-1.5758,-1.5528,-1.5229,-1.4712,-1.4746,-1.4914,-1.5128,-1.4985,-1.4914,-1.5128,-1.5199,-1.5199,-1.5269,-1.5587,-1.5842,-1.6132,-1.5596,-1.5552,-1.614,-1.6393,-1.6888,-1.7467,-1.7604,-1.732,-1.6706,-1.6393,-1.5869,-1.5048,-1.4807,-1.4807,-1.4772,-1.5057,-1.5021,-1.4922,-1.5021,-1.5163,-1.4879,-1.5587,-1.6541,-1.7432,-1.7862,-1.7745,-1.7441,-1.7051,-1.6621,-1.6173,-1.5703,-1.543,-1.543,-1.5488,-1.5595,-1.5731,-1.5683,-1.5421,-1.5923,-1.6616,-1.7268,-1.7406,-1.7734,-1.7949,-2.983,-2.9792,-2.9779,-2.9465,-2.8976,-2.8938,-2.8348,-2.7381,-2.7379,-2.704,-2.6524,-2.6487,-2.6487,-2.6487,-2.6487,-2.6487,-2.6487,-2.6487,-2.6197,-2.5674,-2.5051,-2.4544,-2.4017,-2.3396,-2.3065,-2.2944,-2.2353,-2.1585,-2.0782,-1.9911,-1.9123,-1.8563,-1.7845,-1.7029,-1.6271,-1.6095,-1.588,-1.5508,-1.5439,-1.542,-1.542,-1.5449,-1.5478,-1.5439,-1.5439,-1.5468,-1.542,-1.542,-1.542,-1.542,-1.542,-1.542,-1.542,-1.541,-1.5279,-1.4905,-1.4451,-1.4297,-1.4449,-1.4069,-1.4099,-1.4807,-1.4207,-1.4135,-1.4807,-1.4914,-1.4914,-1.5128,-1.4314,-1.4279,-1.4985,-1.495,-1.5021,-1.5261,-1.6,-1.6419,-1.6636,-1.668,-1.6671,-1.6349,-1.5614,-1.4764,-1.389,-1.3774,-1.3774,-1.3918,-1.4557,-1.4772,-1.4055,-1.4522,-1.4557,-1.4207,-1.4629,-1.5579,-1.6498,-1.7251,-1.761,-1.7242,-1.6712,-1.6551,-1.6143,-1.5742,-1.5537,-1.5429,-1.549,-1.5621,-1.5819,-1.5737,-1.5382,-1.568,-1.6489,-1.7042,-1.734,-1.7734,-1.7949,-2.9779,-2.9741,-2.939,-2.9076,-2.8863,-2.8549,-2.7959,-2.7341,-2.7329,-2.7002,-2.6549,-2.6487,-2.6487,-2.6487,-2.6487,-2.6487,-2.6487,-2.6487,-2.6172,-2.5573,-2.5039,-2.4499,-2.3979,-2.3384,-2.2793,-2.2353,-2.2032,-2.1132,-1.9879,-1.9441,-1.8783,-1.7885,-1.7251,-1.665,-1.6153,-1.5811,-1.5557,-1.543,-1.542,-1.542,-1.542,-1.542,-1.542,-1.542,-1.542,-1.542,-1.542,-1.542,-1.542,-1.542,-1.542,-1.542,-1.5352,-1.4923,-1.4079,-1.3091,-1.3113,-1.3021,-1.2667,-1.2735,-1.2952,-1.323,-1.3018,-1.2952,-1.323,-1.3339,-1.3339,-1.3302,-1.3091,-1.3018,-1.3193,-1.3339,-1.3593,-1.4171,-1.4557,-1.5084,-1.5552,-1.5693,-1.5482,-1.4807,-1.3954,-1.3193,-1.3025,-1.2813,-1.2806,-1.2842,-1.3164,-1.32,-1.2989,-1.3164,-1.3273,-1.3091,-1.3593,-1.4343,-1.4629,-1.6149,-1.6927,-1.651,-1.6156,-1.6273,-1.608,-1.5336,-1.4973,-1.5062,-1.5196,-1.4941,-1.4915,-1.4947,-1.4734,-1.5272,-1.6092,-1.6656,-1.7274,-1.7552,-1.7804,-2.9779,-2.9691,-2.9126,-2.8787,-2.8574,-2.8072,-2.7519,-2.7077,-2.7017,-2.6839,-2.6537,-2.6487,-2.6487,-2.6487,-2.6487,-2.6487,-2.6487,-2.6474,-2.6097,-2.536,-2.4983,-2.4431,-2.3691,-2.304,-2.2445,-2.1846,-2.129,-2.0268,-1.9044,-1.8877,-1.8364,-1.7439,-1.6911,-1.6514,-1.6095,-1.5625,-1.542,-1.542,-1.542,-1.542,-1.542,-1.542,-1.542,-1.542,-1.542,-1.542,-1.542,-1.542,-1.5264,-1.5079,-1.5264,-1.5284,-1.4991,-1.3986,-1.2962,-1.2018,-1.2113,-1.2037,-1.1593,-1.1971,-1.2305,-1.2305,-1.2305,-1.2305,-1.2305,-1.2305,-1.2305,-1.2305,-1.2305,-1.2305,-1.2305,-1.2342,-1.2556,-1.3208,-1.3528,-1.3918,-1.4601,-1.47,-1.4271,-1.3455,-1.2842,-1.2409,-1.2305,-1.2305,-1.2342,-1.2305,-1.2305,-1.2305,-1.2305,-1.2305,-1.2305,-1.2342,-1.2842,-1.32,-1.352,-1.4657,-1.579,-1.5624,-1.5477,-1.5725,-1.569,-1.493,-1.4589,-1.4685,-1.452,-1.4129,-1.3968,-1.4036,-1.4329,-1.4781,-1.5261,-1.5849,-1.6517,-1.7277,-1.7522,-2.9754,-2.9654,-2.9151,-2.8499,-2.8047,-2.7507,-2.7002,-2.66,-2.6537,-2.6537,-2.6487,-2.6487,-2.6487,-2.6487,-2.6487,-2.6487,-2.6487,-2.6487,-2.5921,-2.4913,-2.4736,-2.4091,-2.3056,-2.2254,-2.1772,-2.1553,-2.0107,-1.8921,-1.8178,-1.8124,-1.785,-1.7406,-1.6911,-1.6504,-1.6125,-1.5644,-1.542,-1.542,-1.542,-1.542,-1.542,-1.542,-1.542,-1.542,-1.542,-1.542,-1.542,-1.5352,-1.4991,-1.4451,-1.4894,-1.4932,-1.4025,-1.281,-1.1834,-1.1705,-1.1553,-1.143,-1.1483,-1.1971,-1.2305,-1.2305,-1.2305,-1.2305,-1.2305,-1.2305,-1.2305,-1.2305,-1.2305,-1.2305,-1.2305,-1.2305,-1.2342,-1.2409,-1.3062,-1.3557,-1.3665,-1.3709,-1.3382,-1.2629,-1.2305,-1.2305,-1.2305,-1.2305,-1.2305,-1.2305,-1.2305,-1.2305,-1.2305,-1.2305,-1.2305,-1.2305,-1.2445,-1.2629,-1.2806,-1.3127,-1.4055,-1.4782,-1.476,-1.4841,-1.483,-1.4363,-1.4098,-1.4101,-1.3963,-1.3588,-1.3407,-1.3497,-1.3793,-1.4201,-1.4627,-1.5111,-1.592,-1.666,-1.717,-2.9202,-2.9076,-2.8185,-2.7708,-2.7469,-2.6989,-2.6637,-2.6512,-2.6487,-2.6487,-2.6487,-2.6487,-2.6487,-2.6487,-2.6487,-2.6487,-2.6487,-2.6461,-2.5862,-2.4828,-2.421,-2.3353,-2.2294,-2.1385,-2.0687,-2.0009,-1.8977,-1.8269,-1.8076,-1.8008,-1.7803,-1.7373,-1.6953,-1.6504,-1.6114,-1.5644,-1.542,-1.542,-1.542,-1.542,-1.542,-1.542,-1.542,-1.542,-1.542,-1.542,-1.5381,-1.4874,-1.4481,-1.4183,-1.3906,-1.3394,-1.2626,-1.2104,-1.1562,-1.1076,-1.1268,-1.143,-1.1462,-1.1951,-1.2305,-1.2305,-1.2305,-1.2305,-1.2305,-1.2305,-1.2305,-1.2305,-1.2305,-1.2305,-1.2305,-1.2305,-1.2305,-1.2305,-1.2556,-1.2769,-1.2806,-1.2776,-1.2629,-1.2415,-1.2305,-1.2305,-1.2305,-1.2305,-1.2305,-1.2305,-1.2305,-1.2305,-1.2305,-1.2305,-1.2305,-1.2305,-1.2305,-1.2305,-1.2519,-1.2666,-1.3127,-1.3808,-1.3959,-1.4006,-1.397,-1.3835,-1.3612,-1.3456,-1.3312,-1.3172,-1.2984,-1.2976,-1.3237,-1.3569,-1.3938,-1.4608,-1.5439,-1.5965,-1.6358,-2.9126,-2.8787,-2.7959,-2.7457,-2.7231,-2.6725,-2.6487,-2.6487,-2.6487,-2.6487,-2.6487,-2.6487,-2.6487,-2.6487,-2.6487,-2.6487,-2.6487,-2.6487,-2.5727,-2.4431,-2.3824,-2.2941,-2.1828,-2.0655,-1.9661,-1.8877,-1.8269,-1.8008,-1.8008,-1.7998,-1.7871,-1.7568,-1.6999,-1.6602,-1.626,-1.5723,-1.542,-1.542,-1.542,-1.542,-1.542,-1.542,-1.542,-1.542,-1.542,-1.542,-1.5352,-1.4353,-1.3765,-1.3575,-1.2726,-1.1996,-1.1772,-1.1531,-1.1108,-1.0853,-1.1069,-1.143,-1.1483,-1.1964,-1.2305,-1.2305,-1.2305,-1.2305,-1.2305,-1.2305,-1.2305,-1.2305,-1.2305,-1.2305,-1.2305,-1.2305,-1.2305,-1.2305,-1.2305,-1.2305,-1.2305,-1.2305,-1.2305,-1.2305,-1.2305,-1.2305,-1.2305,-1.2305,-1.2305,-1.2305,-1.2305,-1.2305,-1.2305,-1.2305,-1.2305,-1.2305,-1.2305,-1.2305,-1.2305,-1.2342,-1.2305,-1.272,-1.31,-1.3214,-1.3278,-1.3064,-1.2849,-1.2892,-1.2758,-1.2715,-1.2572,-1.2392,-1.249,-1.2833,-1.3266,-1.3669,-1.4253,-1.4819,-1.534,-2.9402,-2.8837,-2.8273,-2.767,-2.7168,-2.67,-2.6487,-2.6487,-2.6487,-2.6487,-2.6487,-2.6487,-2.6487,-2.6487,-2.6487,-2.6487,-2.6452,-2.6267,-2.533,-2.3953,-2.3209,-2.2451,-2.1183,-1.9824,-1.8854,-1.8202,-1.8042,-1.8008,-1.8008,-1.8008,-1.7969,-1.7681,-1.7038,-1.6629,-1.6367,-1.5771,-1.542,-1.542,-1.542,-1.542,-1.542,-1.542,-1.542,-1.542,-1.542,-1.542,-1.5206,-1.3965,-1.3,-1.2673,-1.1476,-1.1108,-1.1437,-1.0982,-1.0649,-1.062,-1.1102,-1.1369,-1.1543,-1.1977,-1.2305,-1.2305,-1.2305,-1.2305,-1.2305,-1.2305,-1.2305,-1.2305,-1.2305,-1.2305,-1.2305,-1.2305,-1.2305,-1.2305,-1.2305,-1.2305,-1.2305,-1.2305,-1.2305,-1.2305,-1.2305,-1.2305,-1.2305,-1.2305,-1.2305,-1.2305,-1.2305,-1.2305,-1.2305,-1.2305,-1.2305,-1.2305,-1.2305,-1.2305,-1.2305,-1.2305,-1.2305,-1.2395,-1.2663,-1.2722,-1.2745,-1.2576,-1.2444,-1.2418,-1.2409,-1.2342,-1.2271,-1.2187,-1.2161,-1.2481,-1.2693,-1.269,-1.3107,-1.3837,-1.4665,-2.8825,-2.8273,-2.7733,-2.7216,-2.6738,-2.6537,-2.6487,-2.6487,-2.6487,-2.6487,-2.6487,-2.6487,-2.6487,-2.6487,-2.6487,-2.6487,-2.6349,-2.5734,-2.4792,-2.342,-2.2024,-2.0595,-1.93,-1.863,-1.8269,-1.8008,-1.8008,-1.8008,-1.8008,-1.8008,-1.7705,-1.7038,-1.6872,-1.6365,-1.5801,-1.5557,-1.543,-1.542,-1.542,-1.542,-1.542,-1.542,-1.542,-1.542,-1.542,-1.5391,-1.5264,-1.3855,-1.2366,-1.1303,-1.0895,-1.0688,-1.0909,-1.0726,-1.0626,-1.0734,-1.1102,-1.1436,-1.1509,-1.1971,-1.2278,-1.2305,-1.2305,-1.2305,-1.2305,-1.2305,-1.2305,-1.2305,-1.2305,-1.2305,-1.2305,-1.2305,-1.2305,-1.2305,-1.2318,-1.2305,-1.2305,-1.2305,-1.2305,-1.2305,-1.2311,-1.2325,-1.2305,-1.2325,-1.2318,-1.2311,-1.2305,-1.2305,-1.2305,-1.2305,-1.2305,-1.2305,-1.2305,-1.2305,-1.2305,-1.2305,-1.2305,-1.2305,-1.2395,-1.2425,-1.2455,-1.2418,-1.2358,-1.2342,-1.2342,-1.2305,-1.2305,-1.2251,-1.2291,-1.2298,-1.2375,-1.2497,-1.27,-1.3237,-1.4135,-2.8574,-2.8059,-2.7519,-2.7002,-2.6512,-2.6487,-2.6487,-2.6487,-2.6487,-2.6487,-2.6487,-2.6487,-2.6487,-2.6487,-2.6487,-2.6487,-2.6349,-2.5441,-2.4236,-2.2684,-2.0623,-1.9085,-1.8222,-1.8008,-1.8008,-1.8008,-1.8008,-1.8008,-1.8008,-1.8008,-1.7627,-1.7096,-1.6794,-1.6326,-1.5791,-1.5488,-1.542,-1.542,-1.542,-1.542,-1.542,-1.542,-1.5547,-1.5576,-1.5508,-1.5206,-1.4419,-1.3754,-1.2585,-1.1104,-1.0593,-1.064,-1.0767,-1.0774,-1.0827,-1.0922,-1.1363,-1.1623,-1.169,-1.2044,-1.2278,-1.2305,-1.2305,-1.2305,-1.2305,-1.2305,-1.2305,-1.2305,-1.2305,-1.2305,-1.2305,-1.2305,-1.2365,-1.2502,-1.2385,-1.2318,-1.2311,-1.2305,-1.2305,-1.2325,-1.2398,-1.2425,-1.2338,-1.2405,-1.2398,-1.2345,-1.2305,-1.2305,-1.2305,-1.2305,-1.2305,-1.2305,-1.2325,-1.2338,-1.2358,-1.2365,-1.2418,-1.2412,-1.2371,-1.2358,-1.2345,-1.2338,-1.2305,-1.2305,-1.2305,-1.2305,-1.2305,-1.2305,-1.2305,-1.2305,-1.2305,-1.2342,-1.2519,-1.2666,-1.3593,-2.8562,-2.8059,-2.7519,-2.7002,-2.6524,-2.6487,-2.6487,-2.6487,-2.6487,-2.6487,-2.6487,-2.6487,-2.6487,-2.6487,-2.6487,-2.6418,-2.6233,-2.5146,-2.3593,-2.1697,-1.963,-1.8208,-1.8208,-1.8047,-1.8018,-1.8008,-1.8008,-1.8008,-1.8008,-1.8008,-1.7783,-1.7324,-1.6892,-1.6514,-1.6026,-1.5625,-1.5439,-1.542,-1.542,-1.5294,-1.5235,-1.5313,-1.5507,-1.5648,-1.581,-1.4868,-1.3977,-1.358,-1.3039,-1.0777,-1.068,-1.0815,-1.1015,-1.1042,-1.1142,-1.1356,-1.1623,-1.1866,-1.1933,-1.2111,-1.2305,-1.2305,-1.2305,-1.2305,-1.2305,-1.2305,-1.2305,-1.2305,-1.2305,-1.2331,-1.2405,-1.2398,-1.2565,-1.2764,-1.2565,-1.2438,-1.2392,-1.2371,-1.2358,-1.2405,-1.269,-1.2663,-1.2596,-1.2589,-1.269,-1.2516,-1.2398,-1.2305,-1.2305,-1.2305,-1.2305,-1.2305,-1.2338,-1.2378,-1.2405,-1.2432,-1.2505,-1.2545,-1.2485,-1.2489,-1.2425,-1.2398,-1.2338,-1.2305,-1.2305,-1.2305,-1.2305,-1.2305,-1.2305,-1.2305,-1.2305,-1.2305,-1.2342,-1.2415,-1.2989,-2.8562,-2.8059,-2.7507,-2.7002,-2.6537,-2.6487,-2.6487,-2.6487,-2.6487,-2.6487,-2.6487,-2.6487,-2.6487,-2.6487,-2.6418,-2.6094,-2.5323,-2.4254,-2.2586,-2.041,-1.9197,-1.85,-1.8364,-1.813,-1.8018,-1.8008,-1.8008,-1.8008,-1.8008,-1.7969,-1.7793,-1.7373,-1.6992,-1.6514,-1.6124,-1.5752,-1.542,-1.542,-1.5439,-1.5137,-1.4773,-1.5136,-1.5327,-1.529,-1.5875,-1.5436,-1.4255,-1.4032,-1.3142,-1.1767,-1.1243,-1.1283,-1.1323,-1.1329,-1.1355,-1.1482,-1.1724,-1.1919,-1.196,-1.2138,-1.2305,-1.2305,-1.2305,-1.2305,-1.2305,-1.2305,-1.2305,-1.2305,-1.2311,-1.2432,-1.2703,-1.2886,-1.2999,-1.3046,-1.3019,-1.2973,-1.2973,-1.2792,-1.279,-1.2926,-1.3039,-1.308,-1.2993,-1.2812,-1.2811,-1.2677,-1.2536,-1.2345,-1.2318,-1.2331,-1.2345,-1.2371,-1.2472,-1.2589,-1.2679,-1.2712,-1.2766,-1.2779,-1.2705,-1.2697,-1.2625,-1.2472,-1.2405,-1.2351,-1.2305,-1.2305,-1.2305,-1.2305,-1.2305,-1.2305,-1.2305,-1.2305,-1.2305,-1.2305,-1.2432,-2.8222,-2.767,-2.7165,-2.6763,-2.6524,-2.6487,-2.6487,-2.6487,-2.6487,-2.6487,-2.6487,-2.6487,-2.6487,-2.6452,-2.6013,-2.5441,-2.4672,-2.322,-2.1508,-1.9826,-1.888,-1.85,-1.8286,-1.8144,-1.8008,-1.8008,-1.8008,-1.8008,-1.8008,-1.7978,-1.7793,-1.7412,-1.7129,-1.6836,-1.6436,-1.6123,-1.5947,-1.583,-1.5907,-1.5514,-1.4751,-1.4989,-1.5003,-1.4754,-1.5322,-1.5185,-1.3592,-1.3774,-1.3041,-1.2082,-1.175,-1.1757,-1.1657,-1.1637,-1.1697,-1.1857,-1.1957,-1.2071,-1.2131,-1.2204,-1.2305,-1.2305,-1.2305,-1.2305,-1.2305,-1.2305,-1.2305,-1.2338,-1.2458,-1.271,-1.3093,-1.3113,-1.326,-1.3367,-1.3287,-1.3234,-1.3327,-1.3153,-1.3052,-1.3206,-1.3273,-1.3287,-1.3206,-1.312,-1.306,-1.2993,-1.275,-1.2589,-1.2472,-1.2485,-1.2465,-1.2549,-1.2677,-1.2811,-1.2946,-1.3033,-1.308,-1.3066,-1.3006,-1.2979,-1.2959,-1.2726,-1.2516,-1.2418,-1.2345,-1.2311,-1.2305,-1.2305,-1.2305,-1.2305,-1.2305,-1.2305,-1.2318,-1.2331,-1.2513,-2.7708,-2.7266,-2.6725,-2.6487,-2.6487,-2.6487,-2.6487,-2.6487,-2.6487,-2.6487,-2.6418,-2.6383,-2.6129,-2.6025,-2.5182,-2.4755,-2.391,-2.2357,-2.0434,-1.9583,-1.887,-1.849,-1.8208,-1.8096,-1.8008,-1.8008,-1.8008,-1.8008,-1.8008,-1.7988,-1.7861,-1.7529,-1.7425,-1.7158,-1.6853,-1.6687,-1.6484,-1.625,-1.6414,-1.587,-1.4877,-1.4969,-1.4871,-1.4463,-1.4838,-1.4616,-1.3539,-1.3386,-1.3158,-1.2072,-1.2171,-1.2181,-1.2047,-1.1986,-1.2053,-1.2271,-1.2258,-1.2251,-1.2251,-1.2291,-1.2305,-1.2305,-1.2305,-1.2305,-1.2305,-1.2318,-1.2351,-1.2512,-1.2737,-1.3093,-1.3507,-1.354,-1.3487,-1.3573,-1.348,-1.3487,-1.3594,-1.348,-1.342,-1.342,-1.3587,-1.3627,-1.3547,-1.346,-1.3407,-1.33,-1.3052,-1.2831,-1.2764,-1.2723,-1.2705,-1.2806,-1.2973,-1.3253,-1.34,-1.344,-1.348,-1.3407,-1.3347,-1.3287,-1.3253,-1.3013,-1.2752,-1.2522,-1.2429,-1.2351,-1.2318,-1.2305,-1.2305,-1.2305,-1.2325,-1.2338,-1.2351,-1.2358,-1.262,-2.7356,-2.7278,-2.6713,-2.6487,-2.6487,-2.6487,-2.6487,-2.6487,-2.6487,-2.6487,-2.6336,-2.5652,-2.5287,-2.4957,-2.4169,-2.332,-2.2322,-2.092,-2.0066,-1.957,-1.8978,-1.85,-1.8354,-1.8091,-1.8018,-1.8008,-1.8008,-1.8008,-1.8008,-1.7998,-1.7949,-1.7822,-1.7578,-1.7334,-1.7217,-1.6921,-1.6628,-1.643,-1.6459,-1.5716,-1.4655,-1.4617,-1.4763,-1.4187,-1.4571,-1.4297,-1.3711,-1.3504,-1.3244,-1.2348,-1.2278,-1.2271,-1.2218,-1.2198,-1.2238,-1.2278,-1.2305,-1.2305,-1.2305,-1.2305,-1.2305,-1.2305,-1.2331,-1.2325,-1.2325,-1.2358,-1.2518,-1.2817,-1.3133,-1.3487,-1.358,-1.3754,-1.3921,-1.3975,-1.3941,-1.3901,-1.3948,-1.3915,-1.3854,-1.3828,-1.3921,-1.3961,-1.3834,-1.3734,-1.362,-1.354,-1.3313,-1.3153,-1.3086,-1.306,-1.306,-1.3193,-1.3327,-1.3641,-1.3915,-1.3901,-1.3901,-1.3801,-1.3714,-1.3547,-1.3494,-1.3293,-1.3053,-1.2846,-1.2565,-1.2392,-1.2358,-1.2345,-1.2305,-1.2305,-1.2338,-1.2385,-1.2529,-1.2643,-1.2832,-2.714,-2.6864,-2.66,-2.6487,-2.6487,-2.6487,-2.6487,-2.6487,-2.6487,-2.6198,-2.5636,-2.4941,-2.4331,-2.3696,-2.2604,-2.167,-2.0839,-2.0073,-1.9609,-1.9424,-1.8919,-1.8461,-1.8325,-1.8086,-1.8037,-1.8008,-1.8008,-1.8008,-1.8008,-1.8008,-1.8008,-1.7969,-1.7783,-1.7705,-1.7532,-1.7011,-1.6562,-1.6346,-1.6005,-1.5212,-1.37,-1.3855,-1.356,-1.3562,-1.359,-1.3404,-1.3164,-1.2989,-1.2769,-1.2409,-1.2305,-1.2305,-1.2305,-1.2305,-1.2305,-1.2305,-1.2305,-1.2305,-1.2305,-1.2305,-1.2305,-1.2325,-1.2425,-1.2556,-1.2616,-1.2699,-1.2879,-1.318,-1.3367,-1.3673,-1.3868,-1.4001,-1.4068,-1.4088,-1.4088,-1.4088,-1.4088,-1.4088,-1.4088,-1.4088,-1.4055,-1.4035,-1.4041,-1.3955,-1.3853,-1.372,-1.3587,-1.346,-1.3393,-1.334,-1.3353,-1.3494,-1.36,-1.3814,-1.4041,-1.4062,-1.4088,-1.4041,-1.3995,-1.3868,-1.3761,-1.3574,-1.344,-1.3293,-1.2979,-1.2619,-1.2478,-1.2492,-1.2405,-1.2351,-1.2496,-1.2616,-1.2757,-1.2924,-1.3086,-2.6889,-2.6487,-2.6487,-2.6487,-2.6487,-2.6487,-2.6487,-2.6487,-2.6487,-2.5955,-2.4968,-2.4295,-2.3479,-2.2426,-2.125,-2.0266,-1.9736,-1.9355,-1.918,-1.9062,-1.8656,-1.8256,-1.8105,-1.8008,-1.8008,-1.8008,-1.8008,-1.8008,-1.8008,-1.8008,-1.8008,-1.7998,-1.8008,-1.7862,-1.7531,-1.6915,-1.6358,-1.5825,-1.5392,-1.4489,-1.342,-1.2637,-1.2305,-1.2305,-1.2305,-1.2378,-1.2409,-1.2415,-1.2415,-1.2305,-1.2305,-1.2305,-1.2305,-1.2305,-1.2305,-1.2305,-1.2305,-1.2305,-1.2305,-1.2305,-1.2338,-1.2438,-1.2656,-1.2777,-1.2945,-1.3086,-1.336,-1.3553,-1.3693,-1.378,-1.4008,-1.4082,-1.4088,-1.4088,-1.4088,-1.4088,-1.4088,-1.4088,-1.4088,-1.4088,-1.4088,-1.4082,-1.4082,-1.4075,-1.3988,-1.3975,-1.3808,-1.3788,-1.3714,-1.3614,-1.3614,-1.3748,-1.3874,-1.3975,-1.4075,-1.4075,-1.4088,-1.4068,-1.4055,-1.3995,-1.3935,-1.3861,-1.3748,-1.3627,-1.33,-1.3006,-1.2832,-1.271,-1.2639,-1.2677,-1.2723,-1.2817,-1.2965,-1.3119,-1.326,-2.6549,-2.6487,-2.6487,-2.6487,-2.6487,-2.6487,-2.6487,-2.6487,-2.6487,-2.5955,-2.4779,-2.3604,-2.2517,-2.1331,-2.0092,-1.9469,-1.9255,-1.8936,-1.875,-1.8685,-1.8315,-1.8115,-1.8018,-1.8008,-1.8008,-1.8008,-1.8008,-1.8008,-1.8008,-1.8008,-1.8008,-1.8008,-1.7862,-1.7647,-1.6966,-1.6384,-1.6166,-1.5414,-1.5174,-1.4569,-1.3613,-1.2712,-1.2372,-1.2305,-1.2305,-1.2305,-1.2305,-1.2305,-1.2305,-1.2305,-1.2305,-1.2305,-1.2305,-1.2305,-1.2305,-1.2305,-1.2305,-1.2305,-1.2305,-1.2345,-1.2438,-1.2643,-1.2804,-1.2945,-1.318,-1.3414,-1.358,-1.3586,-1.3854,-1.3995,-1.4062,-1.4082,-1.4088,-1.4088,-1.4088,-1.4088,-1.4088,-1.4088,-1.4088,-1.4088,-1.4088,-1.4088,-1.4082,-1.4082,-1.4082,-1.4068,-1.4055,-1.4015,-1.3968,-1.3848,-1.3801,-1.3915,-1.3968,-1.4055,-1.4088,-1.4088,-1.4088,-1.4088,-1.4088,-1.4088,-1.4041,-1.3995,-1.4028,-1.3868,-1.3601,-1.342,-1.3267,-1.3113,-1.3005,-1.2945,-1.2965,-1.3013,-1.3133,-1.3293,-1.3494,-2.6487,-2.6487,-2.6487,-2.6487,-2.6487,-2.6487,-2.6487,-2.6487,-2.6487,-2.5616,-2.4163,-2.3014,-2.1444,-1.9732,-1.8754,-1.8701,-1.8744,-1.8451,-1.8403,-1.8471,-1.8188,-1.8008,-1.8008,-1.8008,-1.8008,-1.8008,-1.8008,-1.8008,-1.8008,-1.8008,-1.8008,-1.793,-1.7501,-1.707,-1.6358,-1.5473,-1.4835,-1.4263,-1.3846,-1.3346,-1.2915,-1.2519,-1.2305,-1.2305,-1.2305,-1.2305,-1.2305,-1.2305,-1.2305,-1.2305,-1.2305,-1.2305,-1.2305,-1.2305,-1.2305,-1.2305,-1.2305,-1.2305,-1.2325,-1.2496,-1.265,-1.2851,-1.3046,-1.3414,-1.3654,-1.3788,-1.3881,-1.3901,-1.4008,-1.4082,-1.4088,-1.4088,-1.4088,-1.4088,-1.4088,-1.4088,-1.4088,-1.4088,-1.4088,-1.4088,-1.4088,-1.4088,-1.4088,-1.4088,-1.4088,-1.4082,-1.4075,-1.4055,-1.4048,-1.4015,-1.3995,-1.4035,-1.4062,-1.4082,-1.4088,-1.4088,-1.4088,-1.4088,-1.4088,-1.4088,-1.4088,-1.4075,-1.4088,-1.4088,-1.3915,-1.3761,-1.3661,-1.344,-1.3186,-1.3153,-1.3146,-1.326,-1.3394,-1.3661,-1.3834,-2.6487,-2.6487,-2.6487,-2.6487,-2.6487,-2.6487,-2.6487,-2.6487,-2.6198,-2.5134,-2.3474,-2.2059,-2.0129,-1.8537,-1.8154,-1.8242,-1.8412,-1.811,-1.8188,-1.8237,-1.8169,-1.8027,-1.8008,-1.8008,-1.8008,-1.8008,-1.8008,-1.8008,-1.8008,-1.8008,-1.8008,-1.7974,-1.7139,-1.6532,-1.5825,-1.4764,-1.3774,-1.3346,-1.2806,-1.2482,-1.2342,-1.2342,-1.2305,-1.2305,-1.2305,-1.2305,-1.2305,-1.2305,-1.2305,-1.2305,-1.2305,-1.2305,-1.2305,-1.2305,-1.2305,-1.2331,-1.2378,-1.2452,-1.2498,-1.2643,-1.2797,-1.3058,-1.3373,-1.3801,-1.3975,-1.4088,-1.4082,-1.4048,-1.4068,-1.4082,-1.4088,-1.4088,-1.4088,-1.4088,-1.4088,-1.4088,-1.4088,-1.4088,-1.4088,-1.4088,-1.4088,-1.4088,-1.4088,-1.4088,-1.4088,-1.4088,-1.4088,-1.4088,-1.4088,-1.4088,-1.4088,-1.4088,-1.4088,-1.4088,-1.4088,-1.4088,-1.4088,-1.4088,-1.4088,-1.4088,-1.4088,-1.4088,-1.4088,-1.4088,-1.4088,-1.4021,-1.3868,-1.3627,-1.3407,-1.3394,-1.3407,-1.3473,-1.364,-1.3935,-1.4068,-2.6487,-2.6487,-2.6487,-2.6487,-2.6487,-2.6487,-2.6487,-2.6418,-2.5581,-2.4601,-2.3178,-2.0886,-1.9362,-1.8564,-1.8174,-1.8037,-1.8066,-1.8027,-1.8076,-1.8076,-1.8018,-1.8008,-1.8008,-1.8008,-1.8008,-1.8008,-1.8008,-1.8008,-1.8027,-1.8096,-1.8047,-1.7862,-1.6862,-1.6114,-1.5261,-1.4199,-1.32,-1.2732,-1.2342,-1.2305,-1.2305,-1.2305,-1.2305,-1.2305,-1.2305,-1.2305,-1.2305,-1.2305,-1.2305,-1.2305,-1.2305,-1.2305,-1.2305,-1.2358,-1.2378,-1.2418,-1.2612,-1.2737,-1.2797,-1.2864,-1.2971,-1.3253,-1.3647,-1.4015,-1.4075,-1.4088,-1.4088,-1.4088,-1.4088,-1.4088,-1.4088,-1.4088,-1.4088,-1.4088,-1.4088,-1.4088,-1.4088,-1.4088,-1.4088,-1.4088,-1.4088,-1.4088,-1.4088,-1.4088,-1.4088,-1.4088,-1.4088,-1.4088,-1.4088,-1.4088,-1.4088,-1.4088,-1.4088,-1.4088,-1.4088,-1.4088,-1.4088,-1.4088,-1.4088,-1.4088,-1.4088,-1.4088,-1.4088,-1.4088,-1.4088,-1.4088,-1.4075,-1.3874,-1.3721,-1.3647,-1.362,-1.37,-1.3801,-1.3961,-1.4055,-2.6487,-2.6487,-2.6487,-2.6487,-2.6487,-2.6487,-2.6487,-2.6452,-2.606,-2.479,-2.2994,-2.0498,-1.9043,-1.8588,-1.8223,-1.8008,-1.8008,-1.8008,-1.8008,-1.8008,-1.8008,-1.8008,-1.8008,-1.8008,-1.8008,-1.8008,-1.8008,-1.8008,-1.8018,-1.8184,-1.813,-1.7674,-1.6515,-1.5763,-1.4835,-1.3766,-1.2769,-1.2482,-1.2305,-1.2305,-1.2305,-1.2305,-1.2305,-1.2305,-1.2305,-1.2305,-1.2305,-1.2305,-1.2305,-1.2318,-1.2325,-1.2345,-1.2385,-1.2522,-1.2603,-1.265,-1.2904,-1.2999,-1.3073,-1.318,-1.3434,-1.3687,-1.3961,-1.4088,-1.4088,-1.4088,-1.4088,-1.4088,-1.4088,-1.4088,-1.4088,-1.4088,-1.4088,-1.4088,-1.4088,-1.4088,-1.4088,-1.4088,-1.4088,-1.4088,-1.4088,-1.4088,-1.4088,-1.4088,-1.4088,-1.4088,-1.4088,-1.4095,-1.4122,-1.4088,-1.4088,-1.4088,-1.4088,-1.4088,-1.4088,-1.4088,-1.4088,-1.4088,-1.4088,-1.4088,-1.4088,-1.4088,-1.4088,-1.4088,-1.4088,-1.4088,-1.4088,-1.4088,-1.4008,-1.3881,-1.3874,-1.3935,-1.3988,-1.4015,-1.4048,-2.6487,-2.6487,-2.6487,-2.6487,-2.6487,-2.6487,-2.6487,-2.6418,-2.6129,-2.4814,-2.2498,-2.0291,-1.9141,-1.876,-1.8252,-1.8018,-1.8008,-1.8008,-1.8008,-1.8008,-1.8008,-1.8008,-1.8008,-1.8008,-1.8008,-1.8008,-1.8008,-1.8008,-1.8018,-1.832,-1.7971,-1.7169,-1.6114,-1.5376,-1.4764,-1.3375,-1.2305,-1.2305,-1.2398,-1.2425,-1.2445,-1.2559,-1.2512,-1.2498,-1.2502,-1.2502,-1.2472,-1.2478,-1.2472,-1.2512,-1.2532,-1.2525,-1.2585,-1.2723,-1.2884,-1.2979,-1.314,-1.3327,-1.336,-1.3514,-1.3774,-1.3968,-1.4041,-1.4088,-1.4088,-1.4088,-1.4088,-1.4088,-1.4088,-1.4088,-1.4088,-1.4088,-1.4088,-1.4088,-1.4088,-1.4088,-1.4088,-1.4088,-1.4088,-1.4088,-1.4135,-1.4262,-1.4322,-1.4355,-1.4369,-1.4295,-1.4122,-1.4175,-1.4269,-1.4208,-1.4088,-1.4088,-1.4088,-1.4088,-1.4088,-1.4088,-1.4088,-1.4088,-1.4088,-1.4088,-1.4088,-1.4088,-1.4088,-1.4088,-1.4088,-1.4088,-1.4088,-1.4088,-1.4088,-1.4068,-1.4062,-1.4035,-1.4041,-1.4055,-1.4062,-2.6487,-2.6487,-2.6487,-2.6487,-2.6487,-2.6487,-2.6487,-2.6349,-2.5394,-2.4013,-2.2126,-2.0213,-1.9307,-1.9062,-1.8428,-1.8096,-1.8008,-1.8008,-1.8037,-1.8096,-1.8037,-1.8018,-1.8066,-1.8086,-1.8144,-1.8037,-1.8086,-1.8125,-1.8066,-1.8203,-1.7693,-1.6737,-1.5776,-1.5,-1.4947,-1.328,-1.2385,-1.2365,-1.267,-1.275,-1.2824,-1.2953,-1.2899,-1.2837,-1.2777,-1.2777,-1.2784,-1.2777,-1.2784,-1.2804,-1.2939,-1.2919,-1.2837,-1.3039,-1.318,-1.3227,-1.344,-1.358,-1.3606,-1.3613,-1.3821,-1.4035,-1.4088,-1.4088,-1.4088,-1.4088,-1.4088,-1.4088,-1.4088,-1.4088,-1.4088,-1.4088,-1.4088,-1.4088,-1.4088,-1.4142,-1.4148,-1.4188,-1.4215,-1.4335,-1.4442,-1.4536,-1.4616,-1.4676,-1.4696,-1.4569,-1.4269,-1.4255,-1.4429,-1.4436,-1.4335,-1.4282,-1.4289,-1.4215,-1.4215,-1.4115,-1.4088,-1.4088,-1.4088,-1.4088,-1.4088,-1.4088,-1.4088,-1.4088,-1.4088,-1.4088,-1.4088,-1.4088,-1.4088,-1.4088,-1.4088,-1.4075,-1.4082,-1.4088,-1.4088,-2.6487,-2.6487,-2.6487,-2.6487,-2.6487,-2.6487,-2.6487,-2.6198,-2.4803,-2.3588,-2.2609,-2.0714,-1.9521,-1.917,-1.874,-1.8266,-1.8066,-1.8027,-1.8076,-1.8354,-1.8213,-1.8242,-1.833,-1.8418,-1.8383,-1.8393,-1.8393,-1.8393,-1.8412,-1.8393,-1.7779,-1.683,-1.541,-1.4403,-1.3731,-1.2801,-1.271,-1.2879,-1.3013,-1.306,-1.3073,-1.316,-1.318,-1.306,-1.3092,-1.3092,-1.3053,-1.3046,-1.3053,-1.3066,-1.324,-1.3186,-1.312,-1.334,-1.3447,-1.3554,-1.372,-1.3928,-1.3935,-1.3948,-1.3975,-1.4062,-1.4088,-1.4088,-1.4088,-1.4088,-1.4088,-1.4088,-1.4088,-1.4088,-1.4088,-1.4088,-1.4088,-1.4088,-1.4122,-1.4242,-1.4302,-1.4376,-1.4449,-1.4663,-1.4854,-1.4836,-1.4897,-1.5003,-1.5037,-1.5044,-1.481,-1.4683,-1.479,-1.4847,-1.4787,-1.4649,-1.4596,-1.4462,-1.4362,-1.4322,-1.4208,-1.4162,-1.4128,-1.4088,-1.4088,-1.4088,-1.4122,-1.4142,-1.4115,-1.4088,-1.4088,-1.4088,-1.4088,-1.4088,-1.4088,-1.4088,-1.4088,-1.4088,-1.4088,-2.6487,-2.6487,-2.6487,-2.6487,-2.6487,-2.6487,-2.6487,-2.6198,-2.4767,-2.3854,-2.3073,-2.1333,-2.0064,-1.9544,-1.9062,-1.8744,-1.8457,-1.8477,-1.8525,-1.8818,-1.8623,-1.8682,-1.8799,-1.8857,-1.8867,-1.8867,-1.8831,-1.8831,-1.8867,-1.8831,-1.8013,-1.6579,-1.5027,-1.3991,-1.3267,-1.3072,-1.2979,-1.3153,-1.3247,-1.332,-1.3394,-1.3447,-1.3447,-1.336,-1.332,-1.3353,-1.3353,-1.332,-1.332,-1.338,-1.3427,-1.344,-1.3487,-1.3601,-1.3733,-1.3874,-1.3941,-1.4124,-1.4068,-1.4062,-1.4062,-1.4082,-1.4088,-1.4088,-1.4088,-1.4088,-1.4088,-1.4088,-1.4088,-1.4088,-1.4088,-1.4088,-1.4142,-1.4148,-1.4275,-1.4402,-1.4589,-1.4669,-1.471,-1.4975,-1.5142,-1.513,-1.5211,-1.5297,-1.5384,-1.5391,-1.5371,-1.5251,-1.511,-1.5122,-1.5095,-1.4963,-1.487,-1.4743,-1.4643,-1.4589,-1.4456,-1.4269,-1.4235,-1.4235,-1.4088,-1.4088,-1.4142,-1.4188,-1.4162,-1.4135,-1.4095,-1.4088,-1.4102,-1.4102,-1.4088,-1.4088,-1.4088,-1.4088,-1.4088,-2.6487,-2.6487,-2.6487,-2.6487,-2.6487,-2.6487,-2.6487,-2.6383,-2.5406,-2.4409,-2.3382,-2.1991,-2.0788,-1.9927,-1.9473,-1.9248,-1.915,-1.916,-1.9228,-1.9238,-1.9111,-1.9219,-1.9258,-1.9297,-1.9307,-1.9307,-1.9307,-1.9297,-1.9297,-1.8879,-1.7861,-1.6317,-1.4684,-1.3845,-1.35,-1.34,-1.3333,-1.3454,-1.3561,-1.3647,-1.3687,-1.3854,-1.3808,-1.3721,-1.3661,-1.3613,-1.3613,-1.3654,-1.362,-1.3734,-1.3868,-1.378,-1.3806,-1.3941,-1.4035,-1.4082,-1.4124,-1.4082,-1.4088,-1.4088,-1.4088,-1.4088,-1.4088,-1.4088,-1.4088,-1.4088,-1.4088,-1.4088,-1.4088,-1.4088,-1.4088,-1.4175,-1.4255,-1.4362,-1.4502,-1.4683,-1.4948,-1.5035,-1.5003,-1.5144,-1.5317,-1.5431,-1.5591,-1.5685,-1.5598,-1.5625,-1.5605,-1.5551,-1.5411,-1.5264,-1.5283,-1.519,-1.5097,-1.5062,-1.4975,-1.4856,-1.4723,-1.4549,-1.4529,-1.4496,-1.4309,-1.4222,-1.4382,-1.4436,-1.4275,-1.4208,-1.4235,-1.4195,-1.4142,-1.4128,-1.4095,-1.4088,-1.4088,-1.4088,-1.4088,-2.6487,-2.6487,-2.6487,-2.6487,-2.6487,-2.6487,-2.6487,-2.6349,-2.5441,-2.4445,-2.343,-2.2349,-2.1155,-1.994,-1.9775,-1.957,-1.9394,-1.9326,-1.9512,-1.9551,-1.9521,-1.9561,-1.9639,-1.9736,-1.9736,-1.9736,-1.9736,-1.9727,-1.9462,-1.8937,-1.7737,-1.6168,-1.5057,-1.4363,-1.3906,-1.3768,-1.3816,-1.3794,-1.3874,-1.3901,-1.3928,-1.4035,-1.3995,-1.3948,-1.3915,-1.3915,-1.3915,-1.3921,-1.3928,-1.3981,-1.4028,-1.4001,-1.4015,-1.4048,-1.4088,-1.4088,-1.4088,-1.4088,-1.4088,-1.4088,-1.4088,-1.4088,-1.4088,-1.4088,-1.4088,-1.4088,-1.4088,-1.4088,-1.4088,-1.4088,-1.4155,-1.4249,-1.4376,-1.4536,-1.4716,-1.497,-1.5223,-1.5277,-1.5304,-1.5431,-1.5605,-1.5631,-1.5812,-1.5805,-1.5732,-1.5792,-1.5805,-1.5752,-1.5685,-1.5524,-1.5451,-1.5411,-1.5357,-1.5284,-1.5184,-1.5104,-1.497,-1.485,-1.483,-1.4803,-1.4747,-1.4707,-1.4787,-1.4767,-1.4629,-1.4522,-1.4429,-1.4396,-1.4369,-1.4162,-1.4102,-1.4095,-1.4088,-1.4088,-1.413,-2.6487,-2.6487,-2.6487,-2.6487,-2.6487,-2.6487,-2.6487,-2.6383,-2.5838,-2.4803,-2.3304,-2.2789,-2.1599,-2.0103,-2.0059,-2.0049,-1.9901,-1.992,-2.0028,-2.0029,-1.9911,-2.001,-2.0117,-2.0156,-2.0166,-2.0166,-2.0166,-2.0176,-1.984,-1.8954,-1.7831,-1.7394,-1.6141,-1.5131,-1.4701,-1.4684,-1.4448,-1.4252,-1.4068,-1.4088,-1.4088,-1.4088,-1.4088,-1.4088,-1.4088,-1.4088,-1.4088,-1.4088,-1.4088,-1.4088,-1.4088,-1.4088,-1.4082,-1.4088,-1.4088,-1.4088,-1.4088,-1.4088,-1.4088,-1.4088,-1.4088,-1.4088,-1.4088,-1.4088,-1.4088,-1.4088,-1.4088,-1.4088,-1.4088,-1.4108,-1.4215,-1.4329,-1.4509,-1.4689,-1.497,-1.5257,-1.5404,-1.5538,-1.5645,-1.5758,-1.5805,-1.5798,-1.5825,-1.5825,-1.5825,-1.5825,-1.5825,-1.5805,-1.5785,-1.5732,-1.5685,-1.5665,-1.5618,-1.5558,-1.5458,-1.5364,-1.5284,-1.519,-1.5137,-1.5104,-1.5095,-1.5015,-1.4968,-1.5022,-1.5082,-1.4903,-1.475,-1.4696,-1.4687,-1.4416,-1.4222,-1.4202,-1.4168,-1.4088,-1.413,-2.6487,-2.6487,-2.6487,-2.6487,-2.6487,-2.6487,-2.6487,-2.6452,-2.628,-2.5105,-2.3341,-2.3335,-2.2115,-2.045,-2.0322,-2.0507,-2.04,-2.04,-2.038,-2.0576,-2.0449,-2.0468,-2.0488,-2.0595,-2.0478,-2.0556,-2.0576,-2.043,-2.0256,-1.9531,-1.8905,-1.885,-1.7081,-1.6003,-1.5793,-1.579,-1.5428,-1.4657,-1.4454,-1.4412,-1.4166,-1.4088,-1.4088,-1.4088,-1.4088,-1.4088,-1.4088,-1.4088,-1.4088,-1.4088,-1.4088,-1.4088,-1.4088,-1.4088,-1.4088,-1.4088,-1.4088,-1.4088,-1.4088,-1.4088,-1.4088,-1.4088,-1.4088,-1.4088,-1.4088,-1.4088,-1.4088,-1.4088,-1.4088,-1.4175,-1.4282,-1.4516,-1.4723,-1.4977,-1.5264,-1.5478,-1.5625,-1.5705,-1.5745,-1.5825,-1.5825,-1.5825,-1.5825,-1.5825,-1.5825,-1.5825,-1.5825,-1.5825,-1.5825,-1.5825,-1.5825,-1.5825,-1.5772,-1.5712,-1.5712,-1.5631,-1.5605,-1.5538,-1.5444,-1.5391,-1.5331,-1.5204,-1.5057,-1.5204,-1.5364,-1.5224,-1.5097,-1.503,-1.4897,-1.4656,-1.4482,-1.4369,-1.4275,-1.4182,-1.4088,-2.6487,-2.6487,-2.6487,-2.6487,-2.6487,-2.6487,-2.6487,-2.6418,-2.5652,-2.4661,-2.3525,-2.3301,-2.2339,-2.0592,-2.0507,-2.0615,-2.0615,-2.0615,-2.0615,-2.0605,-2.0605,-2.0556,-2.0595,-2.0576,-2.0586,-2.0615,-2.0615,-2.0605,-2.044,-1.9956,-1.9436,-1.9003,-1.7817,-1.7319,-1.6919,-1.6887,-1.6239,-1.5179,-1.5095,-1.4692,-1.4166,-1.4088,-1.4088,-1.4088,-1.4088,-1.4088,-1.4088,-1.4088,-1.4088,-1.4088,-1.4088,-1.4088,-1.4088,-1.4088,-1.4088,-1.4088,-1.4088,-1.4088,-1.4088,-1.4088,-1.4088,-1.4088,-1.4088,-1.4088,-1.4088,-1.4088,-1.4088,-1.4088,-1.4128,-1.4229,-1.4402,-1.4669,-1.4943,-1.5237,-1.5518,-1.5678,-1.5825,-1.5825,-1.5825,-1.5825,-1.5825,-1.5825,-1.5825,-1.5825,-1.5825,-1.5825,-1.5825,-1.5825,-1.5825,-1.5825,-1.5825,-1.5825,-1.5825,-1.5805,-1.5825,-1.5812,-1.5745,-1.5738,-1.5665,-1.5625,-1.5591,-1.5511,-1.5424,-1.5571,-1.5665,-1.5504,-1.5378,-1.5324,-1.5157,-1.4917,-1.475,-1.4636,-1.4462,-1.4349,-1.4195,-2.6109,-2.6109,-2.6109,-2.626,-2.6461,-2.6487,-2.6487,-2.6383,-2.5921,-2.4838,-2.3526,-2.2951,-2.1868,-2.0535,-2.0498,-2.0615,-2.0615,-2.0615,-2.0615,-2.0615,-2.0576,-2.04,-2.042,-2.0517,-2.039,-2.041,-2.0566,-2.0586,-2.0546,-2.0381,-1.9956,-1.9582,-1.9036,-1.8438,-1.798,-1.7577,-1.6805,-1.5745,-1.5696,-1.5095,-1.4208,-1.4088,-1.4088,-1.4088,-1.4088,-1.4088,-1.4088,-1.4088,-1.4088,-1.4088,-1.4088,-1.4088,-1.4088,-1.4088,-1.4088,-1.4088,-1.4088,-1.4088,-1.4088,-1.4088,-1.4088,-1.4088,-1.4088,-1.4088,-1.4088,-1.4088,-1.4088,-1.4088,-1.4088,-1.4175,-1.4456,-1.473,-1.5023,-1.5311,-1.5571,-1.5772,-1.5825,-1.5825,-1.5825,-1.5825,-1.5825,-1.5825,-1.5825,-1.5825,-1.5825,-1.5825,-1.5825,-1.5825,-1.5825,-1.5825,-1.5825,-1.5825,-1.5825,-1.5825,-1.5825,-1.5825,-1.5805,-1.5818,-1.5825,-1.5778,-1.5712,-1.5772,-1.5812,-1.5758,-1.5744,-1.5738,-1.5638,-1.5558,-1.5431,-1.5211,-1.505,-1.491,-1.473,-1.4657,-1.49,-2.5611,-2.5586,-2.5598,-2.5971,-2.6449,-2.6487,-2.6487,-2.6418,-2.6164,-2.5099,-2.3441,-2.2291,-2.1072,-2.0501,-2.039,-2.0527,-2.0615,-2.0615,-2.0615,-2.0615,-2.0615,-2.0449,-2.0381,-2.0371,-2.0361,-2.037,-2.0488,-2.0566,-2.0595,-2.0498,-2.045,-2.0401,-1.9844,-1.9116,-1.8718,-1.8069,-1.709,-1.6067,-1.5538,-1.5061,-1.4531,-1.4088,-1.4088,-1.4088,-1.4088,-1.4088,-1.4088,-1.4088,-1.4088,-1.4088,-1.4088,-1.4088,-1.4088,-1.4088,-1.4088,-1.4088,-1.4088,-1.4088,-1.4088,-1.4088,-1.4088,-1.4088,-1.4088,-1.4088,-1.4088,-1.4135,-1.4135,-1.4168,-1.4168,-1.4329,-1.4616,-1.4856,-1.5144,-1.5404,-1.5651,-1.5825,-1.5825,-1.5825,-1.5825,-1.5825,-1.5825,-1.5825,-1.5825,-1.5825,-1.5825,-1.5825,-1.5825,-1.5825,-1.5825,-1.5825,-1.5825,-1.5825,-1.5825,-1.5825,-1.5825,-1.5825,-1.5825,-1.5825,-1.5825,-1.5825,-1.5825,-1.5825,-1.5825,-1.5825,-1.5805,-1.5792,-1.5798,-1.5738,-1.5598,-1.5458,-1.5284,-1.513,-1.5037,-1.5133,-1.5844,-2.5586,-2.5586,-2.5586,-2.5959,-2.6436,-2.6487,-2.6487,-2.6198,-2.4803,-2.377,-2.3184,-2.1707,-2.0594,-2.0468,-2.0537,-2.0615,-2.0615,-2.0615,-2.0615,-2.0615,-2.0615,-2.0537,-2.0449,-2.0332,-2.0507,-2.0537,-2.0537,-2.0586,-2.0615,-2.0615,-2.0576,-2.0527,-2.0489,-1.9805,-1.8997,-1.823,-1.7366,-1.6224,-1.5462,-1.5019,-1.4412,-1.4088,-1.4088,-1.4088,-1.4088,-1.4088,-1.4088,-1.4088,-1.4088,-1.4088,-1.4088,-1.4088,-1.4088,-1.4088,-1.4088,-1.4088,-1.4088,-1.4088,-1.4088,-1.4088,-1.4088,-1.4088,-1.4088,-1.4088,-1.4155,-1.4315,-1.4355,-1.4449,-1.4522,-1.475,-1.4997,-1.5144,-1.5384,-1.5585,-1.5812,-1.5825,-1.5825,-1.5825,-1.5825,-1.5825,-1.5825,-1.5825,-1.5825,-1.5825,-1.5825,-1.5825,-1.5825,-1.5825,-1.5825,-1.5825,-1.5825,-1.5825,-1.5825,-1.5825,-1.5825,-1.5825,-1.5825,-1.5825,-1.5825,-1.5825,-1.5825,-1.5825,-1.5825,-1.5825,-1.5825,-1.5818,-1.5825,-1.5825,-1.5792,-1.5645,-1.5471,-1.5331,-1.5271,-1.5556,-1.6216]},{"header":{"parameterUnit":"m.s-1","parameterCategory":1,"la1":31.0,"la2":29.5877,"lo1":-88.7671,"lo2":-86.6584,"dy":0.0162,"dx":0.0185,"nx":115,"ny":88,"refTime":"2026-04-13T00:00:00:Z","depth":0,"parameterNumber":3,"parameterNumberName":"V-component_of_WINDS"},"data":[0.0,0.0,0.0,0.0,0.0,0.0,0.0,0.0,0.0,0.0,0.0,0.0,0.0,0.0,0.0,0.0,0.0,0.0,0.0,0.0,0.0,0.0,0.0,0.0,0.0,0.0,0.0,0.0,0.0,0.0,0.0,0.0,0.0,0.0,0.0,0.0,0.0,0.0,0.0,0.0,0.0,0.0,0.0,0.0,0.0,0.0,0.0,0.0,0.0,0.0,0.0,0.0,0.0,0.0,0.0,0.0,0.0,0.0,0.0,0.0,0.0,0.0,0.0,0.0,0.0,0.0,0.0,0.0,0.0,0.0,0.0,0.0,0.0,0.0,0.0,0.0,0.0,0.0,0.0,0.0,0.0,0.0,0.0,0.0,0.0,0.0,0.0,0.0,0.0,0.0,0.0,0.0,0.0,0.0,0.0,0.0,0.0,0.0,0.0,0.0,0.0,0.0,0.0,0.0,0.0,0.0,0.0,0.0,0.0,0.0,0.0,0.0,0.0,0.0,0.0,0.0,0.0,0.0,0.0,0.0,0.0,0.0,0.0,0.0,0.0,0.0,0.0,0.0,0.0,0.0,0.0,0.0,0.0,0.0,0.0,0.0,0.0,0.0,0.0,0.0,0.0,0.0,0.0,0.0,0.0,0.0,0.0,0.0,0.0,0.0,0.0,0.0,0.0,0.0,0.0,0.0,0.0,0.0,0.0,0.0,0.0,0.0,0.0,0.0,0.0,0.0,0.0,0.0,0.0,0.0,0.0,0.0,0.0,0.0,0.0,0.0,0.0,0.0,0.0,0.0,0.0,0.0,0.0,0.0,0.0,0.0,0.0,0.0,0.0,0.0,0.0,0.0,0.0,0.0,0.0,0.0,0.0,0.0,0.0,0.0,0.0,0.0,0.0,0.0,0.0,0.0,0.0,0.0,0.0,0.0,0.0,0.0,0.0,0.0,0.0,0.0,0.0,0.0,0.0,0.0,0.0,0.0,0.0,0.0,0.0,0.0,0.0,0.0,0.0,0.0,0.0,0.0,0.0,0.0,0.0,0.0,0.0,0.0,0.0,0.0,0.0,0.0,0.0,0.0,0.0,0.0,0.0,0.0,0.0,0.0,0.0,0.0,0.0,0.0,0.0,0.0,0.0,0.0,0.0,0.0,0.0,0.0,0.0,0.0,0.0,0.0,0.0,0.0,0.0,0.0,0.0,0.0,0.0,0.0,0.0,0.0,0.0,0.0,0.0,0.0,0.0,0.0,0.0,0.0,0.0,0.0,0.0,0.0,0.0,0.0,0.0,0.0,0.0,0.0,0.0,0.0,0.0,0.0,0.0,0.0,0.0,0.0,0.0,0.0,0.0,0.0,0.0,0.0,0.0,0.0,0.0,0.0,0.0,0.0,0.0,0.0,0.0,0.0,0.0,0.0,0.0,0.0,0.0,0.0,0.0,0.0,0.0,0.0,0.0,0.0,0.0,0.0,0.0,0.0,0.0,0.0,0.0,0.0,0.0,0.0,0.0,0.0,0.0,0.0,0.0,0.0,0.0,0.0,0.0,0.0,0.0,0.0,0.0,0.0,0.0,0.0,0.0,0.0,0.0,0.0,0.0,0.0,0.0,0.0,0.0,0.0,0.0,0.0,0.0,0.0,0.0,0.0,0.0,0.0,0.0,0.0,0.0,0.0,0.0,0.0,0.0,0.0,0.0,0.0,0.0,0.0,0.0,0.0,0.0,0.0,0.0,0.0,0.0,0.0,0.0,0.0,0.0,0.0,0.0,0.0,0.0,0.0,0.0,0.0,0.0,0.0,0.0,0.0,0.0,0.0,0.0,0.0,0.0,0.0,0.0,0.0,0.0,0.0,0.0,0.0,0.0,0.0,0.0,0.0,0.0,0.0,0.0,0.0,0.0,0.0,0.0,0.0,0.0,0.0,0.0,0.0,0.0,0.0,0.0,0.0,0.0,0.0,0.0,0.0,0.0,0.0,0.0,0.0,0.0,0.0,0.0,0.0,0.0,0.0,0.0,0.0,0.0,0.0,0.0,0.0,0.0,0.0,0.0,0.0,0.0,0.0,0.0,0.0,0.0,0.0,0.0,0.0,0.0,0.0,0.0,0.0,0.0,0.0,0.0,0.0,0.0,0.0,0.0,0.0,0.0,0.0,0.0,0.0,0.0,0.0,0.0,0.0,0.0,0.0,0.0,0.0,0.0,0.0,0.0,0.0,0.0,0.0,0.0,0.0,0.0,0.0,0.0,0.0,0.0,0.0,0.0,0.0,0.0,0.0,0.0,0.0,0.0,0.0,0.0,0.0,0.0,0.0,0.0,0.0,0.0,0.0,0.0,0.0,0.0,0.0,0.0,0.0,0.0,0.0,0.0,0.0,0.0,0.0,0.0,0.0,0.0,0.0,0.0,0.0,0.0,0.0,0.0,0.0,0.0,0.0,0.0,0.0,0.0,0.0,0.0,0.0,0.0,0.0,0.0,0.0,0.0,0.0,0.0,0.0,0.0,0.0,0.0,0.0,0.0,0.0,0.0,0.0,0.0,0.0,0.0,0.0,0.0,0.0,0.0,0.0,0.0,0.0,0.0,0.0,0.0,0.0,0.0,0.0,0.0,0.0,0.0,0.0,0.0,0.0,0.0,0.0,0.0,0.0,0.0,0.0,0.0,0.0,0.0,0.0,0.0,0.0,0.0,0.0,0.0,0.0,0.0,0.0,0.0,0.0,0.0,0.0,0.0,0.0,0.0,0.0,0.0,0.0,0.0,0.0,0.0,0.0,0.0,0.0,0.0,0.0,0.0,0.0,0.0,0.0,0.0,0.0,0.0,0.0,0.0,0.0,0.0,0.0,0.0,0.0,0.0,0.0,0.0,0.0,0.0,0.0,0.0,0.0,0.0,0.0,0.0,0.0,0.0,0.0,0.0,0.0,0.0,0.0,0.0,0.0,0.0,0.0,0.0,0.0,0.0,0.0,0.0,0.0,0.0,0.0,0.0,0.0,0.0,0.0,0.0,0.0,0.0,0.0,0.0,0.0,0.0,0.0,0.0,0.0,0.0,0.0,0.0,0.0,0.0,0.0,0.0,0.0,0.0,0.0,0.0,0.0,0.0,0.0,0.0,0.0,0.0,0.0,0.0,0.0,0.0,0.0,0.0,0.0,0.0,0.0,0.0,0.0,0.0,0.0,0.0,0.0,0.0,0.0,0.0,0.0,0.0,0.0,0.0,0.0,0.0,0.0,0.0,0.0,0.0,0.0,0.0,0.0,0.0,0.0,0.0,0.0,0.0,0.0,0.0,0.0,0.0,0.0,0.0,0.0,0.0,0.0,0.0,0.0,0.0,0.0,0.0,0.0,0.0,0.0,0.0,0.0,0.0,0.0,0.0,0.0,0.0,0.0,0.0,0.0,0.0,0.0,0.0,0.0,0.0,0.0,0.0,0.0,0.0,0.0,0.0,0.0,0.0,0.0,0.0,0.0,0.0,0.0,0.0,0.0,0.0,0.0,0.0,0.0,0.0,0.0,0.0,0.0,0.0,0.0,0.0,0.0,0.0,0.0,0.0,0.0,0.0,0.0,0.0,0.0,0.0,0.0,0.0,0.0,0.0,0.0,0.0,0.0,0.0,0.0,0.0,0.0,0.0,0.0,0.0,0.0,0.0,0.0,0.0,0.0,0.0,0.0,0.0,0.0,0.0,0.0,0.0,0.0,0.0,0.0,0.0,0.0,0.0,0.0,0.0,0.0,0.0,0.0,0.0,0.0,0.0,0.0,0.0,0.0,0.0,0.0,0.0,0.0,0.0,0.0,0.0,0.0,0.0,0.0,0.0,0.0,0.0,0.0,0.0,0.0,0.0,0.0,0.0,0.0,0.0,0.0,0.0,0.0,0.0,0.0,0.0,0.0,0.0,0.0,0.0,0.0,0.0,0.0,0.0,0.0,0.0,0.0,0.0,0.0,0.0,0.0,0.0,0.0,0.0,0.0,0.0,0.0,0.0,0.0,0.0,0.0,0.0,0.0,0.0,0.0,0.0,0.0,0.0,0.0,0.0,0.0,0.0,0.0,0.0,0.0,0.0,0.0,0.0,0.0,0.0,0.0,0.0,0.0,0.0,0.0,0.0,0.0,0.0,0.0,0.0,0.0,0.0,0.0,0.0,0.0,0.0,0.0,0.0,0.0,0.0,0.0,0.0,0.0,0.0,0.0,0.0,0.0,0.0,0.0,0.0,0.0,0.0,0.0,0.0,0.0,0.0,0.0,0.0,0.0,0.0,0.0,0.0,0.0,0.0,0.0,0.0,0.0,0.0,0.0,0.0,0.0,0.0,0.0,0.0,0.0,0.0,0.0,0.0,0.0,0.0,0.0,0.0,0.0,0.0,0.0,0.0,0.0,0.0,0.0,0.0,0.0,0.0,0.0,0.0,0.0,0.0,0.0,0.0,0.0,0.0,0.0,0.0,0.0,0.0,0.0,0.0,0.0,0.0,0.0,0.0,0.0,0.0,0.0,0.0,0.0,0.0,0.0,0.0,0.0,0.0,0.0,0.0,0.0,0.0,0.0,0.0,0.0,0.0,0.0,0.0,0.0,0.0,0.0,0.0,0.0,0.0,0.0,0.0,0.0,0.0,0.0,0.0,0.0,0.0,0.0,0.0,0.0,0.0,0.0,0.0,0.0,0.0,0.0,0.0,0.0,0.0,0.0,0.0,0.0,0.0,0.0,0.0,0.0,0.0,0.0,0.0,0.0,0.0,0.0,0.0,0.0,0.0,0.0,0.0,0.0,0.0,0.0,0.0,0.0,0.0,0.0,0.0,0.0,0.0,0.0,0.0,0.0,0.0,0.0,0.0,0.0,0.0,0.0,0.0,0.0,0.0,0.0,0.0,0.0,0.0,0.0,0.0,0.0,0.0,0.0,0.0,0.0,0.0,0.0,0.0,0.0,0.0,0.0,0.0,0.0,0.0,0.0,0.0,0.0,0.0,0.0,0.0,0.0,0.0,0.0,0.0,0.0,0.0,0.0,0.0,0.0,0.0,0.0,0.0,0.0,0.0,0.0,0.0,0.0,0.0,0.0,0.0,0.0,0.0,0.0,0.0,0.0,0.0,0.0,0.0,0.0,0.0,0.0,0.0,0.0,0.0,0.0,0.0,0.0,0.0,0.0,0.0,0.0,0.0,0.0,0.0,0.0,0.0,0.0,0.0,0.0,0.0,0.0,0.0,0.0,0.0,0.0,0.0,0.0,0.0,0.0,0.0,0.0,0.0,0.0,0.0,0.0,0.0,0.0,0.0,0.0,0.0,0.0,0.0,0.0,0.0,0.0,0.0,0.0,0.0,0.0,0.0,0.0,0.0,0.0,0.0,0.0,0.0,0.0,0.0,0.0,0.0,0.0,0.0,0.0,0.0,0.0,0.0,0.0,0.0,0.0,0.0,0.0,0.0,0.0,0.0,0.0,0.0,0.0,0.0,0.0,0.0,0.0,0.0,0.0,0.0,0.0,0.0,0.0,0.0,0.0,0.0,0.0,0.0,0.0,0.0,0.0,0.0,0.0,0.0,0.0,0.0,0.0,0.0,0.0,0.0,0.0,0.0,0.0,0.0,0.0,0.0,0.0,0.0,0.0,0.0,0.0,0.0,0.0,0.0,0.0,0.0,0.0,0.0,0.0,0.0,0.0,0.0,0.0,0.0,0.0,0.0,0.0,0.0,0.0,0.0,0.0,0.0,0.0,0.0,0.0,0.0,0.0,0.0,0.0,0.0,0.0,0.0,0.0,0.0,0.0,0.0,0.0,0.0,0.0,0.0,0.0,0.0,0.0,0.0,0.0,0.0,0.0,0.0,0.0,0.0,0.0,0.0,0.0,0.0,0.0,0.0,0.0,0.0,0.0,0.0,0.0,0.0,0.0,0.0,0.0,0.0,0.0,0.0,0.0,0.0,0.0,0.0,0.0,0.0,0.0,0.0,0.0,0.0,0.0,0.0,0.0,0.0,0.0,0.0,0.0,0.0,0.0,0.0,0.0,0.0,0.0,0.0,0.0,0.0,0.0,0.0,0.0,0.0,0.0,0.0,0.0,0.0,0.0,0.0,0.0,0.0,0.0,0.0,0.0,0.0,0.0,0.0,0.0,0.0,0.0,0.0,0.0,0.0,0.0,0.0,0.0,0.0,0.0,0.0,0.0,0.0,0.0,0.0,0.0,0.0,0.0,0.0,0.0,0.0,0.0,0.0,0.0,0.0,0.0,0.0,0.0,0.0,0.0,0.0,0.0,0.0,0.0,0.0,0.0,0.0,0.0,0.0,0.0,0.0,0.0,0.0,0.0,0.0,0.0,0.0,0.0,0.0,0.0,0.0,0.0,0.0,0.0,0.0,0.0,0.0,0.0,0.0,0.0,0.0,0.0,0.0,0.0,0.0,0.0,0.0,0.0,0.0,0.0,0.0,0.0,0.0,0.0,0.0,0.0,0.0,0.0,0.0,0.0,0.0,0.0,0.0,0.0,0.0,0.0,0.0,0.0,0.0,0.0,0.0,0.0,0.0,0.0,0.0,0.0,0.0,0.0,0.0,0.0,0.0,0.0,0.0,0.0,0.0,0.0,0.0,0.0,0.0,0.0,0.0,0.0,0.0,0.0,0.0,0.0,0.0,0.0,0.0,0.0,0.0,0.0,0.0,0.0,0.0,0.0,0.0,0.0,0.0,0.0,0.0,0.0,0.0,0.0,0.0,0.0,0.0,0.0,0.0,0.0,0.0,0.0,0.0,0.0,0.0,0.0,0.0,0.0,0.0,0.0,0.0,0.0,0.0,0.0,0.1226,0.0358,0.0,0.0,0.0,0.0,0.0,0.0,0.0,0.0,0.0,0.0,0.0,0.0,0.0,0.0,0.0,0.0,0.0,0.0,0.0,0.0,0.0,0.0,0.0,0.0,0.0,0.0,0.0,0.0,0.0,0.0,0.0,0.0,0.0,0.0,0.0,0.0,0.0,0.0,0.0,0.0,0.0,0.0,0.0,0.0,0.0,0.0,0.0,0.0,0.0,0.0,0.0,0.0,0.0,0.0,0.0,0.0,0.0,0.0,0.0,0.0,0.0,0.0,0.0,0.0,0.0,0.0,0.0,0.0,0.0,0.0,0.0,0.0,0.0,0.0,0.0,0.0,0.0,0.0,0.0,0.0,0.0,0.0,0.0,0.0,0.0,0.0,0.0,0.0,0.0,0.0,0.0,0.0,0.0,0.0,0.0,0.0,0.0,0.0,0.0,0.0,0.0,0.0,0.0,0.0,0.0,0.0,0.0,0.0,0.0,0.0,0.0,0.0,0.0,0.2566,0.1261,0.0,0.0,0.0,0.0,0.0,0.0,0.0,0.0,0.0,0.0,0.0,0.0,0.0,0.0,0.0,0.0,0.0,0.0,0.0,0.0,0.0,0.0,0.0,0.0,0.0,0.0,0.0,0.0,0.0,0.0,0.0,0.0,0.0,0.0,0.0,0.0,0.0,0.0,0.0,0.0,0.0,0.0,0.0,0.0,0.0,0.0,0.0,0.0,0.0,0.0,0.0,0.0,0.0,0.0,0.0,0.0,0.0,0.0,0.0,0.0,0.0,0.0,0.0,0.0,0.0,0.0,0.0,0.0,0.0,0.0,0.0,0.0,0.0,0.0,0.0,0.0,0.0,0.0,0.0,0.0,0.0,0.0,0.0,0.0,0.0,0.0,0.0,0.0,0.0,0.0,0.0,0.0,0.0,0.0,0.0,0.0,0.0,0.0,0.0,0.0,0.0,0.0,0.0,0.0,0.0,0.0,0.0,0.0,0.0,0.0,0.0,0.0,0.3966,0.1862,0.0504,0.0,0.0,0.0,0.0,0.0,0.0,0.0,0.0,0.0,0.0,0.0,0.0,0.0,0.0,0.0,0.0,0.0,0.0,0.0,0.0,0.0,0.0,0.0,0.0,0.0,0.0,0.0,0.0,0.0,0.0,0.0,0.0,0.0,0.0,0.0,0.0,0.0,0.0,0.0,0.0,0.0,0.0,0.0,0.0,0.0,0.0,0.0,0.0,0.0,0.0,0.0,0.0,0.0,0.0,0.0,0.0,0.0,0.0,0.0,0.0,0.0,0.0,0.0,0.0,0.0,0.0,0.0,0.0,0.0,0.0,0.0,0.0,0.0,0.0,0.0,0.0,0.0,0.0,0.0,0.0,0.0,0.0,0.0,0.0,0.0,0.0,0.0,0.0,0.0,0.0,0.0,0.0,0.0,0.0,0.0,0.0,0.0,0.0,0.0,0.0,0.0,0.0,0.0,0.0,0.0,0.0,0.0,0.0,0.0,0.0,0.0,0.0,0.4016,0.0,0.0,0.0,0.0,0.0,0.0,0.0,0.0,0.0,0.0,0.0,0.0,0.0,0.0,0.0,0.0,0.0,0.0,0.0,0.0,0.0,0.0,0.0,0.0,0.0,0.0,0.0,0.0,0.0,0.0,0.0,0.0,0.0,0.0,0.0,0.0,0.0,0.0,0.0,0.0,0.0,0.0,0.0,0.0,0.0,0.0,0.0,0.0,0.0,0.0,0.0,0.0,0.0,0.0,0.0,0.0,0.0,0.0,0.0,0.0,0.0,0.0,0.0,0.0,0.0,0.0,0.0,0.0,0.0,0.0,0.0,0.0,0.0,0.0,0.0,0.0,0.0,0.0,0.0,0.0,0.0,0.0,0.0,0.0,0.0,0.0,0.0,0.0,0.0,0.0,0.0,0.0,0.0,0.0,0.0,0.0,0.0,0.0,0.0,0.0,0.0,0.0,0.0,0.0,0.0,0.0,0.0,0.0,0.0,0.0,0.0,0.0,0.0,0.6625,0.4017,0.136,0.0,0.0,0.0,0.0,0.0,0.0,0.0,0.0,0.0,0.0,0.0,0.0,0.0,0.0,0.0,0.0,0.0,0.0,0.0,0.0,0.0,0.0,0.0,0.0,0.0,0.0,0.0,0.0,0.0,0.0,0.0,0.0,0.0,0.0,0.0,0.0,0.0,0.0,0.0,0.0,0.0,0.0,0.0,0.0,0.0,0.0,0.0,0.0,0.0,0.0,0.0,0.0,0.0,0.0,0.0,0.0,0.0,0.0,0.0,0.0,0.0,0.0,0.0,0.0,0.0,0.0,0.0,0.0,0.0,0.0,0.0,0.0,0.0,0.0,0.0,0.0,0.0,0.0,0.0,0.0,0.0,0.0,0.0,0.0,0.0,0.0,0.0,0.0,0.0,0.0,0.0,0.0,0.0,0.0,0.0,0.0,0.0,0.0,0.0,0.0,0.0,0.0,0.0,0.0,0.0,0.0,0.0,0.0,0.0,0.0,0.0,0.0,0.0,0.3966,0.136,0.0,0.0,0.0,0.0,0.0,0.0,0.0,0.0,0.0,0.0,0.0,0.0,0.0,0.0,0.0,0.0,0.0,0.0,0.0,0.0,0.0,0.0,0.0,0.0,0.0,0.0,0.0,0.0,0.0,0.0,0.0,0.0,0.0,0.0,0.0,0.0,0.0,0.0,0.0,0.0,0.0,0.0,0.0,0.0,0.0,0.0,0.0,0.0,0.0,0.0,0.0,0.0,0.0,0.0,0.0,0.0,0.0,0.0,0.0,0.0,0.0,0.0,0.0,0.0,0.0,0.0,0.0,0.0,0.0,0.0,0.0,0.0,0.0,0.0,0.0,0.0,0.0,0.0,0.0,0.0,0.0,0.0,0.0,0.0,0.0,0.0,0.0,0.0,0.0,0.0,0.0,0.0,0.0,0.0,0.0,0.0,0.0,0.0,0.0,0.0,0.0,0.0,0.0,0.0,0.0,0.0,0.0,0.0,0.0,0.0,0.0,0.0,0.0,0.3955,0.1374,0.0,0.0,0.0,0.0,0.0,0.0,0.0,0.0,0.0,0.0,0.0,0.0,0.0,0.0,0.0,0.0,0.0,0.0,0.0,0.0,0.0,0.0,0.0,0.0,0.0,0.0,0.0,0.0,0.0,0.0,0.0,0.0,0.0,0.0,0.0,0.0,0.0,0.0,0.0,0.0,0.0,0.0,0.0,0.0,0.0,0.0,0.0,0.0,0.0,0.0,0.0,0.0,0.0,0.0,0.0,0.0,0.0,0.0,0.0,0.0,0.0,0.0,0.0,0.0,0.0,0.0,0.0,0.0,0.0,0.0,0.0,0.0,0.0,0.0,0.0,0.0,0.0,0.0,0.0,0.0,0.0,0.0,0.0,0.0,0.0,0.0,0.0,0.0,0.0,0.0,0.0,0.0,0.0,0.0,0.0,0.0,0.0,0.0,0.0,0.0,0.0,0.0,0.0,0.0,0.0,0.0,0.0,0.0,0.0,0.0,0.0,0.0,0.0,0.4032,0.1452,0.0,0.0,0.0,0.0,0.0,0.0,0.0,0.0,0.0,0.0,0.0,0.0,0.0,0.0,0.0,0.0,0.0,0.0,0.0,0.0,0.0,0.0,0.0,0.0,0.0,0.0,0.0,0.0,0.0,0.0,0.0,0.0,0.0,0.0,0.0,0.0,0.0,0.0,0.0,0.0,0.0,0.0,0.0,0.0,0.0,0.0,0.0,0.0,0.0,0.0,0.0,0.0,0.0,0.0,0.0,0.0,0.0,0.0,0.0,0.0,0.0,0.0,0.0,0.0,0.0,0.0,0.0,0.0,0.0,0.0,0.0,0.0,0.0,0.0,0.0,0.0,0.0,0.0,0.0,0.0,0.0,0.0,0.0,0.0,0.0,0.0,0.0,0.0,0.0,0.0,0.0,0.0,0.0,0.0,0.0,0.0,0.0,0.0,0.0,0.0,0.0,0.0,0.0,0.0,0.0,0.0,0.0,0.0,0.0,0.0,0.0,0.0,0.0,0.3996,0.2322,0.0998,0.0,0.0,0.0,0.0,0.0,0.0,0.0,0.0,0.0,0.0,0.0,0.0,0.0,0.0,0.0,0.0,0.0,0.0,0.0,0.0,0.0,0.0,0.0,0.0,0.0,0.0,0.0,0.0,0.0,0.0,0.0,0.0,0.0,0.0,0.0,0.0,0.0,0.0,0.0,0.0,0.0,0.0,0.0,0.0,0.0,0.0,0.0,0.0,0.0,0.0,0.0,0.0,0.0,0.0,0.0,0.0,0.0,0.0,0.0,0.0,0.0,0.0,0.0,0.0,0.0,0.0,0.0,0.0,0.0,0.0,0.0,0.0,0.0,0.0,0.0,0.0,0.0,0.0,0.0,0.0,0.0,0.0,0.0,0.0,0.0,0.0,0.0,0.0,0.0,0.0,0.0,0.0,0.0,0.0,0.0,0.0,0.0,0.0,0.0,0.0,0.0,0.0,0.0,0.0,0.0,0.0,0.0,0.0,0.0,0.0,0.0,0.5908,0.4034,0.3252,0.1943,0.0,0.0,-0.0259,0.0,0.0,0.0,0.0,0.0,0.0,0.0,0.0,0.0,0.0,0.0,0.0,0.0,0.0,0.0,0.0,0.0,0.0,0.0,0.0,0.0,0.0,0.0,0.0,0.0,0.0,0.0,0.0,0.0,0.0,0.0,0.0,0.0,0.0,0.0,0.0,0.0,0.0,0.0,0.0,0.0,0.0,0.0,0.0,0.0,0.0,0.0,0.0,0.0,0.0,0.0,0.0,0.0,0.0,0.0,0.0,0.0,0.0,0.0,0.0,0.0,0.0,0.0,0.0,0.0,0.0,0.0,0.0,0.0,0.0,0.0,0.0,0.0,0.0,0.0,0.0,0.0,0.0,0.0,0.0,0.0,0.0,0.0,0.0,0.0,0.0,0.0,0.0,0.0,0.0,0.0,0.0,0.0,0.0,0.0,0.0,0.0,0.0,0.0,0.0,0.0,0.0,0.0,0.0,0.0,0.0,0.0,0.0,0.6788,0.4282,0.4078,0.2763,0.0319,0.0053,-0.0632,0.0,0.0,0.0,0.0,0.0,0.0,0.0,0.0,0.0,0.0,0.0,0.0,0.0,0.0,0.0,0.0,0.0,0.0,0.0,0.0,0.0,0.0,0.0,0.0,0.0,0.0,0.0,0.0,0.0,0.0,0.0,0.0,0.0,0.0,0.0,0.0,0.0,0.0,0.0,0.0,0.0,0.0,0.0,0.0,0.0,0.0,0.0,0.0,0.0,0.0,0.0,0.0,0.0,0.0,0.0,0.0,0.0,0.0,0.0,0.0,0.0,0.0,0.0,0.0,0.0,0.0,0.0,0.0,0.0,0.0,0.0,0.0,0.0,0.0,0.0,0.0,0.0,0.0,0.0,0.0,0.0,0.0,0.0,0.0,0.0,0.0,0.0,0.0,0.0,0.0,0.0,0.0,0.0,0.0,0.0,0.0,0.0,0.0,0.0,0.0,0.0,0.0,0.0,0.0,0.0,0.0,0.0,0.0,0.7199,0.5625,0.4543,0.323,0.1648,0.0526,-0.0569,0.0,0.0,0.0,0.0,0.0,0.0,0.0,0.0,0.0,0.0,0.0,0.0,0.0,0.0,0.0,0.0,0.0,0.0,0.0,0.0,0.0,0.0,0.0,0.0,0.0,0.0,0.0,0.0,0.0,0.0,0.0,0.0,0.0,0.0,0.0,0.0,0.0,0.0,0.0,0.0,0.0,0.0,0.0,0.0,0.0,0.0,0.0,0.0,0.7753,0.0,0.0,0.0,0.0,0.0,0.0,0.0,0.0,0.0,0.0,0.0,0.0,0.0,0.0,0.0,0.0,0.0,0.0,0.0,0.0,0.0,0.0,0.0,0.0,0.0,0.0,0.0,0.0,0.0,0.0,0.0,0.0,0.0,0.0,0.0,0.0,0.0,0.0,0.0,0.0,0.0,0.0,0.0,0.0,0.0,0.0,0.0,0.0,0.0,0.0,0.0,0.0,0.0,0.0,0.0,0.0,0.0,0.0,0.0,0.7322,0.6014,0.4688,0.3343,0.2043,0.0724,-0.0611,0.0,0.0,0.0,0.0,0.0,0.0,0.0,0.0,0.0,0.0,0.0,0.0,0.0,0.0,0.0,0.0,0.0,0.0,0.0,0.0,0.0,0.0,0.0,0.0,0.0,0.0,0.0,0.0,0.0,0.0,0.0,0.0,0.0,0.0,0.0,0.0,0.0,0.0,0.0,0.0,0.0,0.0,0.0,0.0,0.0,0.0,0.0,0.0,0.0,0.0,0.0,0.0,0.0,0.0,0.0,0.0,0.0,0.0,0.0,0.0,0.0,0.0,0.0,0.0,0.0,0.0,0.0,0.0,0.0,0.0,0.0,0.0,0.0,0.0,0.0,0.0,0.0,0.0,0.0,0.0,0.0,0.0,0.0,0.0,0.0,0.0,0.0,0.0,0.0,0.0,0.0,0.0,0.0,0.0,0.0,0.0,0.0,0.0,0.0,0.0,0.0,0.0,0.0,0.0,0.0,0.0,0.0,0.8064,0.7415,0.6329,0.502,0.3644,0.2315,0.1017,-0.0302,-0.1648,0.0,0.0,0.0,0.0,0.0,0.0,0.0,0.0,0.0,0.0,0.0,0.0,0.0,0.0,0.0,0.0,0.0,0.0,0.0,0.0,0.0,0.0,0.0,0.0,0.0,0.0,0.0,0.0,0.0,0.0,0.0,0.0,0.0,0.0,0.0,0.0,0.0,0.0,1.3065,1.1444,0.0,0.0,0.0,0.0,0.0,0.0,0.0,0.0,0.7658,0.0,0.0,0.0,0.0,0.0,0.0,0.0,0.0,0.0,0.0,0.0,0.0,0.0,0.0,0.0,0.0,0.0,0.0,0.0,0.0,0.0,0.0,0.0,0.0,0.0,0.0,0.0,0.0,0.0,0.0,0.0,0.0,0.0,0.0,0.0,0.0,0.0,0.0,0.0,0.0,0.0,0.0,0.0,0.0,0.0,0.0,0.0,0.0,0.0,0.0,0.0,0.0,0.0,0.0,0.0,0.0,0.9653,0.8447,0.7811,0.7633,0.6379,0.5029,0.3684,0.2368,0.1042,-0.0241,0.0,0.0,0.0,0.0,0.0,0.0,0.0,0.0,0.0,0.0,0.0,0.0,0.0,0.0,0.0,0.0,0.0,0.0,0.0,0.0,0.0,0.0,0.0,0.0,0.0,0.0,0.0,0.0,0.0,0.0,0.0,0.0,0.0,0.0,0.0,0.0,0.0,0.0,0.0,1.23,1.1595,0.0,0.0,0.0,0.0,0.0,0.0,0.0,0.0,0.7461,0.0,0.0,0.0,0.0,0.0,0.0,0.0,0.0,0.0,0.0,0.0,0.0,0.0,0.0,0.0,0.0,0.0,0.0,0.0,0.0,0.0,0.0,0.0,0.0,0.0,0.0,0.0,0.0,0.0,0.0,0.0,0.0,0.0,0.0,0.0,0.0,0.0,0.0,0.0,0.0,0.0,0.0,0.0,0.0,0.0,0.0,0.0,0.0,0.0,0.0,0.0,0.0,0.0,0.0,0.0,0.9805,0.9231,0.8645,0.7985,0.6681,0.5675,0.502,0.3087,0.1713,0.0,0.0,0.0,0.0,0.0,0.0,0.0,0.0,0.0,0.0,0.0,0.0,0.0,0.0,0.0,0.0,0.0,0.0,0.0,0.0,0.0,0.0,0.0,0.0,0.0,0.0,0.0,0.0,0.0,0.0,0.0,0.0,0.0,0.0,0.0,0.0,0.0,0.0,0.0,0.0,1.3659,1.2914,1.2852,0.0,0.0,0.0,0.0,0.0,0.0,0.8364,0.8208,0.0,0.0,0.0,0.0,0.0,0.0,0.0,0.0,0.0,0.0,0.0,0.0,0.0,0.0,0.0,0.0,0.0,0.0,0.0,0.0,0.0,0.0,0.0,0.0,0.0,0.0,0.0,0.0,0.0,0.0,0.0,0.0,0.0,0.0,0.0,0.0,0.0,0.0,0.0,0.0,0.0,0.0,0.0,0.0,0.0,0.0,0.0,0.0,0.0,0.0,0.0,0.0,0.0,0.0,0.0,1.0391,1.0056,0.9473,0.8379,0.7083,0.6282,0.5979,0.3898,0.2617,0.0,0.0,0.0,0.0,0.0,0.0,0.0,0.0,0.0,0.0,0.0,0.0,0.0,0.0,0.0,0.0,0.0,0.0,0.0,0.0,0.0,0.0,0.0,0.0,0.0,0.0,0.0,0.0,0.0,0.0,0.0,0.0,0.0,0.0,0.0,0.0,0.0,0.0,0.0,0.0,0.0,1.4225,1.4064,1.2681,0.0,0.0,0.0,0.0,0.9606,0.9446,0.0,0.0,0.0,0.0,0.0,0.0,0.0,0.0,0.0,0.0,0.0,0.0,0.0,0.0,0.0,0.0,0.0,0.0,0.0,0.0,0.0,0.0,0.0,0.0,0.0,0.0,0.0,0.0,0.0,0.0,0.0,0.0,0.0,0.0,0.0,0.0,0.0,0.0,0.0,0.0,0.0,0.0,0.0,0.0,0.0,0.0,0.0,0.0,0.0,0.0,0.0,0.0,0.0,0.0,0.0,0.0,1.2866,1.0872,0.9784,0.9694,0.8478,0.7185,0.6029,0.5574,0.4791,0.0,0.0,0.0,0.0,0.0,0.0,0.0,0.0,0.0,0.0,0.0,0.0,0.0,0.0,0.0,0.0,0.0,0.0,0.0,0.0,0.0,0.0,0.0,0.0,0.0,0.0,0.0,0.0,0.0,0.0,0.0,0.0,0.0,0.0,0.0,0.0,0.0,0.0,0.0,0.0,0.0,1.5482,1.5246,1.3933,1.2973,0.0,0.0,1.1126,1.0666,1.0126,0.0,0.0,0.0,0.0,0.0,0.0,0.0,0.0,0.0,0.0,0.0,0.0,0.0,0.0,0.0,0.0,0.0,0.0,0.0,0.0,0.0,0.0,0.0,0.0,0.0,0.0,0.0,0.0,0.0,0.0,0.0,0.0,0.0,0.0,0.0,0.0,0.0,0.0,0.0,0.0,0.0,0.0,0.0,0.0,0.0,0.0,0.0,0.0,0.0,0.0,0.0,0.0,0.0,0.0,0.0,1.4016,1.3187,1.2472,1.1453,1.0043,0.936,0.8384,0.707,0.6146,0.5383,0.0,0.0,0.0,0.0,0.0,0.0,0.0,0.0,0.0,0.0,0.0,0.0,0.0,0.0,0.0,0.0,0.0,0.0,0.0,0.0,0.0,0.0,0.0,0.0,0.0,0.0,0.0,0.0,0.0,0.0,0.0,0.0,0.0,0.0,0.0,0.0,0.0,0.0,0.0,0.0,0.0,0.0,1.5503,1.4728,0.0,0.0,0.0,1.2803,1.1794,0.0,0.0,0.0,0.0,0.0,0.0,0.0,0.0,0.0,0.0,0.0,0.0,0.0,0.0,0.0,0.0,0.0,0.0,0.0,0.0,0.0,0.0,0.0,0.0,0.0,0.0,0.0,0.0,0.0,0.0,0.0,0.0,0.0,0.0,0.0,0.0,0.0,0.0,0.0,0.0,0.0,0.0,0.0,0.0,0.0,0.0,0.0,0.0,0.0,0.0,0.0,0.0,0.0,0.0,0.0,0.0,0.0,1.3387,1.3595,1.2729,1.0807,1.0339,0.9643,0.8648,0.7207,0.0,0.0,0.0,0.0,0.0,0.0,0.0,0.0,0.0,0.0,0.0,0.0,0.0,0.0,0.0,0.0,0.0,0.0,0.0,0.0,0.0,0.0,0.0,0.0,0.0,0.0,0.0,1.4191,0.0,0.0,0.0,0.0,0.0,0.0,0.0,0.0,0.0,0.0,0.0,0.0,0.0,0.0,1.7109,1.6121,1.5927,1.5807,0.0,0.0,1.4475,1.3343,1.299,1.233,0.0,0.0,0.0,0.0,0.0,0.0,0.0,0.0,0.0,0.0,0.0,0.0,0.0,0.0,0.0,0.0,0.0,0.0,0.0,0.0,0.0,0.0,0.0,0.0,0.0,0.0,0.0,0.0,0.0,0.0,0.0,0.0,0.0,0.0,0.0,0.0,0.0,0.0,0.0,0.0,0.0,0.0,0.0,0.0,0.0,0.0,0.0,0.0,0.0,0.0,0.0,0.0,0.0,0.0,0.0,1.4368,1.3521,1.2979,1.2746,1.1625,1.0971,1.0874,0.9572,0.88,0.0,0.0,0.0,0.0,0.0,0.0,0.0,0.0,0.0,0.0,0.0,0.0,0.0,0.0,0.0,0.0,0.0,0.0,0.0,0.0,0.0,0.0,0.0,0.0,0.0,0.0,0.0,0.0,0.0,0.0,0.0,0.0,0.0,0.0,0.0,0.0,0.0,0.0,0.0,0.0,0.0,1.8441,1.7714,1.7969,1.8042,0.0,0.0,1.5865,1.5541,1.4104,1.2657,1.177,0.0,0.0,0.0,0.0,0.0,0.0,0.0,0.0,0.0,0.0,0.0,0.0,0.0,0.0,0.0,0.0,0.0,0.0,0.0,0.0,0.0,0.0,0.0,0.0,0.0,0.0,0.0,0.0,0.0,0.0,0.0,0.0,0.0,0.0,0.0,0.0,0.0,0.0,0.0,0.0,0.0,0.0,0.0,0.0,0.0,0.0,0.0,0.0,0.0,0.0,0.0,0.0,0.0,1.479,1.4298,1.4896,1.4494,1.3052,1.2451,1.174,1.0935,1.0322,0.988,0.0,0.0,0.0,0.0,0.0,0.0,0.0,0.0,0.0,0.0,0.0,0.0,0.0,0.0,0.0,0.0,0.0,0.0,0.0,0.0,0.0,0.0,0.0,0.0,0.0,0.0,0.0,0.0,1.6946,1.748,1.8003,0.0,0.0,0.0,0.0,0.0,0.0,0.0,0.0,0.0,0.0,1.8862,1.792,1.7918,0.0,0.0,1.7493,1.713,1.6738,1.6099,1.5401,1.4594,1.4575,0.0,0.0,0.0,0.0,0.0,0.0,0.0,0.0,0.0,0.0,0.0,0.0,0.0,0.0,0.0,0.0,0.0,0.0,0.0,0.0,0.0,0.0,0.0,0.0,0.0,0.0,0.0,0.0,0.0,0.0,0.0,0.0,0.0,0.0,0.0,0.0,0.0,0.0,0.0,0.0,0.0,0.0,0.0,0.0,0.0,0.0,0.0,0.0,0.0,0.0,0.0,0.0,1.5538,1.4876,1.6149,1.585,1.3844,1.3735,1.3076,1.1817,1.1278,1.0794,0.0,0.0,0.0,0.0,0.0,0.0,0.0,0.0,0.0,0.0,0.0,0.0,0.0,0.0,0.0,0.0,0.0,0.0,0.0,0.0,0.0,0.0,0.0,0.0,0.0,0.0,0.0,0.0,1.8321,1.8809,1.8819,0.0,0.0,0.0,0.0,0.0,0.0,0.0,0.0,0.0,0.0,2.0505,1.9641,1.9376,1.9217,1.906,1.8611,1.8165,1.7861,1.7496,1.7119,1.6531,0.0,0.0,0.0,0.0,0.0,0.0,0.0,0.0,0.0,0.0,0.0,0.0,0.0,0.0,0.0,0.0,0.0,0.0,0.0,0.0,0.0,0.0,0.0,0.0,0.0,0.0,0.0,1.5497,0.0,0.0,1.6683,0.0,0.0,0.0,0.0,0.0,0.0,0.0,0.0,0.0,0.0,0.0,0.0,0.0,0.0,0.0,0.0,0.0,0.0,0.0,0.0,0.0,0.0,1.6357,1.6624,1.7065,1.6755,1.5636,1.5628,1.5095,1.4026,1.2648,1.1829,1.1696,0.0,0.0,0.0,0.0,0.0,0.0,0.0,0.0,0.0,0.0,0.0,0.0,0.0,0.0,0.0,0.0,0.0,0.0,0.0,0.0,0.0,0.0,0.0,0.0,0.0,0.0,1.864,1.9019,1.9308,0.0,0.0,0.0,0.0,0.0,0.0,0.0,0.0,0.0,0.0,2.3779,2.3887,2.3383,2.2923,2.2309,2.1921,2.0294,1.9006,1.9036,1.8101,1.721,0.0,0.0,0.0,0.0,0.0,0.0,0.0,0.0,0.0,0.0,0.0,0.0,0.0,0.0,0.0,0.0,0.0,0.0,0.0,0.0,0.0,0.0,0.0,0.0,0.0,0.0,0.0,1.8195,1.8125,0.0,0.0,0.0,0.0,0.0,0.0,0.0,0.0,0.0,0.0,0.0,1.9461,1.9545,0.0,0.0,0.0,0.0,0.0,0.0,0.0,0.0,0.0,0.0,0.0,0.0,1.7023,1.6473,1.7734,1.7772,1.6413,1.6357,1.6055,1.5362,1.4872,1.4436,1.403,0.0,0.0,0.0,0.0,0.0,0.0,0.0,0.0,0.0,0.0,0.0,0.0,0.0,0.0,0.0,0.0,0.0,0.0,0.0,0.0,0.0,0.0,0.0,0.0,0.0,1.9512,0.0,0.0,0.0,0.0,0.0,0.0,0.0,0.0,0.0,0.0,0.0,2.29,2.3104,2.3458,2.3668,2.35,2.3316,2.3174,0.0,0.0,0.0,0.0,0.0,0.0,0.0,0.0,0.0,0.0,0.0,0.0,0.0,0.0,2.1362,1.7562,1.7286,1.7634,1.7634,0.0,0.0,0.0,0.0,0.0,0.0,0.0,0.0,0.0,0.0,0.0,0.0,0.0,0.0,1.9468,0.0,1.9459,0.0,0.0,0.0,0.0,0.0,0.0,0.0,0.0,2.1661,2.2009,2.1861,2.1755,2.1362,0.0,2.0088,1.9369,0.0,0.0,0.0,0.0,0.0,0.0,0.0,0.0,1.7926,1.7134,1.8526,1.8551,1.7119,1.7064,1.6706,1.6038,1.5915,1.5589,1.5025,1.3714,1.2925,0.0,0.0,0.0,0.0,0.0,0.0,0.0,0.0,0.0,0.0,0.0,0.0,0.0,0.0,0.0,0.0,0.0,0.0,0.0,0.0,0.0,0.0,0.0,2.0062,0.0,0.0,0.0,0.0,0.0,0.0,0.0,0.0,0.0,2.3845,2.4316,2.4798,2.4981,2.501,2.4957,2.4957,0.0,0.0,0.0,0.0,0.0,0.0,0.0,2.3008,2.308,2.2775,2.2607,2.2846,2.347,2.3914,2.3783,0.0,0.0,1.9899,1.9753,2.0098,2.0108,2.0908,2.1419,2.088,2.1219,2.1439,0.0,0.0,0.0,0.0,0.0,0.0,0.0,0.0,1.9807,1.9695,0.0,2.0498,0.0,0.0,0.0,0.0,0.0,2.4271,0.0,0.0,2.5472,2.5351,2.4904,2.4419,2.3955,2.3545,2.3869,2.3638,2.27,1.9901,0.0,0.0,0.0,0.0,0.0,0.0,1.9134,1.8717,1.9536,1.9267,1.785,1.7757,1.7246,1.6132,1.5819,1.5461,1.4864,1.5062,1.472,1.374,1.4164,0.0,0.0,0.0,0.0,0.0,0.0,0.0,0.0,0.0,0.0,0.0,0.0,0.0,0.0,0.0,0.0,0.0,0.0,0.0,0.0,2.123,0.0,0.0,0.0,0.0,0.0,0.0,0.0,0.0,0.0,0.0,2.712,2.7668,2.8401,2.8874,0.0,0.0,0.0,0.0,2.5146,2.517,2.4325,2.3722,2.37,2.3677,2.3643,2.3654,0.0,0.0,2.3031,2.3311,2.3458,2.3054,2.3394,2.3809,2.4497,2.4126,2.3964,2.3953,2.3598,2.3463,2.3467,2.3205,2.3253,2.3963,0.0,0.0,0.0,0.0,2.4161,2.4646,2.4916,2.4594,2.4482,2.4388,2.4365,0.0,0.0,0.0,0.0,0.0,0.0,2.4774,2.5212,2.4798,2.4675,2.4815,2.4692,2.4408,2.4037,2.4122,2.3903,2.3299,2.2427,2.1613,2.0809,0.0,0.0,0.0,0.0,2.0576,2.0479,2.1038,2.0667,1.9299,1.9254,1.8693,1.7467,1.7355,1.7222,1.7048,1.6267,1.5712,1.5384,1.4629,0.0,0.0,0.0,0.0,0.0,0.0,0.0,0.0,0.0,0.0,0.0,0.0,0.0,0.0,0.0,0.0,0.0,0.0,0.0,2.0804,2.2232,2.3169,0.0,0.0,0.0,0.0,0.0,0.0,0.0,0.0,0.0,2.9943,2.9273,2.8827,0.0,0.0,2.862,2.8634,2.8174,2.7867,2.7848,2.7598,0.0,2.6785,2.6412,2.6106,2.603,2.5563,2.4998,2.4365,2.4341,2.4402,2.4277,2.4341,2.4526,2.4703,2.421,2.3779,2.3679,2.3604,2.3526,2.3467,2.3209,2.2963,2.5901,2.452,2.5168,2.5462,2.5546,2.6235,2.664,2.6844,2.6595,2.6483,2.6461,2.6199,2.5846,2.5442,2.5432,0.0,0.0,0.0,2.5742,2.6212,2.5669,2.5562,2.5782,2.5557,2.5349,2.5093,2.487,2.4612,2.4331,2.4108,2.3486,2.2439,0.0,0.0,2.0613,2.0995,2.1107,2.0984,2.1408,2.115,2.0222,2.0167,1.9806,1.9054,1.9054,1.9011,1.9011,1.8306,1.7793,1.7591,1.6841,1.6487,0.0,0.0,0.0,0.0,0.0,0.0,0.0,0.0,0.0,0.0,0.0,2.0696,2.1012,0.0,0.0,0.0,2.2511,2.2762,2.2447,2.3966,0.0,0.0,0.0,0.0,0.0,0.0,0.0,2.9853,3.0183,3.0505,3.124,3.0537,3.0046,3.0394,2.9891,2.942,2.9136,0.0,2.8484,2.825,2.8209,2.8085,2.7652,2.7324,2.709,2.7017,2.6657,2.6214,2.5777,2.5665,2.5665,2.5665,2.5665,2.5665,2.5665,2.5255,2.4657,2.4142,2.4015,2.4015,2.4015,2.3768,2.3523,2.6771,2.6771,2.676,2.6719,2.6648,2.6719,2.6771,2.6771,2.6771,2.6771,2.676,2.6771,2.6488,2.6075,2.5991,0.0,2.6728,2.7111,2.7521,2.8009,2.7469,2.7253,2.718,2.6653,2.6436,2.6411,2.5812,2.5536,2.5477,2.5026,2.4544,2.3985,2.2751,2.171,2.085,2.1191,2.1158,2.0826,2.1191,2.1169,2.0698,2.0623,2.059,2.059,2.059,2.059,2.059,2.059,2.0409,1.9992,1.9924,1.9508,1.8672,0.0,0.0,0.0,0.0,0.0,0.0,0.0,0.0,0.0,0.0,0.0,0.0,0.0,0.0,0.0,2.4939,0.0,2.5229,2.5867,0.0,0.0,0.0,2.7442,2.7699,2.8681,2.9633,3.0459,0.0,0.0,3.1478,3.1478,3.1736,3.2487,3.1327,3.0132,2.9508,2.8775,2.7952,2.7482,2.7254,2.724,2.7317,2.7162,2.7049,2.6948,2.6984,2.6856,2.6724,2.6752,2.6809,2.6708,2.6852,2.6809,2.6852,2.6647,2.6462,2.5058,2.4879,2.4897,2.4987,2.4763,2.4584,2.9,2.9013,2.9,2.853,2.7815,2.8661,2.9,2.9,2.9013,2.9,2.9,2.9013,2.8694,2.8131,2.7743,2.763,2.7717,2.7424,2.7344,2.7444,2.6939,2.6688,2.6663,2.6097,2.5799,2.5762,2.5272,2.5008,2.4963,2.485,2.4544,2.3985,2.3682,2.3179,2.2531,2.2598,2.2586,2.2494,2.2598,2.2308,2.1596,2.0942,2.059,2.059,2.059,2.059,2.059,2.059,2.0534,2.0443,2.0115,1.9801,1.9565,1.9512,0.0,0.0,0.0,0.0,0.0,0.0,0.0,0.0,0.0,2.3317,2.3013,0.0,2.4712,0.0,2.5273,2.5383,2.5367,2.5535,0.0,0.0,2.73,2.8025,2.9605,2.9555,2.9848,3.1051,3.1327,3.1602,3.2112,3.2154,3.2239,3.2432,3.167,3.0897,3.0319,3.0061,2.9693,2.9068,2.8899,2.8796,2.827,2.7783,2.7278,2.6697,2.6644,2.6438,2.5868,2.5798,2.5798,2.5784,2.5784,2.5798,2.584,2.5784,2.5713,2.5353,2.5451,2.5826,2.6323,2.5296,2.4368,2.9779,2.9779,2.9779,2.9456,2.8897,2.9534,2.9779,2.9779,2.9779,2.9779,2.9779,2.9528,2.9227,2.8875,2.8097,2.7745,2.7695,2.7203,2.6952,2.6939,2.7011,2.6865,2.6596,2.6655,2.6516,2.6209,2.5685,2.5424,2.5411,2.5205,2.4917,2.4633,2.4633,2.4462,2.4147,2.3796,2.3454,2.3095,2.3095,2.2884,2.2445,2.197,2.171,2.1729,2.1698,2.171,2.171,2.1698,2.1592,2.1379,2.1339,2.1248,2.111,2.1237,2.1342,0.0,0.0,0.0,0.0,0.0,0.0,0.0,0.0,0.0,0.0,0.0,2.5398,2.5398,2.5986,2.6502,2.6705,2.7028,2.765,2.8696,2.9031,2.9527,3.0378,3.0311,3.0538,3.1269,3.1331,3.145,3.1824,3.1853,3.1874,3.1853,3.1539,3.1102,3.0582,3.045,3.0232,2.9629,2.9493,2.941,2.9009,2.8409,2.787,2.7464,2.7174,2.6852,2.6455,2.6375,2.6375,2.6375,2.6375,2.6375,2.6375,2.6375,2.6375,2.6354,2.626,2.6208,2.6249,2.5408,2.4797,2.9779,2.9779,2.9779,2.9779,2.9779,2.9779,2.9779,2.9779,2.9779,2.9831,2.9821,2.9214,2.8999,2.897,2.7847,2.7402,2.7468,2.7032,2.6816,2.6871,2.755,2.7544,2.704,2.7618,2.76,2.699,2.6416,2.6099,2.6085,2.5618,2.5398,2.5398,2.5398,2.5398,2.537,2.4851,2.4192,2.3424,2.3395,2.3395,2.3382,2.3395,2.3382,2.3382,2.3382,2.3382,2.3382,2.3395,2.3196,2.275,2.3128,2.3273,2.2977,2.3336,2.3595,0.0,2.3756,0.0,0.0,0.0,0.0,0.0,0.0,0.0,0.0,2.613,2.5903,2.5903,2.7067,2.8016,2.8474,2.9125,2.9696,3.0218,3.0862,3.1037,3.0468,3.0924,3.1275,3.1292,3.1243,3.119,3.1221,3.119,3.119,3.1235,3.123,3.107,3.0622,3.0456,3.0156,2.9493,2.9406,2.9391,2.9328,2.8951,2.8606,2.8543,2.8198,2.7845,2.782,2.782,2.782,2.782,2.782,2.7795,2.7735,2.7685,2.766,2.7509,2.7041,2.6502,2.599,2.5564,2.5425,2.9779,2.9779,2.9779,2.9779,2.9779,2.9779,2.9779,2.9779,2.9779,2.991,3.0066,2.9588,2.9499,2.9504,2.8231,2.8014,2.8655,2.8578,2.8524,2.8524,2.8684,2.868,2.8515,2.7737,2.7274,2.7095,2.606,2.5536,2.5536,2.5453,2.5398,2.5398,2.5398,2.5398,2.5425,0.0,0.0,0.0,2.4979,2.4979,2.4979,2.4965,2.4979,2.4965,2.4937,0.0,2.4979,2.4979,2.4924,2.4829,2.4911,0.0,0.0,0.0,0.0,0.0,0.0,0.0,0.0,0.0,0.0,0.0,2.7637,2.7342,2.6696,2.7841,2.8631,2.8654,2.8895,2.9113,2.9185,2.9309,2.9478,2.9592,3.0145,3.0429,3.0358,3.0838,3.1217,3.12,3.1216,3.119,3.119,3.119,3.119,3.119,3.119,3.1162,3.1059,3.0625,3.0098,2.9534,2.948,2.9429,2.9406,2.9316,2.9225,2.9203,2.9157,2.9019,2.8965,2.8996,2.9027,2.8965,2.9065,2.8857,2.8415,2.8319,2.8189,2.771,2.7484,2.7357,2.7203,2.6201,2.5563,2.9779,0.0,2.9779,3.0075,0.0,3.0482,3.0771,3.1132,3.0671,3.0618,3.0863,3.0354,2.9997,2.9728,2.8763,2.8588,2.8989,2.8989,2.8989,2.9034,2.9442,2.9273,2.8637,2.844,2.8037,2.739,2.6784,2.6481,2.6481,2.6508,2.6481,2.6481,2.6481,2.6481,2.6508,2.6852,2.668,2.5946,2.5591,2.5398,2.5398,2.5398,2.5398,2.5398,2.5398,0.0,0.0,0.0,0.0,0.0,0.0,0.0,0.0,0.0,0.0,2.6472,2.6504,2.6638,2.6967,2.7269,2.7736,2.8356,2.8979,2.8962,2.8046,2.8867,2.9406,2.9406,2.9406,2.9518,2.9805,2.9827,2.9973,3.0267,3.0576,3.0757,3.0777,3.1015,3.119,3.119,3.119,3.119,3.119,3.119,3.119,3.119,3.119,3.119,3.1171,3.0955,3.0617,3.0335,3.0272,3.0293,3.0267,3.0,2.9865,2.9827,2.9607,2.9246,2.8904,2.9144,2.9272,2.9,2.9128,2.9271,2.9042,2.8943,2.8834,2.8591,2.8496,2.8352,2.8116,2.721,2.6587,3.0037,3.0075,3.0216,3.0733,3.1462,3.1476,3.196,3.2806,0.0,0.0,0.0,3.111,3.0597,3.0075,2.9509,2.9303,2.9442,2.9442,2.9456,2.9473,3.0048,2.9755,2.8726,2.9176,2.8843,2.7809,2.7645,2.7585,2.7585,2.7585,2.7585,2.7585,2.7585,2.7585,2.761,2.7795,2.7495,2.6677,2.5964,2.5628,2.5614,2.5614,2.5572,2.5433,2.5558,2.5279,2.4637,2.5246,2.5127,2.4168,2.5133,2.5759,2.5913,2.695,2.7841,2.8428,2.9032,2.9217,2.8775,2.9247,2.9387,2.8929,2.9847,3.0251,2.9739,2.9733,2.9717,2.9717,2.9733,2.9913,3.0398,3.0456,3.0658,3.1151,3.119,3.119,3.119,3.119,3.119,3.119,3.119,3.119,3.119,3.119,3.119,3.119,3.119,3.119,3.119,3.1171,3.1131,3.1075,3.1035,3.1131,3.1112,3.0797,3.0477,3.0418,3.0081,2.948,2.8936,2.9114,2.9178,2.8632,2.8968,2.9237,2.9343,2.9299,2.9374,2.9397,2.9384,2.9248,2.8756,2.8271,2.7845,3.1007,3.1068,3.1865,3.2285,3.2429,3.2379,3.2912,3.3716,3.3095,3.2511,3.2001,3.1406,3.119,3.1235,3.0463,3.0494,3.1131,3.1161,3.1146,3.1131,3.0669,3.0369,3.0145,2.9182,2.8652,2.8427,2.7884,2.7585,2.7585,2.7585,2.7585,2.7585,2.7585,2.76,2.7685,2.8622,2.8536,2.7301,2.6716,2.6436,2.6411,2.6436,2.613,2.5642,2.613,2.61,2.5479,2.5967,2.6184,2.6039,2.6627,2.6939,2.7001,2.7725,2.8215,2.8351,2.8988,2.9581,2.9981,3.0138,3.0365,3.0764,3.0968,3.1035,3.0975,3.0955,3.0938,3.0955,3.0895,3.0975,3.1055,3.1055,3.1055,3.1154,3.119,3.119,3.119,3.119,3.119,3.119,3.119,3.119,3.119,3.119,3.119,3.119,3.119,3.119,3.119,3.119,3.119,3.119,3.119,3.119,3.1171,3.1151,3.1015,3.1055,3.0922,3.0463,2.9744,2.9724,2.9574,2.8967,2.8961,2.9093,2.9185,2.9214,2.9293,2.9393,2.9444,2.9387,2.9262,2.9134,2.8787,3.1486,3.1997,3.2415,3.2876,3.3415,3.3939,3.4205,3.4203,3.3586,3.3145,3.2792,3.2191,3.1753,3.1468,3.1131,3.1146,3.1496,3.1496,3.1496,3.1451,3.0793,3.0328,2.9924,2.9026,2.8438,2.8064,2.775,2.7585,2.7585,2.7585,2.7585,2.761,2.7919,2.8247,2.856,2.8731,2.8532,2.7888,2.764,2.7333,2.6946,2.665,2.6459,2.6444,2.652,2.6321,2.5954,2.6504,2.6665,2.6309,2.6867,2.7185,2.7222,2.8199,2.8781,2.8814,2.9777,3.0497,3.0777,3.0797,3.0898,3.1154,3.119,3.119,3.119,3.119,3.119,3.119,3.119,3.119,3.119,3.119,3.119,3.119,3.119,3.119,3.119,3.119,3.119,3.119,3.119,3.119,3.119,3.119,3.119,3.119,3.119,3.119,3.119,3.119,3.119,3.119,3.119,3.119,3.119,3.119,3.119,3.119,3.0852,3.0328,2.9668,2.9517,2.9178,2.8569,2.8688,2.9004,2.9078,2.9092,2.929,2.9718,2.9795,2.9811,2.9831,2.9651,2.9088,3.2236,3.2925,3.3136,3.3671,3.4394,3.5166,3.5115,3.4474,3.3784,3.341,3.32,3.2587,3.1974,3.1525,3.1496,3.1496,3.1496,3.1496,3.1496,3.1421,3.0672,3.0043,2.9562,2.8798,2.8094,2.7645,2.7585,2.7585,2.7585,2.7585,2.766,2.786,2.8519,2.9002,2.9144,2.8877,2.8467,2.8035,2.8123,2.7803,2.7014,2.6565,2.6496,2.6697,2.6502,2.623,2.603,2.6599,2.6692,2.623,2.6744,2.7074,2.7143,2.8217,2.887,2.9012,3.018,3.1038,3.1193,3.1291,3.131,3.121,3.1291,3.1293,3.121,3.119,3.119,3.119,3.119,3.119,3.119,3.119,3.119,3.119,3.119,3.119,3.119,3.119,3.119,3.119,3.119,3.123,3.131,3.1332,3.1351,3.1351,3.1252,3.123,3.1293,3.1271,3.123,3.1291,3.1271,3.121,3.119,3.119,3.1123,3.1004,3.0497,2.9786,2.9093,2.8721,2.8416,2.7824,2.801,2.8416,2.8619,2.8721,2.8989,2.9522,2.9705,2.9866,3.0111,3.0072,2.9569,3.3774,3.3993,3.4806,3.5279,3.5311,3.5472,3.5115,3.4444,3.3769,3.3155,3.2557,3.1884,3.157,3.1511,3.1496,3.1496,3.1496,3.1496,3.1496,3.1361,3.0238,2.9666,2.9502,2.8319,2.766,2.7585,2.7585,2.7585,2.7585,2.7625,2.7894,2.8487,2.9563,2.9529,2.8662,2.9397,2.8948,2.7093,2.7563,2.7325,2.6382,2.6245,2.5947,2.5406,2.5951,2.5915,2.5436,2.5815,2.6087,2.6058,2.6498,2.6757,2.6824,2.7499,2.7938,2.8005,2.9377,3.048,3.1128,3.1545,3.1603,3.1288,3.1547,3.1603,3.1271,3.123,3.121,3.1232,3.123,3.1213,3.119,3.123,3.1271,3.1252,3.1249,3.119,3.119,3.119,3.119,3.119,3.1232,3.1349,3.166,3.177,3.1751,3.1751,3.1543,3.1449,3.1677,3.1526,3.143,3.1603,3.1451,3.1232,3.121,3.119,3.0954,3.0412,3.0159,2.9465,2.8535,2.7942,2.7689,2.7232,2.6962,2.7317,2.7705,2.7942,2.8213,2.889,2.9213,2.9397,2.9981,3.0521,3.0415,3.4361,3.4905,3.5326,3.5489,3.5489,3.5489,3.4891,3.3888,3.3604,3.2916,3.1944,3.1615,3.1496,3.1496,3.1496,3.1496,3.1496,3.1496,3.1496,3.1391,3.0193,2.9621,2.9472,2.8229,2.7585,2.7585,2.7585,2.7585,2.766,2.7968,2.8412,2.8902,2.9443,2.9329,2.8751,2.8736,2.829,2.7452,2.7246,2.6924,2.6533,2.6204,2.6073,2.6082,2.6094,2.6108,2.6085,2.6298,2.6419,2.6419,2.6607,2.6708,2.6708,2.7401,2.7789,2.7909,2.9484,3.0696,3.1237,3.1847,3.2144,3.1968,3.2144,3.2127,3.2003,3.1985,3.1968,3.1932,3.1732,3.1564,3.1618,3.1822,3.186,3.1621,3.1547,3.1451,3.121,3.119,3.1271,3.1488,3.1564,3.1732,3.2109,3.223,3.223,3.2196,3.2039,3.2021,3.2179,3.2074,3.2074,3.2109,3.1842,3.1487,3.1271,3.119,3.0852,3.026,2.9719,2.8975,2.8128,2.7367,2.7029,2.6742,2.6759,2.6826,2.708,2.7181,2.7385,2.8197,2.9245,2.977,3.0057,3.0683,3.0814,3.4839,3.5457,3.5489,3.54,3.522,3.522,3.4472,3.3305,3.323,3.2587,3.1555,3.1496,3.1496,3.1496,3.1496,3.1496,3.1496,3.1496,3.1391,3.1122,3.0088,2.9517,2.9232,2.8169,2.7585,2.761,2.7785,2.7929,2.8149,2.8709,2.906,2.9206,2.9363,2.9187,2.8651,2.806,2.7689,2.7452,2.6962,2.6708,2.6641,2.6367,2.6367,2.6641,2.6367,2.6349,2.6674,2.6708,2.6708,2.6691,2.6708,2.6708,2.6725,2.7215,2.7639,2.8066,2.9591,3.0796,3.1283,3.2172,3.2632,3.2534,3.2599,3.2632,3.2534,3.2501,3.2501,3.2467,3.2316,3.2214,3.2092,3.2334,3.2333,3.2022,3.1915,3.1678,3.143,3.1353,3.1488,3.1752,3.1915,3.2179,3.2549,3.2681,3.2681,3.2697,3.2567,3.2583,3.265,3.2583,3.2517,3.2648,3.2316,3.186,3.1449,3.1252,3.0891,3.0209,2.9533,2.8789,2.7942,2.7199,2.6725,2.6725,2.6826,2.708,2.7385,2.73,2.7606,2.8287,2.9219,3.0061,3.0072,3.0717,3.1089,3.5472,3.5504,3.5489,3.5115,3.4532,3.4563,3.3784,3.2632,3.2557,3.2153,3.154,3.1496,3.1496,3.1496,3.1496,3.1496,3.1496,3.1496,3.1152,3.0597,2.9921,2.925,2.8622,2.7944,2.761,2.771,2.8165,2.8709,2.9271,2.987,2.9872,2.9279,2.9699,2.9274,2.8111,2.7807,2.7435,2.686,2.6742,2.6708,2.6708,2.6691,2.6674,2.6674,2.6674,2.6657,2.6708,2.6708,2.6708,2.6708,2.6708,2.6708,2.6708,2.6759,2.7282,2.833,2.9546,3.0572,3.1342,3.2453,3.3014,3.2681,3.2968,3.2999,3.2681,3.2632,3.2632,3.2534,3.2921,3.2937,3.2599,3.2616,3.2583,3.245,3.2092,3.188,3.1789,3.1788,3.1771,3.1915,3.2281,3.2679,3.3124,3.3151,3.3151,3.309,3.2793,3.2697,3.3011,3.2809,3.2793,3.2968,3.2761,3.2298,3.1861,3.1526,3.0968,3.0166,2.9389,2.8739,2.796,2.7266,2.6979,2.6995,2.7589,2.7964,2.8032,2.8391,2.9006,2.9489,2.9671,3.0122,3.011,3.0717,3.1089,3.5489,3.5444,3.5026,3.4728,3.4474,3.4023,3.332,3.2512,3.2497,3.2108,3.157,3.1496,3.1496,3.1496,3.1496,3.1496,3.1496,3.1496,3.1122,3.0477,2.9906,2.9262,2.8577,2.7929,2.7835,2.8165,2.8391,2.9019,2.9892,3.0225,3.0133,2.9766,2.9507,2.8839,2.7908,2.7317,2.6945,2.6725,2.6708,2.6708,2.6708,2.6708,2.6708,2.6708,2.6708,2.6708,2.6708,2.6708,2.6708,2.6708,2.6708,2.6708,2.6725,2.6922,2.7483,2.8397,2.9801,3.0862,3.1451,3.2748,3.3522,3.3372,3.3476,3.3522,3.3372,3.3328,3.3328,3.3343,3.3447,3.3476,3.3386,3.3328,3.3225,3.2983,3.2793,3.2533,3.2333,3.2265,3.2367,3.2681,3.3075,3.3386,3.3494,3.3597,3.3578,3.3564,3.3419,3.3404,3.3508,3.3419,3.3375,3.3447,3.3225,3.2887,3.2761,3.2039,3.1258,3.0173,2.9297,2.8762,2.8063,2.8099,2.794,2.8402,2.8883,2.9323,2.9511,2.9495,3.0125,3.0053,3.0265,3.036,3.0148,3.0866,3.115,3.5489,3.5385,3.4788,3.4384,3.4129,3.3455,3.2796,3.2198,3.2198,3.1914,3.1555,3.1496,3.1496,3.1496,3.1496,3.1496,3.1496,3.1481,3.1032,3.0223,2.9774,2.9116,2.8359,2.8012,2.8091,2.8535,2.8904,2.9629,3.0477,3.058,3.0413,3.0053,2.9365,2.8602,2.7807,2.7063,2.6708,2.6708,2.6708,2.6708,2.6708,2.6708,2.6708,2.6708,2.6708,2.6708,2.6708,2.6708,2.6775,2.6857,2.6775,2.6741,2.6906,2.7376,2.7876,2.8486,3.0074,3.1154,3.153,3.2889,3.3807,3.3807,3.3807,3.3807,3.3807,3.3807,3.3807,3.3807,3.3807,3.3807,3.3807,3.3793,3.3694,3.3422,3.3273,3.309,3.2795,3.2729,3.2919,3.3302,3.3564,3.3748,3.3807,3.3807,3.3793,3.3807,3.3807,3.3807,3.3807,3.3807,3.3807,3.3793,3.3564,3.3404,3.3255,3.2727,3.2196,3.1166,3.0212,2.942,2.8973,2.9066,2.926,2.9779,3.0272,3.0736,3.0917,3.08,3.0729,3.0645,3.0693,3.0855,3.0902,3.1088,3.1287,3.5459,3.534,3.4741,3.4039,3.3425,3.2781,3.2108,3.163,3.1555,3.1555,3.1496,3.1496,3.1496,3.1496,3.1496,3.1496,3.1496,3.1496,3.0823,2.9756,2.9675,2.8967,2.7846,2.8293,2.8567,2.8732,2.9739,3.0576,3.1092,3.1078,3.0762,3.0072,2.9365,2.8586,2.7789,2.7097,2.6708,2.6708,2.6708,2.6708,2.6708,2.6708,2.6708,2.6708,2.6708,2.6708,2.6708,2.6725,2.6906,2.7178,2.6938,2.6939,2.7378,2.7946,2.8394,2.8701,3.0294,3.1298,3.1549,3.2889,3.3807,3.3807,3.3807,3.3807,3.3807,3.3807,3.3807,3.3807,3.3807,3.3807,3.3807,3.3807,3.3793,3.3748,3.348,3.324,3.3196,3.3199,3.3332,3.3666,3.3807,3.3807,3.3807,3.3807,3.3807,3.3807,3.3807,3.3807,3.3807,3.3807,3.3807,3.3807,3.3734,3.3666,3.3578,3.3433,3.3011,3.2435,3.1563,3.0768,3.0491,3.0455,3.0493,3.0942,3.1454,3.1915,3.2267,3.2187,3.2104,3.199,3.1819,3.1505,3.1586,3.1666,3.1459,3.4801,3.4651,3.3589,3.3021,3.2736,3.2093,3.1675,3.1525,3.1496,3.1496,3.1496,3.1496,3.1496,3.1496,3.1496,3.1496,3.1496,3.1466,3.0821,2.9853,3.0031,2.949,2.8535,2.8834,2.9339,2.9805,3.0518,3.1015,3.1151,3.119,3.0835,3.0091,2.9364,2.8586,2.7841,2.7097,2.6708,2.6708,2.6708,2.6708,2.6708,2.6708,2.6708,2.6708,2.6708,2.6708,2.6708,2.6971,2.7162,2.7319,2.7439,2.7692,2.8029,2.8259,2.8527,2.8949,3.0442,3.1403,3.1599,3.2834,3.3807,3.3807,3.3807,3.3807,3.3807,3.3807,3.3807,3.3807,3.3807,3.3807,3.3807,3.3807,3.3807,3.3807,3.3694,3.3592,3.3578,3.3611,3.3666,3.3766,3.3807,3.3807,3.3807,3.3807,3.3807,3.3807,3.3807,3.3807,3.3807,3.3807,3.3807,3.3807,3.3807,3.3807,3.3707,3.3652,3.3433,3.3031,3.2394,3.1926,3.175,3.1724,3.1778,3.1992,3.2538,3.2911,3.328,3.3261,3.2969,3.2961,3.2637,3.2428,3.2279,3.2109,3.1933,3.4711,3.4384,3.332,3.2721,3.2452,3.178,3.1496,3.1496,3.1496,3.1496,3.1496,3.1496,3.1496,3.1496,3.1496,3.1496,3.1496,3.1496,3.0934,3.0103,3.0288,2.9763,2.877,2.9361,3.0059,3.058,3.1015,3.119,3.119,3.1173,3.0954,3.0429,2.9517,2.8755,2.8163,2.7232,2.6708,2.6708,2.6708,2.6708,2.6708,2.6708,2.6708,2.6708,2.6708,2.6708,2.6725,2.7208,2.7532,2.7604,2.8006,2.8347,2.842,2.854,2.8749,2.9222,3.0411,3.1403,3.1549,3.2871,3.3807,3.3807,3.3807,3.3807,3.3807,3.3807,3.3807,3.3807,3.3807,3.3807,3.3807,3.3807,3.3807,3.3807,3.3807,3.3807,3.3807,3.3807,3.3807,3.3807,3.3807,3.3807,3.3807,3.3807,3.3807,3.3807,3.3807,3.3807,3.3807,3.3807,3.3807,3.3807,3.3807,3.3807,3.3807,3.3793,3.3807,3.3465,3.3045,3.281,3.2658,3.2744,3.2829,3.2938,3.3346,3.3341,3.3625,3.3254,3.2967,3.3108,3.3252,3.2898,3.2585,3.2611,3.2434,3.504,3.4367,3.3694,3.2976,3.2377,3.175,3.1496,3.1496,3.1496,3.1496,3.1496,3.1496,3.1496,3.1496,3.1496,3.1496,3.1524,3.1653,3.121,3.0658,3.059,3.0134,2.9224,2.9951,3.0617,3.1055,3.1171,3.119,3.119,3.119,3.1123,3.0702,2.9585,2.8874,2.8349,2.7317,2.6708,2.6708,2.6708,2.6708,2.6708,2.6708,2.6708,2.6708,2.6708,2.6708,2.6808,2.7409,2.788,2.8051,2.8583,2.8749,2.8577,2.8797,2.8964,2.9078,3.0503,3.1237,3.1715,3.2908,3.3807,3.3807,3.3807,3.3807,3.3807,3.3807,3.3807,3.3807,3.3807,3.3807,3.3807,3.3807,3.3807,3.3807,3.3807,3.3807,3.3807,3.3807,3.3807,3.3807,3.3807,3.3807,3.3807,3.3807,3.3807,3.3807,3.3807,3.3807,3.3807,3.3807,3.3807,3.3807,3.3807,3.3807,3.3807,3.3807,3.3807,3.3711,3.3424,3.3359,3.3309,3.3415,3.3506,3.3661,3.3748,3.3793,3.3715,3.3371,3.3298,3.3492,3.3392,3.3058,3.2958,3.2997,3.2745,3.4352,3.3694,3.3051,3.2363,3.1795,3.1555,3.1496,3.1496,3.1496,3.1496,3.1496,3.1496,3.1496,3.1496,3.1496,3.1496,3.1611,3.2064,3.1589,3.0798,3.1526,3.1338,3.0662,3.0777,3.1015,3.119,3.119,3.119,3.119,3.119,3.0666,2.9585,2.9297,2.8417,2.7368,2.6945,2.6725,2.6708,2.6708,2.6708,2.6708,2.6708,2.6708,2.6708,2.6708,2.6725,2.6775,2.7487,2.8188,2.8694,2.8851,2.897,2.8888,2.8977,2.9097,2.939,3.0503,3.1421,3.1727,3.2889,3.3733,3.3807,3.3807,3.3807,3.3807,3.3807,3.3807,3.3807,3.3807,3.3807,3.3807,3.3807,3.3807,3.3807,3.3844,3.3807,3.3807,3.3807,3.3807,3.3807,3.3825,3.3862,3.3807,3.3862,3.3844,3.3825,3.3807,3.3807,3.3807,3.3807,3.3807,3.3807,3.3807,3.3807,3.3807,3.3807,3.3807,3.3807,3.3711,3.368,3.3648,3.3661,3.3725,3.3793,3.3793,3.3807,3.3807,3.366,3.377,3.3788,3.3656,3.3424,3.341,3.339,3.2999,3.4129,3.344,3.2796,3.2108,3.1525,3.1496,3.1496,3.1496,3.1496,3.1496,3.1496,3.1496,3.1496,3.1496,3.1496,3.1496,3.1611,3.2272,3.1944,3.1151,3.153,3.1529,3.1246,3.119,3.119,3.119,3.119,3.119,3.119,3.119,3.0531,2.9687,2.9162,2.835,2.7351,2.6826,2.6708,2.6708,2.6708,2.6708,2.6708,2.6708,2.6928,2.6979,2.6928,2.6808,2.7261,2.8278,2.8945,2.9022,2.9005,2.9133,2.9482,2.95,2.9647,3.0008,3.1219,3.1935,3.2118,3.3091,3.3733,3.3807,3.3807,3.3807,3.3807,3.3807,3.3807,3.3807,3.3807,3.3807,3.3807,3.3807,3.3972,3.4234,3.4027,3.3844,3.3825,3.3807,3.3807,3.3862,3.4064,3.4137,3.3899,3.4082,3.4064,3.3917,3.3807,3.3807,3.3807,3.3807,3.3807,3.3807,3.3862,3.3899,3.3954,3.3972,3.4119,3.41,3.399,3.3954,3.3917,3.3899,3.3807,3.3807,3.3807,3.3807,3.3807,3.3807,3.3807,3.3807,3.3807,3.3793,3.3707,3.3652,3.3225,3.4114,3.344,3.2796,3.2108,3.154,3.1496,3.1496,3.1496,3.1496,3.1496,3.1496,3.1496,3.1496,3.1496,3.1496,3.1553,3.1682,3.2477,3.2398,3.1941,3.1722,3.1458,3.1458,3.1258,3.1207,3.119,3.119,3.119,3.119,3.119,3.0801,3.0006,2.9331,2.8602,2.7689,2.7063,2.6742,2.6708,2.6708,2.6758,2.6791,2.6792,2.7063,2.7658,2.7453,2.7598,2.8343,2.929,2.9898,2.9312,2.9244,2.9714,3.0265,3.0338,3.0613,3.1201,3.1935,3.2491,3.2674,3.3275,3.3807,3.3807,3.3807,3.3807,3.3807,3.3807,3.3807,3.3807,3.3807,3.388,3.4082,3.4064,3.4523,3.4949,3.4523,3.4174,3.4045,3.399,3.3954,3.4082,3.4747,3.4674,3.4491,3.4472,3.4747,3.427,3.4064,3.3807,3.3807,3.3807,3.3807,3.3807,3.3899,3.4009,3.4082,3.4156,3.4357,3.4468,3.4302,3.4197,3.4137,3.4064,3.3899,3.3807,3.3807,3.3807,3.3807,3.3807,3.3807,3.3807,3.3807,3.3807,3.3793,3.3766,3.3508,3.4114,3.344,3.2781,3.2108,3.1555,3.1496,3.1496,3.1496,3.1496,3.1496,3.1496,3.1496,3.1496,3.1496,3.1553,3.1796,3.2339,3.3003,3.3485,3.3718,3.2509,3.2124,3.1887,3.1481,3.1207,3.119,3.119,3.119,3.119,3.1123,3.0818,3.0091,2.9431,2.8602,2.7858,2.7283,2.6708,2.6708,2.6742,2.6959,2.7138,2.7027,2.7368,2.8235,2.8493,2.8955,2.9554,3.0006,3.0406,3.0755,3.0889,3.0999,3.1109,3.1127,3.1305,3.1654,3.221,3.2638,3.2748,3.3348,3.3807,3.3807,3.3807,3.3807,3.3807,3.3807,3.3807,3.3807,3.3825,3.4156,3.4784,3.5404,3.5716,3.5844,3.5771,3.5642,3.5642,3.5147,3.5023,3.5514,3.5826,3.5936,3.5697,3.5202,3.5078,3.4711,3.4325,3.3917,3.3844,3.388,3.3917,3.399,3.4266,3.4472,3.4835,3.4926,3.5073,3.511,3.4908,3.4766,3.4688,3.4266,3.4082,3.3935,3.3807,3.3807,3.3807,3.3807,3.3807,3.3807,3.3807,3.3807,3.3807,3.3807,3.3927,3.3634,3.2976,3.2303,3.1824,3.154,3.1496,3.1496,3.1496,3.1496,3.1496,3.1496,3.1496,3.1496,3.1524,3.1838,3.2272,3.2667,3.3239,3.3679,3.3657,3.2784,3.2124,3.1752,3.1427,3.119,3.119,3.119,3.119,3.119,3.114,3.0818,3.0159,2.9668,2.9161,2.8467,2.7926,2.7621,2.7418,2.7622,2.7845,2.7815,2.8042,2.8366,2.9352,3.0071,3.0708,3.0529,3.1303,3.1679,3.1994,3.2284,3.2302,3.2027,3.1971,3.2137,3.2577,3.2852,3.3164,3.333,3.3532,3.3807,3.3807,3.3807,3.3807,3.3807,3.3807,3.3807,3.3899,3.4229,3.4802,3.5973,3.6028,3.6431,3.6725,3.6505,3.6483,3.6615,3.6138,3.5738,3.6285,3.6593,3.6505,3.6285,3.6046,3.5881,3.5697,3.4912,3.4472,3.4266,3.4302,3.4247,3.4362,3.4711,3.5078,3.5569,3.5807,3.5936,3.5899,3.5734,3.5661,3.5605,3.4963,3.427,3.4119,3.3917,3.3825,3.3807,3.3807,3.3807,3.3807,3.3807,3.3807,3.3844,3.388,3.4147,3.3021,3.2422,3.178,3.1496,3.1496,3.1496,3.1496,3.1496,3.1496,3.1496,3.1553,3.1582,3.1768,3.1853,3.2449,3.2776,3.3061,3.338,3.384,3.3664,3.2767,3.2107,3.1616,3.1343,3.119,3.119,3.119,3.119,3.119,3.1157,3.0937,3.0362,3.0106,2.9719,2.9264,2.8976,2.8552,2.8146,2.8502,2.8853,2.8807,2.9221,2.9665,3.0494,3.1462,3.1888,3.1703,3.2318,3.298,3.2831,3.344,3.3353,3.2986,3.2821,3.3005,3.3715,3.3678,3.366,3.366,3.377,3.3807,3.3807,3.3807,3.3807,3.3807,3.3844,3.3935,3.4376,3.4876,3.5973,3.7235,3.7202,3.718,3.7419,3.7037,3.7055,3.7349,3.7037,3.6872,3.6872,3.7331,3.7441,3.7221,3.6982,3.6835,3.6541,3.5738,3.5133,3.4949,3.4839,3.4908,3.5183,3.5642,3.6288,3.6817,3.6927,3.7037,3.6835,3.667,3.6505,3.6413,3.5752,3.5037,3.4289,3.4032,3.3935,3.3844,3.3807,3.3807,3.3807,3.3862,3.3899,3.3935,3.3954,3.444,3.2602,3.2437,3.1765,3.1496,3.1496,3.1496,3.1496,3.1496,3.1496,3.1496,3.1596,3.2104,3.2293,3.2524,3.3114,3.3694,3.3966,3.4139,3.415,3.3897,3.2953,3.2124,3.187,3.1413,3.1207,3.119,3.119,3.119,3.119,3.1173,3.1089,3.0869,3.0446,3.0023,2.982,2.9382,2.9167,2.8966,2.924,2.9558,2.9881,3.0052,3.0437,3.1311,3.2252,3.2588,3.2796,3.3008,3.3303,3.3583,3.3733,3.3715,3.3568,3.3513,3.3623,3.3733,3.3807,3.3807,3.3807,3.3807,3.3807,3.3807,3.388,3.3862,3.3862,3.3954,3.4394,3.5096,3.6083,3.718,3.7437,3.779,3.8248,3.8395,3.8303,3.8193,3.8322,3.823,3.8065,3.7991,3.8248,3.8358,3.801,3.7734,3.7547,3.7202,3.6578,3.6138,3.5954,3.5881,3.5881,3.6248,3.674,3.7477,3.823,3.8193,3.8193,3.7918,3.7679,3.7345,3.7074,3.6523,3.5862,3.5293,3.4523,3.4045,3.3954,3.3917,3.3807,3.3807,3.3899,3.4027,3.4307,3.4619,3.5257,3.2273,3.1944,3.163,3.1496,3.1496,3.1496,3.1496,3.1496,3.1496,3.171,3.1942,3.2067,3.2215,3.254,3.2812,3.3529,3.4257,3.4078,3.3964,3.3643,3.2852,3.2056,3.1819,3.1326,3.1241,3.119,3.119,3.119,3.119,3.119,3.119,3.1123,3.0801,3.0666,3.0675,3.061,3.0189,3.0106,3.0421,3.0847,3.1228,3.1395,3.2139,3.2541,3.291,3.3281,3.3419,3.3508,3.3592,3.3748,3.3807,3.3807,3.3807,3.3807,3.3807,3.3807,3.3807,3.3807,3.3807,3.3807,3.3807,3.3862,3.4137,3.438,3.4546,3.489,3.5385,3.6211,3.6725,3.7694,3.8102,3.8469,3.8652,3.8707,3.8707,3.8707,3.8707,3.8707,3.8707,3.8707,3.8615,3.856,3.8579,3.834,3.819,3.7823,3.7331,3.7107,3.6923,3.6776,3.6688,3.7074,3.7492,3.7955,3.8579,3.8634,3.8707,3.8579,3.845,3.8102,3.7808,3.7294,3.6927,3.6523,3.5661,3.4669,3.4284,3.4321,3.4082,3.3935,3.4215,3.4546,3.4931,3.5389,3.5954,3.1974,3.1496,3.1496,3.1496,3.1496,3.1496,3.1496,3.1496,3.1496,3.191,3.2466,3.2022,3.2094,3.2554,3.28,3.3234,3.4184,3.3525,3.322,3.3017,3.2395,3.1701,3.136,3.119,3.119,3.119,3.119,3.119,3.119,3.119,3.119,3.1173,3.119,3.1252,3.1304,3.1398,3.1339,3.1568,3.1911,3.2353,3.26,3.3246,3.3807,3.3807,3.3807,3.378,3.3748,3.3766,3.3766,3.3807,3.3807,3.3807,3.3807,3.3807,3.3807,3.3807,3.3807,3.3807,3.3807,3.3807,3.3899,3.4174,3.4656,3.4986,3.5445,3.5954,3.6707,3.7364,3.7749,3.7988,3.8487,3.8689,3.8707,3.8707,3.8707,3.8707,3.8707,3.8707,3.8707,3.8707,3.8707,3.8689,3.8689,3.867,3.8432,3.8395,3.7936,3.7881,3.7679,3.7404,3.7404,3.7771,3.812,3.8395,3.867,3.867,3.8707,3.8652,3.8615,3.845,3.8285,3.8083,3.7771,3.7441,3.6666,3.5734,3.5257,3.4802,3.4724,3.4711,3.4839,3.5096,3.55,3.5922,3.6431,3.157,3.1496,3.1496,3.1496,3.1496,3.1496,3.1496,3.1496,3.1496,3.191,3.266,3.2414,3.261,3.3004,3.3111,3.33,3.3267,3.2797,3.2476,3.2446,3.1802,3.1376,3.1207,3.119,3.119,3.119,3.119,3.119,3.119,3.119,3.119,3.119,3.1252,3.1351,3.1658,3.1897,3.1987,3.2226,3.2448,3.2723,3.3069,3.3552,3.3762,3.3807,3.3807,3.3807,3.3807,3.3807,3.3807,3.3807,3.3807,3.3807,3.3807,3.3807,3.3807,3.3807,3.3807,3.3807,3.3807,3.3917,3.4174,3.4619,3.5059,3.5445,3.6211,3.6853,3.7437,3.7456,3.8065,3.845,3.8634,3.8689,3.8707,3.8707,3.8707,3.8707,3.8707,3.8707,3.8707,3.8707,3.8707,3.8707,3.8689,3.8689,3.8689,3.8652,3.8615,3.8505,3.8377,3.8046,3.7918,3.823,3.8377,3.8615,3.8707,3.8707,3.8707,3.8707,3.8707,3.8707,3.8579,3.845,3.8542,3.8102,3.7367,3.6872,3.645,3.6028,3.561,3.5445,3.55,3.5752,3.6083,3.6523,3.7074,3.1496,3.1496,3.1496,3.1496,3.1496,3.1496,3.1496,3.1496,3.1496,3.2132,3.2804,3.219,3.2017,3.2279,3.2158,3.2391,3.2547,3.2039,3.1955,3.2073,3.1582,3.119,3.119,3.119,3.119,3.119,3.119,3.119,3.119,3.119,3.119,3.1213,3.1411,3.1603,3.1933,3.2349,3.2647,3.2901,3.3121,3.3346,3.3536,3.3707,3.3807,3.3807,3.3807,3.3807,3.3807,3.3807,3.3807,3.3807,3.3807,3.3807,3.3807,3.3807,3.3807,3.3807,3.3807,3.3807,3.3862,3.4215,3.4637,3.5188,3.5844,3.6853,3.7514,3.7881,3.8138,3.8193,3.8487,3.8689,3.8707,3.8707,3.8707,3.8707,3.8707,3.8707,3.8707,3.8707,3.8707,3.8707,3.8707,3.8707,3.8707,3.8707,3.8707,3.8689,3.867,3.8615,3.8597,3.8505,3.845,3.856,3.8634,3.8689,3.8707,3.8707,3.8707,3.8707,3.8707,3.8707,3.8707,3.867,3.8707,3.8707,3.823,3.7808,3.7533,3.6927,3.6229,3.6138,3.6119,3.6431,3.6798,3.7533,3.801,3.1496,3.1496,3.1496,3.1496,3.1496,3.1496,3.1496,3.1496,3.171,3.2461,3.3061,3.2474,3.1825,3.147,3.1444,3.1596,3.1972,3.1447,3.1582,3.1667,3.1549,3.1224,3.119,3.119,3.119,3.119,3.119,3.119,3.119,3.119,3.119,3.121,3.1565,3.1843,3.2179,3.2679,3.3151,3.3346,3.3578,3.3721,3.3793,3.3793,3.3807,3.3807,3.3807,3.3807,3.3807,3.3807,3.3807,3.3807,3.3807,3.3807,3.3807,3.3807,3.3807,3.388,3.4009,3.4211,3.4339,3.4619,3.5041,3.5756,3.6743,3.7918,3.8395,3.8707,3.8689,3.8597,3.8652,3.8689,3.8707,3.8707,3.8707,3.8707,3.8707,3.8707,3.8707,3.8707,3.8707,3.8707,3.8707,3.8707,3.8707,3.8707,3.8707,3.8707,3.8707,3.8707,3.8707,3.8707,3.8707,3.8707,3.8707,3.8707,3.8707,3.8707,3.8707,3.8707,3.8707,3.8707,3.8707,3.8707,3.8707,3.8707,3.8707,3.8524,3.8102,3.7441,3.6835,3.6798,3.6835,3.7144,3.7603,3.8285,3.8652,3.1496,3.1496,3.1496,3.1496,3.1496,3.1496,3.1496,3.1553,3.216,3.2795,3.3411,3.3264,3.2706,3.2154,3.1478,3.1241,3.1292,3.1224,3.1309,3.1309,3.1207,3.119,3.119,3.119,3.119,3.119,3.119,3.119,3.1224,3.1343,3.1258,3.1252,3.1714,3.2057,3.245,3.295,3.3404,3.3606,3.3793,3.3807,3.3807,3.3807,3.3807,3.3807,3.3807,3.3807,3.3807,3.3807,3.3807,3.3807,3.3807,3.3807,3.3807,3.3954,3.4009,3.4119,3.4651,3.4876,3.5041,3.5224,3.5518,3.6413,3.7496,3.8505,3.867,3.8707,3.8707,3.8707,3.8707,3.8707,3.8707,3.8707,3.8707,3.8707,3.8707,3.8707,3.8707,3.8707,3.8707,3.8707,3.8707,3.8707,3.8707,3.8707,3.8707,3.8707,3.8707,3.8707,3.8707,3.8707,3.8707,3.8707,3.8707,3.8707,3.8707,3.8707,3.8707,3.8707,3.8707,3.8707,3.8707,3.8707,3.8707,3.8707,3.8707,3.8707,3.867,3.812,3.7698,3.7496,3.7547,3.7768,3.7918,3.8358,3.8615,3.1496,3.1496,3.1496,3.1496,3.1496,3.1496,3.1496,3.1524,3.1824,3.2307,3.2992,3.3206,3.2983,3.2276,3.1562,3.119,3.119,3.119,3.119,3.119,3.119,3.119,3.119,3.119,3.119,3.119,3.119,3.119,3.1207,3.1495,3.1481,3.156,3.1896,3.223,3.2647,3.3133,3.3592,3.3721,3.3807,3.3807,3.3807,3.3807,3.3807,3.3807,3.3807,3.3807,3.3807,3.3807,3.3807,3.3844,3.3862,3.3917,3.4027,3.4289,3.4509,3.4637,3.5334,3.5716,3.5917,3.6211,3.6909,3.7606,3.8358,3.8707,3.8707,3.8707,3.8707,3.8707,3.8707,3.8707,3.8707,3.8707,3.8707,3.8707,3.8707,3.8707,3.8707,3.8707,3.8707,3.8707,3.8707,3.8707,3.8707,3.8707,3.8707,3.8707,3.8707,3.8726,3.8799,3.8707,3.8707,3.8707,3.8707,3.8707,3.8707,3.8707,3.8707,3.8707,3.8707,3.8707,3.8707,3.8707,3.8707,3.8707,3.8707,3.8707,3.8707,3.8707,3.8487,3.8138,3.812,3.8285,3.8432,3.8505,3.8597,3.1496,3.1496,3.1496,3.1496,3.1496,3.1496,3.1496,3.1553,3.1768,3.2338,3.312,3.3356,3.3152,3.2493,3.1613,3.1207,3.119,3.119,3.119,3.119,3.119,3.119,3.119,3.119,3.119,3.119,3.119,3.119,3.1207,3.1732,3.1684,3.1704,3.2057,3.2417,3.2679,3.3314,3.3807,3.3807,3.4064,3.4137,3.4192,3.4504,3.4376,3.4339,3.4234,3.4234,3.4266,3.4284,3.4266,3.4376,3.4431,3.4412,3.4578,3.4839,3.5279,3.5661,3.6101,3.6615,3.6831,3.7129,3.7845,3.8377,3.8579,3.8707,3.8707,3.8707,3.8707,3.8707,3.8707,3.8707,3.8707,3.8707,3.8707,3.8707,3.8707,3.8707,3.8707,3.8707,3.8707,3.8707,3.8836,3.9184,3.935,3.9441,3.9478,3.9276,3.8799,3.8946,3.9203,3.9038,3.8707,3.8707,3.8707,3.8707,3.8707,3.8707,3.8707,3.8707,3.8707,3.8707,3.8707,3.8707,3.8707,3.8707,3.8707,3.8707,3.8707,3.8707,3.8707,3.8652,3.8634,3.856,3.8579,3.8615,3.8634,3.1496,3.1496,3.1496,3.1496,3.1496,3.1496,3.1496,3.1611,3.2284,3.3203,3.4071,3.3723,3.344,3.3017,3.1918,3.1343,3.119,3.119,3.1241,3.1343,3.1241,3.1207,3.1292,3.1326,3.1427,3.1241,3.1326,3.1393,3.1292,3.1529,3.1594,3.2067,3.2615,3.2915,3.2703,3.3394,3.3798,3.3972,3.4692,3.4912,3.5114,3.5587,3.544,3.5151,3.4986,3.4986,3.5004,3.4986,3.5004,3.5059,3.555,3.5495,3.5151,3.5826,3.6211,3.634,3.7052,3.7437,3.7511,3.7529,3.7973,3.856,3.8707,3.8707,3.8707,3.8707,3.8707,3.8707,3.8707,3.8707,3.8707,3.8707,3.8707,3.8707,3.8707,3.8854,3.8872,3.8982,3.9056,3.9386,3.968,3.9937,4.0157,4.0322,4.0377,4.0029,3.9203,3.9166,3.9643,3.9662,3.9386,3.9239,3.9258,3.9056,3.9056,3.8781,3.8707,3.8707,3.8707,3.8707,3.8707,3.8707,3.8707,3.8707,3.8707,3.8707,3.8707,3.8707,3.8707,3.8707,3.8707,3.867,3.8689,3.8707,3.8707,3.1496,3.1496,3.1496,3.1496,3.1496,3.1496,3.1496,3.171,3.2691,3.3531,3.3917,3.3968,3.3812,3.3203,3.2459,3.1718,3.1292,3.1224,3.1309,3.187,3.1546,3.1596,3.1749,3.1901,3.1921,3.1938,3.1938,3.1938,3.1972,3.1938,3.2239,3.2766,3.3716,3.4348,3.4307,3.4582,3.4802,3.5385,3.5752,3.5881,3.5917,3.6156,3.6211,3.5881,3.5848,3.5848,3.5862,3.5844,3.5862,3.5899,3.6376,3.6229,3.6046,3.6652,3.707,3.7239,3.7823,3.8267,3.8285,3.8322,3.8395,3.8634,3.8707,3.8707,3.8707,3.8707,3.8707,3.8707,3.8707,3.8707,3.8707,3.8707,3.8707,3.8707,3.8799,3.9129,3.9294,3.9496,3.9698,4.0286,4.0673,4.0763,4.0928,4.1222,4.1313,4.1332,4.0689,4.0341,4.0634,4.0655,4.049,4.0249,4.0102,3.9735,3.946,3.935,3.9038,3.8909,3.8817,3.8707,3.8707,3.8707,3.8799,3.8854,3.8781,3.8707,3.8707,3.8707,3.8707,3.8707,3.8707,3.8707,3.8707,3.8707,3.8707,3.1496,3.1496,3.1496,3.1496,3.1496,3.1496,3.1496,3.171,3.2718,3.3365,3.365,3.3975,3.4061,3.3596,3.3017,3.2547,3.1968,3.2002,3.2087,3.2594,3.2256,3.2357,3.256,3.2662,3.2679,3.2679,3.2699,3.2699,3.2679,3.2699,3.309,3.3897,3.5081,3.5633,3.5721,3.5793,3.5661,3.6138,3.6395,3.6721,3.6798,3.6945,3.707,3.6831,3.6721,3.6688,3.6688,3.6721,3.6721,3.6762,3.689,3.6927,3.7055,3.7367,3.786,3.812,3.8303,3.8673,3.8652,3.8634,3.8634,3.8689,3.8707,3.8707,3.8707,3.8707,3.8707,3.8707,3.8707,3.8707,3.8707,3.8707,3.8854,3.8872,3.9221,3.957,4.0084,4.0304,4.0414,4.1003,4.1462,4.157,4.1791,4.2029,4.2268,4.2286,4.2231,4.1901,4.1515,4.1407,4.1334,4.1111,4.0855,4.0506,4.023,4.0084,3.9717,3.9203,3.9111,3.9111,3.8707,3.8707,3.8854,3.8982,3.8909,3.8836,3.8726,3.8707,3.8744,3.8744,3.8707,3.8707,3.8707,3.8707,3.8707,3.1496,3.1496,3.1496,3.1496,3.1496,3.1496,3.1496,3.1582,3.2299,3.2986,3.3627,3.3622,3.3922,3.4255,3.3728,3.3339,3.3169,3.3186,3.3305,3.3322,3.3102,3.3288,3.3355,3.3423,3.344,3.344,3.344,3.3423,3.3423,3.3369,3.3859,3.4694,3.567,3.6422,3.6718,3.6817,3.6633,3.6964,3.7257,3.7496,3.7606,3.8065,3.7936,3.7698,3.7533,3.7529,3.7529,3.7514,3.7547,3.7734,3.8102,3.7988,3.8062,3.8303,3.856,3.8689,3.8673,3.8689,3.8707,3.8707,3.8707,3.8707,3.8707,3.8707,3.8707,3.8707,3.8707,3.8707,3.8707,3.8707,3.8707,3.8946,3.9166,3.946,3.9845,4.0341,4.093,4.1168,4.1222,4.1607,4.2084,4.2396,4.2837,4.3094,4.2855,4.2928,4.2873,4.2727,4.2341,4.1937,4.1847,4.1735,4.1479,4.1242,4.1003,4.0818,4.0451,3.9974,3.9918,3.9827,3.9313,3.9074,3.9515,3.9662,3.9221,3.9038,3.9111,3.9001,3.8854,3.8817,3.8726,3.8707,3.8707,3.8707,3.8707,3.1496,3.1496,3.1496,3.1496,3.1496,3.1496,3.1496,3.1611,3.2272,3.296,3.3617,3.4088,3.427,3.445,3.4252,3.3897,3.3592,3.3474,3.3795,3.3863,3.3812,3.388,3.4015,3.4184,3.4184,3.4184,3.4184,3.4167,3.4139,3.4076,3.4254,3.4871,3.6128,3.6934,3.7442,3.7826,3.783,3.79,3.812,3.8193,3.8267,3.856,3.845,3.8322,3.823,3.823,3.823,3.8248,3.8267,3.8414,3.8542,3.8469,3.8505,3.8597,3.8707,3.8707,3.8707,3.8707,3.8707,3.8707,3.8707,3.8707,3.8707,3.8707,3.8707,3.8707,3.8707,3.8707,3.8707,3.8707,3.8891,3.9148,3.9496,3.9937,4.0432,4.113,4.1682,4.1974,4.2047,4.2396,4.2873,4.2947,4.3442,4.3424,4.3222,4.3387,4.3424,4.3277,4.3094,4.2653,4.2451,4.2341,4.2194,4.1992,4.1717,4.1497,4.113,4.0799,4.0744,4.0671,4.038,4.027,4.049,4.0435,4.0194,3.99,3.9643,3.9551,3.9478,3.8909,3.8744,3.8726,3.8707,3.8707,3.8692,3.1496,3.1496,3.1496,3.1496,3.1496,3.1496,3.1496,3.1582,3.1979,3.2544,3.3205,3.3866,3.4315,3.4558,3.4742,3.4726,3.4382,3.4416,3.4602,3.4692,3.4399,3.4658,3.4844,3.4912,3.4928,3.4928,3.4928,3.4945,3.489,3.5091,3.5281,3.5564,3.6684,3.7217,3.7683,3.8004,3.8387,3.8502,3.8652,3.8707,3.8707,3.8707,3.8707,3.8707,3.8707,3.8707,3.8707,3.8707,3.8707,3.8707,3.8707,3.8707,3.8689,3.8707,3.8707,3.8707,3.8707,3.8707,3.8707,3.8707,3.8707,3.8707,3.8707,3.8707,3.8707,3.8707,3.8707,3.8707,3.8707,3.8762,3.9056,3.9368,3.9863,4.0359,4.113,4.1919,4.2323,4.269,4.2983,4.3296,4.3424,4.3406,4.3479,4.3479,4.3479,4.3479,4.3479,4.3424,4.3369,4.3222,4.3094,4.3039,4.291,4.2745,4.247,4.2213,4.1992,4.1735,4.1589,4.1497,4.1334,4.1113,4.0985,4.1132,4.1297,4.0946,4.0524,4.0377,4.0215,3.9606,3.9074,3.9019,3.8927,3.8707,3.8692,3.1496,3.1496,3.1496,3.1496,3.1496,3.1496,3.1496,3.1524,3.1668,3.1989,3.2724,3.3326,3.4055,3.4718,3.5199,3.543,3.5245,3.5245,3.5211,3.5549,3.5329,3.5363,3.5397,3.5583,3.538,3.5515,3.5549,3.5385,3.562,3.56,3.5649,3.6405,3.6946,3.7361,3.7662,3.777,3.8066,3.8433,3.853,3.8546,3.8658,3.8707,3.8707,3.8707,3.8707,3.8707,3.8707,3.8707,3.8707,3.8707,3.8707,3.8707,3.8707,3.8707,3.8707,3.8707,3.8707,3.8707,3.8707,3.8707,3.8707,3.8707,3.8707,3.8707,3.8707,3.8707,3.8707,3.8707,3.8707,3.8946,3.9239,3.9882,4.0451,4.1148,4.1937,4.2525,4.2928,4.3149,4.3259,4.3479,4.3479,4.3479,4.3479,4.3479,4.3479,4.3479,4.3479,4.3479,4.3479,4.3479,4.3479,4.3479,4.3332,4.3167,4.3167,4.2947,4.2873,4.269,4.2433,4.2286,4.2121,4.1772,4.1368,4.1772,4.2213,4.1827,4.1479,4.1295,4.0928,4.0267,3.979,3.9478,3.9221,3.8964,3.8707,3.1496,3.1496,3.1496,3.1496,3.1496,3.1496,3.1496,3.1553,3.2104,3.2652,3.3288,3.3588,3.4235,3.5133,3.543,3.5616,3.5616,3.5616,3.5616,3.56,3.56,3.5515,3.5583,3.5549,3.5566,3.5616,3.5616,3.56,3.5582,3.5453,3.5518,3.6215,3.6531,3.6619,3.7342,3.7378,3.7685,3.8167,3.82,3.8399,3.8658,3.8707,3.8707,3.8707,3.8707,3.8707,3.8707,3.8707,3.8707,3.8707,3.8707,3.8707,3.8707,3.8707,3.8707,3.8707,3.8707,3.8707,3.8707,3.8707,3.8707,3.8707,3.8707,3.8707,3.8707,3.8707,3.8707,3.8707,3.8817,3.9093,3.957,4.0304,4.1056,4.1864,4.2635,4.3075,4.3479,4.3479,4.3479,4.3479,4.3479,4.3479,4.3479,4.3479,4.3479,4.3479,4.3479,4.3479,4.3479,4.3479,4.3479,4.3479,4.3479,4.3424,4.3479,4.3442,4.3259,4.324,4.3039,4.2928,4.2837,4.2616,4.2378,4.2782,4.3039,4.2598,4.2249,4.2103,4.1644,4.0983,4.0524,4.0212,3.9735,3.9423,3.9001,3.1047,3.1047,3.1047,3.1227,3.1466,3.1496,3.1496,3.1582,3.1938,3.2664,3.3598,3.3946,3.4492,3.5211,3.5414,3.5616,3.5616,3.5616,3.5616,3.5616,3.5549,3.5334,3.5368,3.5447,3.5228,3.5261,3.5532,3.5566,3.5498,3.5391,3.5543,3.5972,3.5801,3.609,3.6865,3.7058,3.7415,3.7894,3.7893,3.82,3.8643,3.8707,3.8707,3.8707,3.8707,3.8707,3.8707,3.8707,3.8707,3.8707,3.8707,3.8707,3.8707,3.8707,3.8707,3.8707,3.8707,3.8707,3.8707,3.8707,3.8707,3.8707,3.8707,3.8707,3.8707,3.8707,3.8707,3.8707,3.8707,3.8946,3.9717,4.0469,4.1277,4.2066,4.2782,4.3332,4.3479,4.3479,4.3479,4.3479,4.3479,4.3479,4.3479,4.3479,4.3479,4.3479,4.3479,4.3479,4.3479,4.3479,4.3479,4.3479,4.3479,4.3479,4.3479,4.3479,4.3424,4.3461,4.3479,4.3351,4.3167,4.3332,4.3442,4.3441,4.3404,4.324,4.2965,4.2745,4.2396,4.1791,4.135,4.0965,4.0469,3.9997,3.9719,3.0522,3.0492,3.0507,3.0883,3.1451,3.1496,3.1496,3.1553,3.1739,3.2489,3.3633,3.4406,3.4641,3.4891,3.5228,3.5464,3.5616,3.5616,3.5616,3.5616,3.5616,3.5419,3.5301,3.5284,3.5177,3.5194,3.5397,3.5532,3.5583,3.5504,3.5509,3.5694,3.5985,3.6333,3.6539,3.6843,3.7285,3.7737,3.798,3.8234,3.8481,3.8707,3.8707,3.8707,3.8707,3.8707,3.8707,3.8707,3.8707,3.8707,3.8707,3.8707,3.8707,3.8707,3.8707,3.8707,3.8707,3.8707,3.8707,3.8707,3.8707,3.8707,3.8707,3.8707,3.8707,3.8836,3.8836,3.8927,3.8927,3.9368,4.0157,4.0818,4.1607,4.2323,4.3002,4.3479,4.3479,4.3479,4.3479,4.3479,4.3479,4.3479,4.3479,4.3479,4.3479,4.3479,4.3479,4.3479,4.3479,4.3479,4.3479,4.3479,4.3479,4.3479,4.3479,4.3479,4.3479,4.3479,4.3479,4.3479,4.3479,4.3479,4.3479,4.3479,4.3424,4.3387,4.3406,4.324,4.2855,4.247,4.1992,4.157,4.1313,4.0883,4.0612,3.0492,3.0492,3.0492,3.0868,3.1436,3.1496,3.1496,3.171,3.2691,3.3401,3.3811,3.4823,3.5403,3.5363,3.5481,3.5616,3.5616,3.5616,3.5616,3.5616,3.5616,3.5481,3.5329,3.5216,3.543,3.5481,3.5481,3.5566,3.5616,3.5616,3.5639,3.5644,3.5667,3.6006,3.6395,3.6764,3.7136,3.7649,3.8032,3.8251,3.8546,3.8707,3.8707,3.8707,3.8707,3.8707,3.8707,3.8707,3.8707,3.8707,3.8707,3.8707,3.8707,3.8707,3.8707,3.8707,3.8707,3.8707,3.8707,3.8707,3.8707,3.8707,3.8707,3.8707,3.8891,3.9331,3.9441,3.9698,3.99,4.0524,4.1203,4.1607,4.2268,4.2818,4.3442,4.3479,4.3479,4.3479,4.3479,4.3479,4.3479,4.3479,4.3479,4.3479,4.3479,4.3479,4.3479,4.3479,4.3479,4.3479,4.3479,4.3479,4.3479,4.3479,4.3479,4.3479,4.3479,4.3479,4.3479,4.3479,4.3479,4.3479,4.3479,4.3479,4.3479,4.3461,4.3479,4.3479,4.3387,4.2983,4.2506,4.2121,4.1956,4.1746,4.1432]}]]